<?xml version="1.0" encoding="UTF-8" standalone="no" ?>
<gpx xmlns="http://www.topografix.com/GPX/1/1" xmlns:xsi="http://www.w3.org/2001/XMLSchema-instance" xsi:schemaLocation="http://www.topografix.com/GPX/1/1 http://www.topografix.com/GPX/1/1/gpx.xsd" version="1.1" creator="VisuGPX - https://www.visugpx.com">
  <metadata>
    <name>Causse Méjean - Gargo</name>
    <desc><![CDATA[Causse Méjean - Mont Gargo au départ de Villeneuve]]></desc>
  </metadata>
  <trk>
    <name><![CDATA[Gargo]]></name>
    <desc><![CDATA[]]></desc>
    <trkseg>
      <trkpt lat="44.23729" lon="3.54554">
        <ele>1082.7</ele>
        <time>2015-08-22T12:26:46.227Z</time>
      </trkpt>
      <trkpt lat="44.23733" lon="3.54544">
        <ele>1087</ele>
        <time>2015-08-22T12:27:57.897Z</time>
      </trkpt>
      <trkpt lat="44.23733" lon="3.54542">
        <ele>1087.8</ele>
        <time>2015-08-22T12:27:58.849Z</time>
      </trkpt>
      <trkpt lat="44.23738" lon="3.54533">
        <ele>1085.5</ele>
        <time>2015-08-22T12:28:04.922Z</time>
      </trkpt>
      <trkpt lat="44.23739" lon="3.54532">
        <ele>1085.4</ele>
        <time>2015-08-22T12:28:05.846Z</time>
      </trkpt>
      <trkpt lat="44.23744" lon="3.54522">
        <ele>1086.7</ele>
        <time>2015-08-22T12:28:13.891Z</time>
      </trkpt>
      <trkpt lat="44.23744" lon="3.54521">
        <ele>1086.4</ele>
        <time>2015-08-22T12:28:14.849Z</time>
      </trkpt>
      <trkpt lat="44.2375" lon="3.54513">
        <ele>1087.8</ele>
        <time>2015-08-22T12:28:21.902Z</time>
      </trkpt>
      <trkpt lat="44.2375" lon="3.54511">
        <ele>1088.1</ele>
        <time>2015-08-22T12:28:22.850Z</time>
      </trkpt>
      <trkpt lat="44.23755" lon="3.54502">
        <ele>1089.9</ele>
        <time>2015-08-22T12:28:29.900Z</time>
      </trkpt>
      <trkpt lat="44.23756" lon="3.54501">
        <ele>1090.3</ele>
        <time>2015-08-22T12:28:30.854Z</time>
      </trkpt>
      <trkpt lat="44.23761" lon="3.54491">
        <ele>1092.9</ele>
        <time>2015-08-22T12:28:36.934Z</time>
      </trkpt>
      <trkpt lat="44.23762" lon="3.5449">
        <ele>1093.4</ele>
        <time>2015-08-22T12:28:37.862Z</time>
      </trkpt>
      <trkpt lat="44.23765" lon="3.54502">
        <ele>1097.2</ele>
        <time>2015-08-22T12:28:47.909Z</time>
      </trkpt>
      <trkpt lat="44.23763" lon="3.54503">
        <ele>1097.7</ele>
        <time>2015-08-22T12:28:48.855Z</time>
      </trkpt>
      <trkpt lat="44.23759" lon="3.54513">
        <ele>1099.4</ele>
        <time>2015-08-22T12:28:56.908Z</time>
      </trkpt>
      <trkpt lat="44.23758" lon="3.54514">
        <ele>1099.5</ele>
        <time>2015-08-22T12:28:57.854Z</time>
      </trkpt>
      <trkpt lat="44.23766" lon="3.54519">
        <ele>1100.9</ele>
        <time>2015-08-22T12:29:12.905Z</time>
      </trkpt>
      <trkpt lat="44.23767" lon="3.54518">
        <ele>1100.9</ele>
        <time>2015-08-22T12:29:13.853Z</time>
      </trkpt>
      <trkpt lat="44.23771" lon="3.54508">
        <ele>1101.3</ele>
        <time>2015-08-22T12:29:21.902Z</time>
      </trkpt>
      <trkpt lat="44.23772" lon="3.54507">
        <ele>1101.5</ele>
        <time>2015-08-22T12:29:22.856Z</time>
      </trkpt>
      <trkpt lat="44.23776" lon="3.54496">
        <ele>1102.9</ele>
        <time>2015-08-22T12:29:30.904Z</time>
      </trkpt>
      <trkpt lat="44.23777" lon="3.54494">
        <ele>1103.1</ele>
        <time>2015-08-22T12:29:31.856Z</time>
      </trkpt>
      <trkpt lat="44.2378" lon="3.54484">
        <ele>1104.2</ele>
        <time>2015-08-22T12:29:38.906Z</time>
      </trkpt>
      <trkpt lat="44.2378" lon="3.54483">
        <ele>1104.4</ele>
        <time>2015-08-22T12:29:39.848Z</time>
      </trkpt>
      <trkpt lat="44.23782" lon="3.54472">
        <ele>1105.1</ele>
        <time>2015-08-22T12:29:46.913Z</time>
      </trkpt>
      <trkpt lat="44.23782" lon="3.5447">
        <ele>1105.4</ele>
        <time>2015-08-22T12:29:47.853Z</time>
      </trkpt>
      <trkpt lat="44.23783" lon="3.54458">
        <ele>1107.1</ele>
        <time>2015-08-22T12:29:55.914Z</time>
      </trkpt>
      <trkpt lat="44.23783" lon="3.54456">
        <ele>1107.2</ele>
        <time>2015-08-22T12:29:56.850Z</time>
      </trkpt>
      <trkpt lat="44.23782" lon="3.54445">
        <ele>1107.8</ele>
        <time>2015-08-22T12:30:03.898Z</time>
      </trkpt>
      <trkpt lat="44.23782" lon="3.54444">
        <ele>1108</ele>
        <time>2015-08-22T12:30:04.852Z</time>
      </trkpt>
      <trkpt lat="44.23782" lon="3.54432">
        <ele>1108.8</ele>
        <time>2015-08-22T12:30:11.963Z</time>
      </trkpt>
      <trkpt lat="44.23782" lon="3.5443">
        <ele>1108.9</ele>
        <time>2015-08-22T12:30:12.856Z</time>
      </trkpt>
      <trkpt lat="44.2378" lon="3.54418">
        <ele>1109.9</ele>
        <time>2015-08-22T12:30:20.329Z</time>
      </trkpt>
      <trkpt lat="44.2378" lon="3.54417">
        <ele>1110</ele>
        <time>2015-08-22T12:30:20.856Z</time>
      </trkpt>
      <trkpt lat="44.23781" lon="3.54404">
        <ele>1111</ele>
        <time>2015-08-22T12:30:27.900Z</time>
      </trkpt>
      <trkpt lat="44.23782" lon="3.54403">
        <ele>1110.9</ele>
        <time>2015-08-22T12:30:28.862Z</time>
      </trkpt>
      <trkpt lat="44.23785" lon="3.54392">
        <ele>1111.4</ele>
        <time>2015-08-22T12:30:35.897Z</time>
      </trkpt>
      <trkpt lat="44.23785" lon="3.5439">
        <ele>1111.5</ele>
        <time>2015-08-22T12:30:36.865Z</time>
      </trkpt>
      <trkpt lat="44.23789" lon="3.5438">
        <ele>1112.1</ele>
        <time>2015-08-22T12:30:43.891Z</time>
      </trkpt>
      <trkpt lat="44.2379" lon="3.54379">
        <ele>1112.3</ele>
        <time>2015-08-22T12:30:44.854Z</time>
      </trkpt>
      <trkpt lat="44.23794" lon="3.54368">
        <ele>1113.1</ele>
        <time>2015-08-22T12:30:51.899Z</time>
      </trkpt>
      <trkpt lat="44.23795" lon="3.54367">
        <ele>1113.1</ele>
        <time>2015-08-22T12:30:52.852Z</time>
      </trkpt>
      <trkpt lat="44.23799" lon="3.54357">
        <ele>1113.5</ele>
        <time>2015-08-22T12:30:59.892Z</time>
      </trkpt>
      <trkpt lat="44.238" lon="3.54355">
        <ele>1113.6</ele>
        <time>2015-08-22T12:31:00.856Z</time>
      </trkpt>
      <trkpt lat="44.23803" lon="3.54345">
        <ele>1114.4</ele>
        <time>2015-08-22T12:31:08.256Z</time>
      </trkpt>
      <trkpt lat="44.23804" lon="3.54343">
        <ele>1114.5</ele>
        <time>2015-08-22T12:31:08.855Z</time>
      </trkpt>
      <trkpt lat="44.23807" lon="3.54333">
        <ele>1115</ele>
        <time>2015-08-22T12:31:15.894Z</time>
      </trkpt>
      <trkpt lat="44.23808" lon="3.54332">
        <ele>1115.3</ele>
        <time>2015-08-22T12:31:16.857Z</time>
      </trkpt>
      <trkpt lat="44.23811" lon="3.54321">
        <ele>1115.3</ele>
        <time>2015-08-22T12:31:23.894Z</time>
      </trkpt>
      <trkpt lat="44.23811" lon="3.54319">
        <ele>1115.3</ele>
        <time>2015-08-22T12:31:24.853Z</time>
      </trkpt>
      <trkpt lat="44.23813" lon="3.54308">
        <ele>1115.9</ele>
        <time>2015-08-22T12:31:31.889Z</time>
      </trkpt>
      <trkpt lat="44.23813" lon="3.54307">
        <ele>1116</ele>
        <time>2015-08-22T12:31:32.853Z</time>
      </trkpt>
      <trkpt lat="44.23809" lon="3.54296">
        <ele>1117.5</ele>
        <time>2015-08-22T12:31:41.293Z</time>
      </trkpt>
      <trkpt lat="44.23809" lon="3.54295">
        <ele>1117.8</ele>
        <time>2015-08-22T12:31:41.853Z</time>
      </trkpt>
      <trkpt lat="44.23803" lon="3.54287">
        <ele>1119.1</ele>
        <time>2015-08-22T12:31:48.911Z</time>
      </trkpt>
      <trkpt lat="44.23802" lon="3.54286">
        <ele>1119.4</ele>
        <time>2015-08-22T12:31:49.854Z</time>
      </trkpt>
      <trkpt lat="44.23794" lon="3.54279">
        <ele>1120.1</ele>
        <time>2015-08-22T12:31:57.899Z</time>
      </trkpt>
      <trkpt lat="44.23793" lon="3.54278">
        <ele>1120.2</ele>
        <time>2015-08-22T12:31:58.860Z</time>
      </trkpt>
      <trkpt lat="44.23786" lon="3.54273">
        <ele>1121</ele>
        <time>2015-08-22T12:32:06.947Z</time>
      </trkpt>
      <trkpt lat="44.23785" lon="3.54273">
        <ele>1121.1</ele>
        <time>2015-08-22T12:32:07.854Z</time>
      </trkpt>
      <trkpt lat="44.23777" lon="3.54269">
        <ele>1121.7</ele>
        <time>2015-08-22T12:32:14.912Z</time>
      </trkpt>
      <trkpt lat="44.23776" lon="3.54269">
        <ele>1121.9</ele>
        <time>2015-08-22T12:32:15.855Z</time>
      </trkpt>
      <trkpt lat="44.23769" lon="3.54262">
        <ele>1122.8</ele>
        <time>2015-08-22T12:32:22.901Z</time>
      </trkpt>
      <trkpt lat="44.23768" lon="3.54261">
        <ele>1122.9</ele>
        <time>2015-08-22T12:32:23.850Z</time>
      </trkpt>
      <trkpt lat="44.23761" lon="3.54255">
        <ele>1123.5</ele>
        <time>2015-08-22T12:32:30.915Z</time>
      </trkpt>
      <trkpt lat="44.2376" lon="3.54254">
        <ele>1123.7</ele>
        <time>2015-08-22T12:32:31.852Z</time>
      </trkpt>
      <trkpt lat="44.23753" lon="3.54245">
        <ele>1124.7</ele>
        <time>2015-08-22T12:32:39.288Z</time>
      </trkpt>
      <trkpt lat="44.23753" lon="3.54244">
        <ele>1124.7</ele>
        <time>2015-08-22T12:32:39.855Z</time>
      </trkpt>
      <trkpt lat="44.23749" lon="3.54234">
        <ele>1125.6</ele>
        <time>2015-08-22T12:32:46.902Z</time>
      </trkpt>
      <trkpt lat="44.23748" lon="3.54232">
        <ele>1125.8</ele>
        <time>2015-08-22T12:32:47.865Z</time>
      </trkpt>
      <trkpt lat="44.23747" lon="3.5422">
        <ele>1127</ele>
        <time>2015-08-22T12:32:55.996Z</time>
      </trkpt>
      <trkpt lat="44.23748" lon="3.54219">
        <ele>1127.2</ele>
        <time>2015-08-22T12:32:56.855Z</time>
      </trkpt>
      <trkpt lat="44.2375" lon="3.54207">
        <ele>1128.5</ele>
        <time>2015-08-22T12:33:07.899Z</time>
      </trkpt>
      <trkpt lat="44.2375" lon="3.54205">
        <ele>1128.3</ele>
        <time>2015-08-22T12:33:08.850Z</time>
      </trkpt>
      <trkpt lat="44.23752" lon="3.54194">
        <ele>1129</ele>
        <time>2015-08-22T12:33:14.910Z</time>
      </trkpt>
      <trkpt lat="44.23753" lon="3.54193">
        <ele>1129.2</ele>
        <time>2015-08-22T12:33:15.853Z</time>
      </trkpt>
      <trkpt lat="44.23755" lon="3.54181">
        <ele>1129.6</ele>
        <time>2015-08-22T12:33:22.907Z</time>
      </trkpt>
      <trkpt lat="44.23755" lon="3.5418">
        <ele>1129.7</ele>
        <time>2015-08-22T12:33:23.853Z</time>
      </trkpt>
      <trkpt lat="44.23758" lon="3.54169">
        <ele>1130.7</ele>
        <time>2015-08-22T12:33:30.916Z</time>
      </trkpt>
      <trkpt lat="44.23758" lon="3.54167">
        <ele>1130.9</ele>
        <time>2015-08-22T12:33:31.853Z</time>
      </trkpt>
      <trkpt lat="44.23761" lon="3.54156">
        <ele>1131.3</ele>
        <time>2015-08-22T12:33:38.912Z</time>
      </trkpt>
      <trkpt lat="44.23761" lon="3.54155">
        <ele>1131.4</ele>
        <time>2015-08-22T12:33:39.853Z</time>
      </trkpt>
      <trkpt lat="44.23764" lon="3.54143">
        <ele>1132.1</ele>
        <time>2015-08-22T12:33:46.953Z</time>
      </trkpt>
      <trkpt lat="44.23765" lon="3.54141">
        <ele>1132.2</ele>
        <time>2015-08-22T12:33:47.854Z</time>
      </trkpt>
      <trkpt lat="44.23768" lon="3.5413">
        <ele>1133.3</ele>
        <time>2015-08-22T12:33:54.963Z</time>
      </trkpt>
      <trkpt lat="44.23768" lon="3.54129">
        <ele>1133.3</ele>
        <time>2015-08-22T12:33:55.868Z</time>
      </trkpt>
      <trkpt lat="44.2377" lon="3.54118">
        <ele>1134.2</ele>
        <time>2015-08-22T12:34:02.926Z</time>
      </trkpt>
      <trkpt lat="44.2377" lon="3.54117">
        <ele>1134.4</ele>
        <time>2015-08-22T12:34:03.853Z</time>
      </trkpt>
      <trkpt lat="44.2377" lon="3.54104">
        <ele>1135</ele>
        <time>2015-08-22T12:34:11.904Z</time>
      </trkpt>
      <trkpt lat="44.2377" lon="3.54103">
        <ele>1135</ele>
        <time>2015-08-22T12:34:12.859Z</time>
      </trkpt>
      <trkpt lat="44.2377" lon="3.54091">
        <ele>1135.6</ele>
        <time>2015-08-22T12:34:19.936Z</time>
      </trkpt>
      <trkpt lat="44.2377" lon="3.54089">
        <ele>1135.7</ele>
        <time>2015-08-22T12:34:20.854Z</time>
      </trkpt>
      <trkpt lat="44.23769" lon="3.54077">
        <ele>1137.3</ele>
        <time>2015-08-22T12:34:28.906Z</time>
      </trkpt>
      <trkpt lat="44.23769" lon="3.54075">
        <ele>1137.6</ele>
        <time>2015-08-22T12:34:29.852Z</time>
      </trkpt>
      <trkpt lat="44.23768" lon="3.54063">
        <ele>1138.2</ele>
        <time>2015-08-22T12:34:36.913Z</time>
      </trkpt>
      <trkpt lat="44.23768" lon="3.54061">
        <ele>1138.4</ele>
        <time>2015-08-22T12:34:37.856Z</time>
      </trkpt>
      <trkpt lat="44.23769" lon="3.54049">
        <ele>1139.1</ele>
        <time>2015-08-22T12:34:44.934Z</time>
      </trkpt>
      <trkpt lat="44.23769" lon="3.54047">
        <ele>1139.1</ele>
        <time>2015-08-22T12:34:45.864Z</time>
      </trkpt>
      <trkpt lat="44.2377" lon="3.54036">
        <ele>1139.1</ele>
        <time>2015-08-22T12:34:51.924Z</time>
      </trkpt>
      <trkpt lat="44.23771" lon="3.54034">
        <ele>1139.2</ele>
        <time>2015-08-22T12:34:52.878Z</time>
      </trkpt>
      <trkpt lat="44.23773" lon="3.54024">
        <ele>1139.3</ele>
        <time>2015-08-22T12:34:58.909Z</time>
      </trkpt>
      <trkpt lat="44.23774" lon="3.54022">
        <ele>1139.3</ele>
        <time>2015-08-22T12:34:59.864Z</time>
      </trkpt>
      <trkpt lat="44.23776" lon="3.54012">
        <ele>1139.7</ele>
        <time>2015-08-22T12:35:06.076Z</time>
      </trkpt>
      <trkpt lat="44.23777" lon="3.5401">
        <ele>1139.8</ele>
        <time>2015-08-22T12:35:06.857Z</time>
      </trkpt>
      <trkpt lat="44.2378" lon="3.54">
        <ele>1140.4</ele>
        <time>2015-08-22T12:35:12.910Z</time>
      </trkpt>
      <trkpt lat="44.2378" lon="3.53998">
        <ele>1140.5</ele>
        <time>2015-08-22T12:35:13.853Z</time>
      </trkpt>
      <trkpt lat="44.23784" lon="3.53987">
        <ele>1140.5</ele>
        <time>2015-08-22T12:35:20.907Z</time>
      </trkpt>
      <trkpt lat="44.23784" lon="3.53985">
        <ele>1140.4</ele>
        <time>2015-08-22T12:35:21.854Z</time>
      </trkpt>
      <trkpt lat="44.23788" lon="3.53975">
        <ele>1140.5</ele>
        <time>2015-08-22T12:35:27.906Z</time>
      </trkpt>
      <trkpt lat="44.23789" lon="3.53973">
        <ele>1140.6</ele>
        <time>2015-08-22T12:35:28.857Z</time>
      </trkpt>
      <trkpt lat="44.23792" lon="3.53962">
        <ele>1140.7</ele>
        <time>2015-08-22T12:35:34.914Z</time>
      </trkpt>
      <trkpt lat="44.23793" lon="3.5396">
        <ele>1140.7</ele>
        <time>2015-08-22T12:35:35.854Z</time>
      </trkpt>
      <trkpt lat="44.23796" lon="3.5395">
        <ele>1140.5</ele>
        <time>2015-08-22T12:35:41.902Z</time>
      </trkpt>
      <trkpt lat="44.23797" lon="3.53948">
        <ele>1140.4</ele>
        <time>2015-08-22T12:35:42.859Z</time>
      </trkpt>
      <trkpt lat="44.23801" lon="3.53938">
        <ele>1140.2</ele>
        <time>2015-08-22T12:35:48.910Z</time>
      </trkpt>
      <trkpt lat="44.23802" lon="3.53936">
        <ele>1140.2</ele>
        <time>2015-08-22T12:35:49.863Z</time>
      </trkpt>
      <trkpt lat="44.23806" lon="3.53926">
        <ele>1139.8</ele>
        <time>2015-08-22T12:35:55.887Z</time>
      </trkpt>
      <trkpt lat="44.23807" lon="3.53925">
        <ele>1139.6</ele>
        <time>2015-08-22T12:35:56.853Z</time>
      </trkpt>
      <trkpt lat="44.23811" lon="3.53914">
        <ele>1139.1</ele>
        <time>2015-08-22T12:36:02.901Z</time>
      </trkpt>
      <trkpt lat="44.23812" lon="3.53913">
        <ele>1139</ele>
        <time>2015-08-22T12:36:03.858Z</time>
      </trkpt>
      <trkpt lat="44.23816" lon="3.53903">
        <ele>1138.5</ele>
        <time>2015-08-22T12:36:09.895Z</time>
      </trkpt>
      <trkpt lat="44.23816" lon="3.53901">
        <ele>1138.5</ele>
        <time>2015-08-22T12:36:10.858Z</time>
      </trkpt>
      <trkpt lat="44.2382" lon="3.53891">
        <ele>1138.1</ele>
        <time>2015-08-22T12:36:16.934Z</time>
      </trkpt>
      <trkpt lat="44.23821" lon="3.53889">
        <ele>1138.1</ele>
        <time>2015-08-22T12:36:17.865Z</time>
      </trkpt>
      <trkpt lat="44.23825" lon="3.5388">
        <ele>1137.5</ele>
        <time>2015-08-22T12:36:22.907Z</time>
      </trkpt>
      <trkpt lat="44.23825" lon="3.53878">
        <ele>1137.4</ele>
        <time>2015-08-22T12:36:23.853Z</time>
      </trkpt>
      <trkpt lat="44.2383" lon="3.53869">
        <ele>1137</ele>
        <time>2015-08-22T12:36:29.896Z</time>
      </trkpt>
      <trkpt lat="44.23831" lon="3.53867">
        <ele>1137</ele>
        <time>2015-08-22T12:36:30.882Z</time>
      </trkpt>
      <trkpt lat="44.23835" lon="3.53857">
        <ele>1136.6</ele>
        <time>2015-08-22T12:36:36.907Z</time>
      </trkpt>
      <trkpt lat="44.23836" lon="3.53855">
        <ele>1136.5</ele>
        <time>2015-08-22T12:36:37.864Z</time>
      </trkpt>
      <trkpt lat="44.2384" lon="3.53845">
        <ele>1135.9</ele>
        <time>2015-08-22T12:36:43.893Z</time>
      </trkpt>
      <trkpt lat="44.23841" lon="3.53843">
        <ele>1135.9</ele>
        <time>2015-08-22T12:36:44.863Z</time>
      </trkpt>
      <trkpt lat="44.23846" lon="3.53834">
        <ele>1135.7</ele>
        <time>2015-08-22T12:36:50.924Z</time>
      </trkpt>
      <trkpt lat="44.23847" lon="3.53832">
        <ele>1135.7</ele>
        <time>2015-08-22T12:36:51.948Z</time>
      </trkpt>
      <trkpt lat="44.23851" lon="3.53823">
        <ele>1136</ele>
        <time>2015-08-22T12:36:57.902Z</time>
      </trkpt>
      <trkpt lat="44.23852" lon="3.53821">
        <ele>1136</ele>
        <time>2015-08-22T12:36:59.247Z</time>
      </trkpt>
      <trkpt lat="44.23857" lon="3.53812">
        <ele>1135.8</ele>
        <time>2015-08-22T12:37:04.901Z</time>
      </trkpt>
      <trkpt lat="44.23857" lon="3.5381">
        <ele>1135.8</ele>
        <time>2015-08-22T12:37:05.854Z</time>
      </trkpt>
      <trkpt lat="44.23861" lon="3.538">
        <ele>1134.9</ele>
        <time>2015-08-22T12:37:12.186Z</time>
      </trkpt>
      <trkpt lat="44.23862" lon="3.53799">
        <ele>1134.9</ele>
        <time>2015-08-22T12:37:12.860Z</time>
      </trkpt>
      <trkpt lat="44.23867" lon="3.5379">
        <ele>1134.4</ele>
        <time>2015-08-22T12:37:17.895Z</time>
      </trkpt>
      <trkpt lat="44.23868" lon="3.53788">
        <ele>1134.3</ele>
        <time>2015-08-22T12:37:18.858Z</time>
      </trkpt>
      <trkpt lat="44.23873" lon="3.5378">
        <ele>1133.7</ele>
        <time>2015-08-22T12:37:23.894Z</time>
      </trkpt>
      <trkpt lat="44.23874" lon="3.53778">
        <ele>1133.6</ele>
        <time>2015-08-22T12:37:24.882Z</time>
      </trkpt>
      <trkpt lat="44.23879" lon="3.5377">
        <ele>1133.1</ele>
        <time>2015-08-22T12:37:29.894Z</time>
      </trkpt>
      <trkpt lat="44.2388" lon="3.53768">
        <ele>1133</ele>
        <time>2015-08-22T12:37:30.858Z</time>
      </trkpt>
      <trkpt lat="44.23886" lon="3.53761">
        <ele>1132.5</ele>
        <time>2015-08-22T12:37:35.894Z</time>
      </trkpt>
      <trkpt lat="44.23887" lon="3.5376">
        <ele>1132.5</ele>
        <time>2015-08-22T12:37:36.861Z</time>
      </trkpt>
      <trkpt lat="44.23894" lon="3.53755">
        <ele>1132.1</ele>
        <time>2015-08-22T12:37:41.890Z</time>
      </trkpt>
      <trkpt lat="44.23895" lon="3.53754">
        <ele>1132</ele>
        <time>2015-08-22T12:37:42.860Z</time>
      </trkpt>
      <trkpt lat="44.23903" lon="3.53752">
        <ele>1131.7</ele>
        <time>2015-08-22T12:37:47.893Z</time>
      </trkpt>
      <trkpt lat="44.23904" lon="3.53751">
        <ele>1131.7</ele>
        <time>2015-08-22T12:37:48.856Z</time>
      </trkpt>
      <trkpt lat="44.23912" lon="3.53747">
        <ele>1131.6</ele>
        <time>2015-08-22T12:37:54.904Z</time>
      </trkpt>
      <trkpt lat="44.23913" lon="3.53747">
        <ele>1131.6</ele>
        <time>2015-08-22T12:37:55.851Z</time>
      </trkpt>
      <trkpt lat="44.2392" lon="3.53741">
        <ele>1131.8</ele>
        <time>2015-08-22T12:38:01.919Z</time>
      </trkpt>
      <trkpt lat="44.23921" lon="3.5374">
        <ele>1131.9</ele>
        <time>2015-08-22T12:38:02.877Z</time>
      </trkpt>
      <trkpt lat="44.23928" lon="3.53732">
        <ele>1131.9</ele>
        <time>2015-08-22T12:38:08.906Z</time>
      </trkpt>
      <trkpt lat="44.23929" lon="3.53731">
        <ele>1131.9</ele>
        <time>2015-08-22T12:38:09.850Z</time>
      </trkpt>
      <trkpt lat="44.23936" lon="3.53724">
        <ele>1132</ele>
        <time>2015-08-22T12:38:15.897Z</time>
      </trkpt>
      <trkpt lat="44.23937" lon="3.53723">
        <ele>1132</ele>
        <time>2015-08-22T12:38:16.856Z</time>
      </trkpt>
      <trkpt lat="44.23944" lon="3.53716">
        <ele>1132.1</ele>
        <time>2015-08-22T12:38:23.019Z</time>
      </trkpt>
      <trkpt lat="44.23945" lon="3.53715">
        <ele>1132.1</ele>
        <time>2015-08-22T12:38:23.853Z</time>
      </trkpt>
      <trkpt lat="44.23952" lon="3.53708">
        <ele>1131.9</ele>
        <time>2015-08-22T12:38:29.903Z</time>
      </trkpt>
      <trkpt lat="44.23953" lon="3.53707">
        <ele>1131.9</ele>
        <time>2015-08-22T12:38:30.863Z</time>
      </trkpt>
      <trkpt lat="44.2396" lon="3.53701">
        <ele>1132</ele>
        <time>2015-08-22T12:38:36.997Z</time>
      </trkpt>
      <trkpt lat="44.23961" lon="3.537">
        <ele>1131.9</ele>
        <time>2015-08-22T12:38:37.851Z</time>
      </trkpt>
      <trkpt lat="44.23968" lon="3.53693">
        <ele>1132</ele>
        <time>2015-08-22T12:38:43.923Z</time>
      </trkpt>
      <trkpt lat="44.23969" lon="3.53692">
        <ele>1132</ele>
        <time>2015-08-22T12:38:44.853Z</time>
      </trkpt>
      <trkpt lat="44.23976" lon="3.53686">
        <ele>1132.3</ele>
        <time>2015-08-22T12:38:50.923Z</time>
      </trkpt>
      <trkpt lat="44.23978" lon="3.53684">
        <ele>1132.3</ele>
        <time>2015-08-22T12:38:51.982Z</time>
      </trkpt>
      <trkpt lat="44.23985" lon="3.53679">
        <ele>1132.5</ele>
        <time>2015-08-22T12:38:57.909Z</time>
      </trkpt>
      <trkpt lat="44.23986" lon="3.53678">
        <ele>1132.6</ele>
        <time>2015-08-22T12:38:58.900Z</time>
      </trkpt>
      <trkpt lat="44.23993" lon="3.53672">
        <ele>1132.8</ele>
        <time>2015-08-22T12:39:04.902Z</time>
      </trkpt>
      <trkpt lat="44.23994" lon="3.53671">
        <ele>1132.9</ele>
        <time>2015-08-22T12:39:05.853Z</time>
      </trkpt>
      <trkpt lat="44.24002" lon="3.53665">
        <ele>1133</ele>
        <time>2015-08-22T12:39:11.887Z</time>
      </trkpt>
      <trkpt lat="44.24003" lon="3.53664">
        <ele>1133.1</ele>
        <time>2015-08-22T12:39:12.853Z</time>
      </trkpt>
      <trkpt lat="44.24011" lon="3.53659">
        <ele>1133.2</ele>
        <time>2015-08-22T12:39:18.905Z</time>
      </trkpt>
      <trkpt lat="44.24012" lon="3.53659">
        <ele>1133.3</ele>
        <time>2015-08-22T12:39:19.854Z</time>
      </trkpt>
      <trkpt lat="44.2402" lon="3.53655">
        <ele>1133.5</ele>
        <time>2015-08-22T12:39:25.894Z</time>
      </trkpt>
      <trkpt lat="44.24021" lon="3.53654">
        <ele>1133.6</ele>
        <time>2015-08-22T12:39:26.852Z</time>
      </trkpt>
      <trkpt lat="44.24029" lon="3.5365">
        <ele>1133.5</ele>
        <time>2015-08-22T12:39:32.892Z</time>
      </trkpt>
      <trkpt lat="44.24031" lon="3.5365">
        <ele>1133.6</ele>
        <time>2015-08-22T12:39:33.851Z</time>
      </trkpt>
      <trkpt lat="44.24039" lon="3.53646">
        <ele>1134.1</ele>
        <time>2015-08-22T12:39:39.894Z</time>
      </trkpt>
      <trkpt lat="44.2404" lon="3.53646">
        <ele>1134.2</ele>
        <time>2015-08-22T12:39:40.853Z</time>
      </trkpt>
      <trkpt lat="44.24049" lon="3.53642">
        <ele>1134.2</ele>
        <time>2015-08-22T12:39:46.904Z</time>
      </trkpt>
      <trkpt lat="44.2405" lon="3.53641">
        <ele>1134.2</ele>
        <time>2015-08-22T12:39:47.853Z</time>
      </trkpt>
      <trkpt lat="44.24058" lon="3.53638">
        <ele>1133.9</ele>
        <time>2015-08-22T12:39:53.894Z</time>
      </trkpt>
      <trkpt lat="44.2406" lon="3.53638">
        <ele>1134</ele>
        <time>2015-08-22T12:39:54.857Z</time>
      </trkpt>
      <trkpt lat="44.24068" lon="3.53636">
        <ele>1134</ele>
        <time>2015-08-22T12:40:00.906Z</time>
      </trkpt>
      <trkpt lat="44.2407" lon="3.53636">
        <ele>1133.9</ele>
        <time>2015-08-22T12:40:01.855Z</time>
      </trkpt>
      <trkpt lat="44.24078" lon="3.53634">
        <ele>1133.6</ele>
        <time>2015-08-22T12:40:07.896Z</time>
      </trkpt>
      <trkpt lat="44.2408" lon="3.53633">
        <ele>1133.4</ele>
        <time>2015-08-22T12:40:08.859Z</time>
      </trkpt>
      <trkpt lat="44.24088" lon="3.53632">
        <ele>1132.8</ele>
        <time>2015-08-22T12:40:14.900Z</time>
      </trkpt>
      <trkpt lat="44.2409" lon="3.53632">
        <ele>1132.9</ele>
        <time>2015-08-22T12:40:15.853Z</time>
      </trkpt>
      <trkpt lat="44.24098" lon="3.53631">
        <ele>1132.3</ele>
        <time>2015-08-22T12:40:21.894Z</time>
      </trkpt>
      <trkpt lat="44.241" lon="3.53631">
        <ele>1132.3</ele>
        <time>2015-08-22T12:40:22.852Z</time>
      </trkpt>
      <trkpt lat="44.24108" lon="3.53632">
        <ele>1132.1</ele>
        <time>2015-08-22T12:40:28.906Z</time>
      </trkpt>
      <trkpt lat="44.24109" lon="3.53632">
        <ele>1131.9</ele>
        <time>2015-08-22T12:40:29.854Z</time>
      </trkpt>
      <trkpt lat="44.24117" lon="3.53634">
        <ele>1131.1</ele>
        <time>2015-08-22T12:40:34.903Z</time>
      </trkpt>
      <trkpt lat="44.24119" lon="3.53634">
        <ele>1131.1</ele>
        <time>2015-08-22T12:40:35.853Z</time>
      </trkpt>
      <trkpt lat="44.24126" lon="3.53633">
        <ele>1132.3</ele>
        <time>2015-08-22T12:40:41.895Z</time>
      </trkpt>
      <trkpt lat="44.24128" lon="3.53633">
        <ele>1132.4</ele>
        <time>2015-08-22T12:40:42.858Z</time>
      </trkpt>
      <trkpt lat="44.24136" lon="3.53633">
        <ele>1133.3</ele>
        <time>2015-08-22T12:40:48.895Z</time>
      </trkpt>
      <trkpt lat="44.24137" lon="3.53633">
        <ele>1133.3</ele>
        <time>2015-08-22T12:40:49.854Z</time>
      </trkpt>
      <trkpt lat="44.24146" lon="3.53634">
        <ele>1133.7</ele>
        <time>2015-08-22T12:40:55.904Z</time>
      </trkpt>
      <trkpt lat="44.24147" lon="3.53634">
        <ele>1133.9</ele>
        <time>2015-08-22T12:40:56.852Z</time>
      </trkpt>
      <trkpt lat="44.24155" lon="3.53633">
        <ele>1134.5</ele>
        <time>2015-08-22T12:41:02.899Z</time>
      </trkpt>
      <trkpt lat="44.24157" lon="3.53633">
        <ele>1134.6</ele>
        <time>2015-08-22T12:41:03.852Z</time>
      </trkpt>
      <trkpt lat="44.24165" lon="3.53632">
        <ele>1135.4</ele>
        <time>2015-08-22T12:41:09.914Z</time>
      </trkpt>
      <trkpt lat="44.24166" lon="3.53632">
        <ele>1135.6</ele>
        <time>2015-08-22T12:41:11.023Z</time>
      </trkpt>
      <trkpt lat="44.24175" lon="3.53629">
        <ele>1137.1</ele>
        <time>2015-08-22T12:41:17.255Z</time>
      </trkpt>
      <trkpt lat="44.24176" lon="3.53629">
        <ele>1137.4</ele>
        <time>2015-08-22T12:41:17.849Z</time>
      </trkpt>
      <trkpt lat="44.24185" lon="3.53626">
        <ele>1138.9</ele>
        <time>2015-08-22T12:41:24.921Z</time>
      </trkpt>
      <trkpt lat="44.24186" lon="3.53625">
        <ele>1139.3</ele>
        <time>2015-08-22T12:41:25.894Z</time>
      </trkpt>
      <trkpt lat="44.24195" lon="3.53623">
        <ele>1141.1</ele>
        <time>2015-08-22T12:41:32.959Z</time>
      </trkpt>
      <trkpt lat="44.24196" lon="3.53623">
        <ele>1141.2</ele>
        <time>2015-08-22T12:41:33.854Z</time>
      </trkpt>
      <trkpt lat="44.24205" lon="3.53622">
        <ele>1143.1</ele>
        <time>2015-08-22T12:41:42.958Z</time>
      </trkpt>
      <trkpt lat="44.24206" lon="3.53622">
        <ele>1143.3</ele>
        <time>2015-08-22T12:41:43.876Z</time>
      </trkpt>
      <trkpt lat="44.24214" lon="3.53621">
        <ele>1144.9</ele>
        <time>2015-08-22T12:41:49.907Z</time>
      </trkpt>
      <trkpt lat="44.24216" lon="3.53621">
        <ele>1144.8</ele>
        <time>2015-08-22T12:41:50.877Z</time>
      </trkpt>
      <trkpt lat="44.24224" lon="3.53621">
        <ele>1144.8</ele>
        <time>2015-08-22T12:41:55.887Z</time>
      </trkpt>
      <trkpt lat="44.24225" lon="3.5362">
        <ele>1144.6</ele>
        <time>2015-08-22T12:41:56.852Z</time>
      </trkpt>
      <trkpt lat="44.24233" lon="3.53619">
        <ele>1144.1</ele>
        <time>2015-08-22T12:42:01.918Z</time>
      </trkpt>
      <trkpt lat="44.24234" lon="3.53618">
        <ele>1144</ele>
        <time>2015-08-22T12:42:02.864Z</time>
      </trkpt>
      <trkpt lat="44.24242" lon="3.53616">
        <ele>1143.7</ele>
        <time>2015-08-22T12:42:07.886Z</time>
      </trkpt>
      <trkpt lat="44.24243" lon="3.53615">
        <ele>1143.7</ele>
        <time>2015-08-22T12:42:08.851Z</time>
      </trkpt>
      <trkpt lat="44.24251" lon="3.53612">
        <ele>1143.8</ele>
        <time>2015-08-22T12:42:14.910Z</time>
      </trkpt>
      <trkpt lat="44.24252" lon="3.53611">
        <ele>1143.8</ele>
        <time>2015-08-22T12:42:15.851Z</time>
      </trkpt>
      <trkpt lat="44.24261" lon="3.53609">
        <ele>1144</ele>
        <time>2015-08-22T12:42:21.892Z</time>
      </trkpt>
      <trkpt lat="44.24262" lon="3.53608">
        <ele>1144.3</ele>
        <time>2015-08-22T12:42:22.859Z</time>
      </trkpt>
      <trkpt lat="44.2427" lon="3.53607">
        <ele>1145.4</ele>
        <time>2015-08-22T12:42:28.907Z</time>
      </trkpt>
      <trkpt lat="44.24272" lon="3.53607">
        <ele>1145.4</ele>
        <time>2015-08-22T12:42:29.854Z</time>
      </trkpt>
      <trkpt lat="44.24279" lon="3.53608">
        <ele>1145.3</ele>
        <time>2015-08-22T12:42:34.963Z</time>
      </trkpt>
      <trkpt lat="44.24281" lon="3.53609">
        <ele>1145.4</ele>
        <time>2015-08-22T12:42:35.853Z</time>
      </trkpt>
      <trkpt lat="44.24289" lon="3.53614">
        <ele>1146</ele>
        <time>2015-08-22T12:42:41.920Z</time>
      </trkpt>
      <trkpt lat="44.2429" lon="3.53615">
        <ele>1146.2</ele>
        <time>2015-08-22T12:42:42.864Z</time>
      </trkpt>
      <trkpt lat="44.24297" lon="3.53621">
        <ele>1146.7</ele>
        <time>2015-08-22T12:42:48.905Z</time>
      </trkpt>
      <trkpt lat="44.24298" lon="3.53622">
        <ele>1146.8</ele>
        <time>2015-08-22T12:42:49.892Z</time>
      </trkpt>
      <trkpt lat="44.24304" lon="3.53631">
        <ele>1146.6</ele>
        <time>2015-08-22T12:42:55.895Z</time>
      </trkpt>
      <trkpt lat="44.24304" lon="3.53633">
        <ele>1146.6</ele>
        <time>2015-08-22T12:42:56.871Z</time>
      </trkpt>
      <trkpt lat="44.24305" lon="3.53645">
        <ele>1146.6</ele>
        <time>2015-08-22T12:43:02.900Z</time>
      </trkpt>
      <trkpt lat="44.24305" lon="3.53647">
        <ele>1146.7</ele>
        <time>2015-08-22T12:43:03.864Z</time>
      </trkpt>
      <trkpt lat="44.24306" lon="3.53659">
        <ele>1147.1</ele>
        <time>2015-08-22T12:43:09.887Z</time>
      </trkpt>
      <trkpt lat="44.24306" lon="3.5366">
        <ele>1147.1</ele>
        <time>2015-08-22T12:43:10.849Z</time>
      </trkpt>
      <trkpt lat="44.24311" lon="3.5367">
        <ele>1147.4</ele>
        <time>2015-08-22T12:43:16.901Z</time>
      </trkpt>
      <trkpt lat="44.24312" lon="3.53671">
        <ele>1147.5</ele>
        <time>2015-08-22T12:43:17.855Z</time>
      </trkpt>
      <trkpt lat="44.24319" lon="3.53675">
        <ele>1148</ele>
        <time>2015-08-22T12:43:23.896Z</time>
      </trkpt>
      <trkpt lat="44.2432" lon="3.53675">
        <ele>1148</ele>
        <time>2015-08-22T12:43:24.854Z</time>
      </trkpt>
      <trkpt lat="44.24328" lon="3.53678">
        <ele>1148.4</ele>
        <time>2015-08-22T12:43:30.899Z</time>
      </trkpt>
      <trkpt lat="44.24329" lon="3.53679">
        <ele>1148.6</ele>
        <time>2015-08-22T12:43:31.855Z</time>
      </trkpt>
      <trkpt lat="44.24337" lon="3.53683">
        <ele>1149</ele>
        <time>2015-08-22T12:43:37.919Z</time>
      </trkpt>
      <trkpt lat="44.24339" lon="3.53684">
        <ele>1149</ele>
        <time>2015-08-22T12:43:38.877Z</time>
      </trkpt>
      <trkpt lat="44.24347" lon="3.53688">
        <ele>1149.4</ele>
        <time>2015-08-22T12:43:44.910Z</time>
      </trkpt>
      <trkpt lat="44.24348" lon="3.53689">
        <ele>1149.4</ele>
        <time>2015-08-22T12:43:45.851Z</time>
      </trkpt>
      <trkpt lat="44.24357" lon="3.53693">
        <ele>1149.4</ele>
        <time>2015-08-22T12:43:51.894Z</time>
      </trkpt>
      <trkpt lat="44.24358" lon="3.53694">
        <ele>1149.4</ele>
        <time>2015-08-22T12:43:52.852Z</time>
      </trkpt>
      <trkpt lat="44.24366" lon="3.53698">
        <ele>1149.3</ele>
        <time>2015-08-22T12:43:58.903Z</time>
      </trkpt>
      <trkpt lat="44.24367" lon="3.53699">
        <ele>1149.4</ele>
        <time>2015-08-22T12:43:59.853Z</time>
      </trkpt>
      <trkpt lat="44.24375" lon="3.53704">
        <ele>1149.7</ele>
        <time>2015-08-22T12:44:05.893Z</time>
      </trkpt>
      <trkpt lat="44.24377" lon="3.53705">
        <ele>1149.8</ele>
        <time>2015-08-22T12:44:06.861Z</time>
      </trkpt>
      <trkpt lat="44.24384" lon="3.5371">
        <ele>1149.8</ele>
        <time>2015-08-22T12:44:12.923Z</time>
      </trkpt>
      <trkpt lat="44.24386" lon="3.53711">
        <ele>1149.9</ele>
        <time>2015-08-22T12:44:13.893Z</time>
      </trkpt>
      <trkpt lat="44.24394" lon="3.53717">
        <ele>1150.3</ele>
        <time>2015-08-22T12:44:19.895Z</time>
      </trkpt>
      <trkpt lat="44.24395" lon="3.53718">
        <ele>1150.4</ele>
        <time>2015-08-22T12:44:20.883Z</time>
      </trkpt>
      <trkpt lat="44.24403" lon="3.53723">
        <ele>1150.7</ele>
        <time>2015-08-22T12:44:26.898Z</time>
      </trkpt>
      <trkpt lat="44.24404" lon="3.53724">
        <ele>1150.7</ele>
        <time>2015-08-22T12:44:27.864Z</time>
      </trkpt>
      <trkpt lat="44.24411" lon="3.53729">
        <ele>1150.9</ele>
        <time>2015-08-22T12:44:33.896Z</time>
      </trkpt>
      <trkpt lat="44.24413" lon="3.5373">
        <ele>1151</ele>
        <time>2015-08-22T12:44:35.226Z</time>
      </trkpt>
      <trkpt lat="44.2442" lon="3.53736">
        <ele>1151.1</ele>
        <time>2015-08-22T12:44:40.905Z</time>
      </trkpt>
      <trkpt lat="44.24422" lon="3.53737">
        <ele>1151.2</ele>
        <time>2015-08-22T12:44:42.061Z</time>
      </trkpt>
      <trkpt lat="44.2443" lon="3.53742">
        <ele>1151.3</ele>
        <time>2015-08-22T12:44:47.894Z</time>
      </trkpt>
      <trkpt lat="44.24431" lon="3.53743">
        <ele>1151.3</ele>
        <time>2015-08-22T12:44:48.866Z</time>
      </trkpt>
      <trkpt lat="44.24438" lon="3.53747">
        <ele>1151.3</ele>
        <time>2015-08-22T12:44:53.888Z</time>
      </trkpt>
      <trkpt lat="44.24439" lon="3.53748">
        <ele>1151.4</ele>
        <time>2015-08-22T12:44:54.855Z</time>
      </trkpt>
      <trkpt lat="44.24447" lon="3.53753">
        <ele>1151.5</ele>
        <time>2015-08-22T12:45:00.903Z</time>
      </trkpt>
      <trkpt lat="44.24449" lon="3.53754">
        <ele>1151.5</ele>
        <time>2015-08-22T12:45:01.868Z</time>
      </trkpt>
      <trkpt lat="44.24456" lon="3.53759">
        <ele>1151.2</ele>
        <time>2015-08-22T12:45:07.892Z</time>
      </trkpt>
      <trkpt lat="44.24457" lon="3.5376">
        <ele>1151.1</ele>
        <time>2015-08-22T12:45:08.856Z</time>
      </trkpt>
      <trkpt lat="44.24465" lon="3.53766">
        <ele>1151.3</ele>
        <time>2015-08-22T12:45:14.954Z</time>
      </trkpt>
      <trkpt lat="44.24467" lon="3.53767">
        <ele>1151.2</ele>
        <time>2015-08-22T12:45:15.855Z</time>
      </trkpt>
      <trkpt lat="44.24473" lon="3.53771">
        <ele>1151.2</ele>
        <time>2015-08-22T12:45:20.905Z</time>
      </trkpt>
      <trkpt lat="44.24475" lon="3.53772">
        <ele>1151.1</ele>
        <time>2015-08-22T12:45:21.854Z</time>
      </trkpt>
      <trkpt lat="44.24481" lon="3.53777">
        <ele>1150.9</ele>
        <time>2015-08-22T12:45:26.898Z</time>
      </trkpt>
      <trkpt lat="44.24483" lon="3.53779">
        <ele>1150.8</ele>
        <time>2015-08-22T12:45:27.853Z</time>
      </trkpt>
      <trkpt lat="44.24489" lon="3.53784">
        <ele>1150.4</ele>
        <time>2015-08-22T12:45:32.891Z</time>
      </trkpt>
      <trkpt lat="44.2449" lon="3.53785">
        <ele>1150.2</ele>
        <time>2015-08-22T12:45:33.852Z</time>
      </trkpt>
      <trkpt lat="44.24497" lon="3.53791">
        <ele>1149.7</ele>
        <time>2015-08-22T12:45:38.895Z</time>
      </trkpt>
      <trkpt lat="44.24498" lon="3.53792">
        <ele>1149.6</ele>
        <time>2015-08-22T12:45:39.860Z</time>
      </trkpt>
      <trkpt lat="44.24506" lon="3.53797">
        <ele>1148.6</ele>
        <time>2015-08-22T12:45:45.923Z</time>
      </trkpt>
      <trkpt lat="44.24508" lon="3.53798">
        <ele>1148.5</ele>
        <time>2015-08-22T12:45:46.907Z</time>
      </trkpt>
      <trkpt lat="44.24516" lon="3.53801">
        <ele>1147.4</ele>
        <time>2015-08-22T12:45:51.887Z</time>
      </trkpt>
      <trkpt lat="44.24517" lon="3.53801">
        <ele>1147.3</ele>
        <time>2015-08-22T12:45:52.852Z</time>
      </trkpt>
      <trkpt lat="44.24524" lon="3.53806">
        <ele>1146.4</ele>
        <time>2015-08-22T12:45:57.894Z</time>
      </trkpt>
      <trkpt lat="44.24526" lon="3.53807">
        <ele>1146.4</ele>
        <time>2015-08-22T12:45:58.854Z</time>
      </trkpt>
      <trkpt lat="44.24533" lon="3.53813">
        <ele>1145.6</ele>
        <time>2015-08-22T12:46:04.905Z</time>
      </trkpt>
      <trkpt lat="44.24535" lon="3.53814">
        <ele>1145.6</ele>
        <time>2015-08-22T12:46:05.853Z</time>
      </trkpt>
      <trkpt lat="44.24542" lon="3.53818">
        <ele>1144.8</ele>
        <time>2015-08-22T12:46:10.896Z</time>
      </trkpt>
      <trkpt lat="44.24543" lon="3.53819">
        <ele>1144.5</ele>
        <time>2015-08-22T12:46:11.852Z</time>
      </trkpt>
      <trkpt lat="44.24551" lon="3.53824">
        <ele>1144</ele>
        <time>2015-08-22T12:46:17.894Z</time>
      </trkpt>
      <trkpt lat="44.24552" lon="3.53824">
        <ele>1143.8</ele>
        <time>2015-08-22T12:46:18.868Z</time>
      </trkpt>
      <trkpt lat="44.2456" lon="3.53827">
        <ele>1143.1</ele>
        <time>2015-08-22T12:46:24.177Z</time>
      </trkpt>
      <trkpt lat="44.24561" lon="3.53828">
        <ele>1143.1</ele>
        <time>2015-08-22T12:46:24.861Z</time>
      </trkpt>
      <trkpt lat="44.2457" lon="3.5383">
        <ele>1143.3</ele>
        <time>2015-08-22T12:46:30.923Z</time>
      </trkpt>
      <trkpt lat="44.24571" lon="3.5383">
        <ele>1143.2</ele>
        <time>2015-08-22T12:46:31.857Z</time>
      </trkpt>
      <trkpt lat="44.2458" lon="3.53833">
        <ele>1143.7</ele>
        <time>2015-08-22T12:46:37.901Z</time>
      </trkpt>
      <trkpt lat="44.24581" lon="3.53834">
        <ele>1143.8</ele>
        <time>2015-08-22T12:46:38.859Z</time>
      </trkpt>
      <trkpt lat="44.2459" lon="3.53837">
        <ele>1144.2</ele>
        <time>2015-08-22T12:46:44.910Z</time>
      </trkpt>
      <trkpt lat="44.24591" lon="3.53837">
        <ele>1144.4</ele>
        <time>2015-08-22T12:46:45.857Z</time>
      </trkpt>
      <trkpt lat="44.24599" lon="3.5384">
        <ele>1144.9</ele>
        <time>2015-08-22T12:46:51.901Z</time>
      </trkpt>
      <trkpt lat="44.24601" lon="3.5384">
        <ele>1145</ele>
        <time>2015-08-22T12:46:52.854Z</time>
      </trkpt>
      <trkpt lat="44.24609" lon="3.53843">
        <ele>1146</ele>
        <time>2015-08-22T12:46:58.907Z</time>
      </trkpt>
      <trkpt lat="44.2461" lon="3.53844">
        <ele>1146.3</ele>
        <time>2015-08-22T12:46:59.854Z</time>
      </trkpt>
      <trkpt lat="44.24618" lon="3.53849">
        <ele>1147.5</ele>
        <time>2015-08-22T12:47:05.891Z</time>
      </trkpt>
      <trkpt lat="44.2462" lon="3.53849">
        <ele>1147.6</ele>
        <time>2015-08-22T12:47:06.862Z</time>
      </trkpt>
      <trkpt lat="44.24628" lon="3.53854">
        <ele>1148.4</ele>
        <time>2015-08-22T12:47:16.902Z</time>
      </trkpt>
      <trkpt lat="44.24629" lon="3.53855">
        <ele>1148.5</ele>
        <time>2015-08-22T12:47:17.855Z</time>
      </trkpt>
      <trkpt lat="44.24637" lon="3.53859">
        <ele>1149.1</ele>
        <time>2015-08-22T12:47:23.919Z</time>
      </trkpt>
      <trkpt lat="44.24639" lon="3.5386">
        <ele>1149</ele>
        <time>2015-08-22T12:47:24.869Z</time>
      </trkpt>
      <trkpt lat="44.24646" lon="3.53863">
        <ele>1149.2</ele>
        <time>2015-08-22T12:47:29.895Z</time>
      </trkpt>
      <trkpt lat="44.24648" lon="3.53863">
        <ele>1149.3</ele>
        <time>2015-08-22T12:47:30.923Z</time>
      </trkpt>
      <trkpt lat="44.24655" lon="3.53865">
        <ele>1149.2</ele>
        <time>2015-08-22T12:47:35.894Z</time>
      </trkpt>
      <trkpt lat="44.24657" lon="3.53866">
        <ele>1149.3</ele>
        <time>2015-08-22T12:47:36.859Z</time>
      </trkpt>
      <trkpt lat="44.24664" lon="3.53867">
        <ele>1149.3</ele>
        <time>2015-08-22T12:47:41.947Z</time>
      </trkpt>
      <trkpt lat="44.24666" lon="3.53867">
        <ele>1149.4</ele>
        <time>2015-08-22T12:47:42.861Z</time>
      </trkpt>
      <trkpt lat="44.24673" lon="3.53867">
        <ele>1149.7</ele>
        <time>2015-08-22T12:47:47.896Z</time>
      </trkpt>
      <trkpt lat="44.24675" lon="3.53867">
        <ele>1149.7</ele>
        <time>2015-08-22T12:47:48.858Z</time>
      </trkpt>
      <trkpt lat="44.24683" lon="3.53867">
        <ele>1150</ele>
        <time>2015-08-22T12:47:55.272Z</time>
      </trkpt>
      <trkpt lat="44.24685" lon="3.53867">
        <ele>1149.9</ele>
        <time>2015-08-22T12:47:55.856Z</time>
      </trkpt>
      <trkpt lat="44.24694" lon="3.53867">
        <ele>1149.8</ele>
        <time>2015-08-22T12:48:01.893Z</time>
      </trkpt>
      <trkpt lat="44.24695" lon="3.53867">
        <ele>1149.9</ele>
        <time>2015-08-22T12:48:02.859Z</time>
      </trkpt>
      <trkpt lat="44.24704" lon="3.53867">
        <ele>1150.6</ele>
        <time>2015-08-22T12:48:08.893Z</time>
      </trkpt>
      <trkpt lat="44.24705" lon="3.53868">
        <ele>1150.5</ele>
        <time>2015-08-22T12:48:09.853Z</time>
      </trkpt>
      <trkpt lat="44.24714" lon="3.53869">
        <ele>1151.2</ele>
        <time>2015-08-22T12:48:15.898Z</time>
      </trkpt>
      <trkpt lat="44.24715" lon="3.53869">
        <ele>1151.3</ele>
        <time>2015-08-22T12:48:16.858Z</time>
      </trkpt>
      <trkpt lat="44.24724" lon="3.53873">
        <ele>1151.6</ele>
        <time>2015-08-22T12:48:22.906Z</time>
      </trkpt>
      <trkpt lat="44.24725" lon="3.53873">
        <ele>1151.6</ele>
        <time>2015-08-22T12:48:23.853Z</time>
      </trkpt>
      <trkpt lat="44.24733" lon="3.53878">
        <ele>1151.7</ele>
        <time>2015-08-22T12:48:29.913Z</time>
      </trkpt>
      <trkpt lat="44.24734" lon="3.5388">
        <ele>1151.7</ele>
        <time>2015-08-22T12:48:30.855Z</time>
      </trkpt>
      <trkpt lat="44.2474" lon="3.53886">
        <ele>1151.6</ele>
        <time>2015-08-22T12:48:36.201Z</time>
      </trkpt>
      <trkpt lat="44.24742" lon="3.53887">
        <ele>1151.6</ele>
        <time>2015-08-22T12:48:36.861Z</time>
      </trkpt>
      <trkpt lat="44.24748" lon="3.53894">
        <ele>1151</ele>
        <time>2015-08-22T12:48:41.897Z</time>
      </trkpt>
      <trkpt lat="44.24749" lon="3.53895">
        <ele>1150.9</ele>
        <time>2015-08-22T12:48:42.880Z</time>
      </trkpt>
      <trkpt lat="44.24755" lon="3.53903">
        <ele>1150.5</ele>
        <time>2015-08-22T12:48:48.896Z</time>
      </trkpt>
      <trkpt lat="44.24757" lon="3.53904">
        <ele>1150.4</ele>
        <time>2015-08-22T12:48:49.853Z</time>
      </trkpt>
      <trkpt lat="44.24762" lon="3.53911">
        <ele>1150.2</ele>
        <time>2015-08-22T12:48:54.907Z</time>
      </trkpt>
      <trkpt lat="44.24763" lon="3.53912">
        <ele>1150.1</ele>
        <time>2015-08-22T12:48:55.853Z</time>
      </trkpt>
      <trkpt lat="44.2477" lon="3.5392">
        <ele>1150</ele>
        <time>2015-08-22T12:49:01.904Z</time>
      </trkpt>
      <trkpt lat="44.24772" lon="3.53921">
        <ele>1150</ele>
        <time>2015-08-22T12:49:02.858Z</time>
      </trkpt>
      <trkpt lat="44.24778" lon="3.53927">
        <ele>1150</ele>
        <time>2015-08-22T12:49:08.275Z</time>
      </trkpt>
      <trkpt lat="44.24779" lon="3.53929">
        <ele>1149.9</ele>
        <time>2015-08-22T12:49:08.859Z</time>
      </trkpt>
      <trkpt lat="44.24785" lon="3.53934">
        <ele>1149.8</ele>
        <time>2015-08-22T12:49:14.319Z</time>
      </trkpt>
      <trkpt lat="44.24787" lon="3.53935">
        <ele>1149.7</ele>
        <time>2015-08-22T12:49:14.857Z</time>
      </trkpt>
      <trkpt lat="44.24794" lon="3.53942">
        <ele>1149.4</ele>
        <time>2015-08-22T12:49:20.906Z</time>
      </trkpt>
      <trkpt lat="44.24796" lon="3.53943">
        <ele>1149.3</ele>
        <time>2015-08-22T12:49:21.865Z</time>
      </trkpt>
      <trkpt lat="44.24803" lon="3.53949">
        <ele>1149.9</ele>
        <time>2015-08-22T12:49:27.895Z</time>
      </trkpt>
      <trkpt lat="44.24804" lon="3.5395">
        <ele>1150.1</ele>
        <time>2015-08-22T12:49:28.853Z</time>
      </trkpt>
      <trkpt lat="44.24812" lon="3.53956">
        <ele>1150.9</ele>
        <time>2015-08-22T12:49:34.886Z</time>
      </trkpt>
      <trkpt lat="44.24813" lon="3.53958">
        <ele>1150.9</ele>
        <time>2015-08-22T12:49:35.852Z</time>
      </trkpt>
      <trkpt lat="44.24821" lon="3.53963">
        <ele>1151.3</ele>
        <time>2015-08-22T12:49:41.895Z</time>
      </trkpt>
      <trkpt lat="44.24822" lon="3.53964">
        <ele>1151.3</ele>
        <time>2015-08-22T12:49:42.860Z</time>
      </trkpt>
      <trkpt lat="44.24829" lon="3.53971">
        <ele>1151.4</ele>
        <time>2015-08-22T12:49:48.908Z</time>
      </trkpt>
      <trkpt lat="44.2483" lon="3.53972">
        <ele>1151.3</ele>
        <time>2015-08-22T12:49:49.854Z</time>
      </trkpt>
      <trkpt lat="44.24837" lon="3.5398">
        <ele>1151.6</ele>
        <time>2015-08-22T12:49:55.907Z</time>
      </trkpt>
      <trkpt lat="44.24838" lon="3.53981">
        <ele>1151.6</ele>
        <time>2015-08-22T12:49:56.858Z</time>
      </trkpt>
      <trkpt lat="44.24844" lon="3.5399">
        <ele>1151.7</ele>
        <time>2015-08-22T12:50:02.901Z</time>
      </trkpt>
      <trkpt lat="44.24845" lon="3.53991">
        <ele>1151.6</ele>
        <time>2015-08-22T12:50:03.853Z</time>
      </trkpt>
      <trkpt lat="44.24851" lon="3.53998">
        <ele>1151.9</ele>
        <time>2015-08-22T12:50:08.890Z</time>
      </trkpt>
      <trkpt lat="44.24852" lon="3.54">
        <ele>1151.8</ele>
        <time>2015-08-22T12:50:09.849Z</time>
      </trkpt>
      <trkpt lat="44.24858" lon="3.54008">
        <ele>1151.7</ele>
        <time>2015-08-22T12:50:15.896Z</time>
      </trkpt>
      <trkpt lat="44.24859" lon="3.54009">
        <ele>1151.6</ele>
        <time>2015-08-22T12:50:16.859Z</time>
      </trkpt>
      <trkpt lat="44.24866" lon="3.54015">
        <ele>1151.8</ele>
        <time>2015-08-22T12:50:22.943Z</time>
      </trkpt>
      <trkpt lat="44.24867" lon="3.54016">
        <ele>1151.8</ele>
        <time>2015-08-22T12:50:23.854Z</time>
      </trkpt>
      <trkpt lat="44.24875" lon="3.54022">
        <ele>1151.7</ele>
        <time>2015-08-22T12:50:29.898Z</time>
      </trkpt>
      <trkpt lat="44.24876" lon="3.54023">
        <ele>1151.7</ele>
        <time>2015-08-22T12:50:30.865Z</time>
      </trkpt>
      <trkpt lat="44.24883" lon="3.54027">
        <ele>1151.6</ele>
        <time>2015-08-22T12:50:36.941Z</time>
      </trkpt>
      <trkpt lat="44.24885" lon="3.54027">
        <ele>1151.5</ele>
        <time>2015-08-22T12:50:37.850Z</time>
      </trkpt>
      <trkpt lat="44.24892" lon="3.54032">
        <ele>1151.1</ele>
        <time>2015-08-22T12:50:42.907Z</time>
      </trkpt>
      <trkpt lat="44.24893" lon="3.54032">
        <ele>1151.1</ele>
        <time>2015-08-22T12:50:43.853Z</time>
      </trkpt>
      <trkpt lat="44.249" lon="3.54038">
        <ele>1150.7</ele>
        <time>2015-08-22T12:50:48.938Z</time>
      </trkpt>
      <trkpt lat="44.24901" lon="3.5404">
        <ele>1150.7</ele>
        <time>2015-08-22T12:50:49.865Z</time>
      </trkpt>
      <trkpt lat="44.24907" lon="3.54046">
        <ele>1150.1</ele>
        <time>2015-08-22T12:50:54.922Z</time>
      </trkpt>
      <trkpt lat="44.24908" lon="3.54047">
        <ele>1150</ele>
        <time>2015-08-22T12:50:55.855Z</time>
      </trkpt>
      <trkpt lat="44.24914" lon="3.54054">
        <ele>1149.7</ele>
        <time>2015-08-22T12:51:00.908Z</time>
      </trkpt>
      <trkpt lat="44.24916" lon="3.54056">
        <ele>1149.6</ele>
        <time>2015-08-22T12:51:01.875Z</time>
      </trkpt>
      <trkpt lat="44.24921" lon="3.54063">
        <ele>1149</ele>
        <time>2015-08-22T12:51:06.924Z</time>
      </trkpt>
      <trkpt lat="44.24922" lon="3.54064">
        <ele>1149</ele>
        <time>2015-08-22T12:51:07.853Z</time>
      </trkpt>
      <trkpt lat="44.24929" lon="3.54072">
        <ele>1148.5</ele>
        <time>2015-08-22T12:51:13.938Z</time>
      </trkpt>
      <trkpt lat="44.2493" lon="3.54073">
        <ele>1148.3</ele>
        <time>2015-08-22T12:51:14.877Z</time>
      </trkpt>
      <trkpt lat="44.24937" lon="3.5408">
        <ele>1147.7</ele>
        <time>2015-08-22T12:51:20.915Z</time>
      </trkpt>
      <trkpt lat="44.24938" lon="3.54081">
        <ele>1147.7</ele>
        <time>2015-08-22T12:51:21.855Z</time>
      </trkpt>
      <trkpt lat="44.24947" lon="3.54085">
        <ele>1147.7</ele>
        <time>2015-08-22T12:51:28.901Z</time>
      </trkpt>
      <trkpt lat="44.24947" lon="3.54086">
        <ele>1147.6</ele>
        <time>2015-08-22T12:51:29.853Z</time>
      </trkpt>
      <trkpt lat="44.24955" lon="3.54089">
        <ele>1147.1</ele>
        <time>2015-08-22T12:51:37.903Z</time>
      </trkpt>
      <trkpt lat="44.24956" lon="3.54091">
        <ele>1147.2</ele>
        <time>2015-08-22T12:51:38.854Z</time>
      </trkpt>
      <trkpt lat="44.24959" lon="3.54101">
        <ele>1146.5</ele>
        <time>2015-08-22T12:51:44.922Z</time>
      </trkpt>
      <trkpt lat="44.2496" lon="3.54103">
        <ele>1146.1</ele>
        <time>2015-08-22T12:51:45.853Z</time>
      </trkpt>
      <trkpt lat="44.24961" lon="3.54115">
        <ele>1144.4</ele>
        <time>2015-08-22T12:51:51.939Z</time>
      </trkpt>
      <trkpt lat="44.24961" lon="3.54117">
        <ele>1144.1</ele>
        <time>2015-08-22T12:51:52.855Z</time>
      </trkpt>
      <trkpt lat="44.24969" lon="3.54119">
        <ele>1143</ele>
        <time>2015-08-22T12:52:03.904Z</time>
      </trkpt>
      <trkpt lat="44.2497" lon="3.5412">
        <ele>1142.8</ele>
        <time>2015-08-22T12:52:04.853Z</time>
      </trkpt>
      <trkpt lat="44.24978" lon="3.54125">
        <ele>1142.4</ele>
        <time>2015-08-22T12:52:11.892Z</time>
      </trkpt>
      <trkpt lat="44.24979" lon="3.54126">
        <ele>1142.2</ele>
        <time>2015-08-22T12:52:12.857Z</time>
      </trkpt>
      <trkpt lat="44.24987" lon="3.54132">
        <ele>1140.9</ele>
        <time>2015-08-22T12:52:19.902Z</time>
      </trkpt>
      <trkpt lat="44.24988" lon="3.54133">
        <ele>1140.8</ele>
        <time>2015-08-22T12:52:20.904Z</time>
      </trkpt>
      <trkpt lat="44.24996" lon="3.54138">
        <ele>1140.5</ele>
        <time>2015-08-22T12:52:37.902Z</time>
      </trkpt>
      <trkpt lat="44.24996" lon="3.54139">
        <ele>1140.3</ele>
        <time>2015-08-22T12:52:38.852Z</time>
      </trkpt>
      <trkpt lat="44.25002" lon="3.54148">
        <ele>1139.1</ele>
        <time>2015-08-22T12:52:43.934Z</time>
      </trkpt>
      <trkpt lat="44.25003" lon="3.5415">
        <ele>1139</ele>
        <time>2015-08-22T12:52:44.852Z</time>
      </trkpt>
      <trkpt lat="44.2501" lon="3.54157">
        <ele>1138.3</ele>
        <time>2015-08-22T12:52:49.899Z</time>
      </trkpt>
      <trkpt lat="44.25012" lon="3.54158">
        <ele>1138.2</ele>
        <time>2015-08-22T12:52:50.849Z</time>
      </trkpt>
      <trkpt lat="44.25018" lon="3.54164">
        <ele>1137.5</ele>
        <time>2015-08-22T12:52:55.909Z</time>
      </trkpt>
      <trkpt lat="44.2502" lon="3.54165">
        <ele>1137.4</ele>
        <time>2015-08-22T12:52:56.853Z</time>
      </trkpt>
      <trkpt lat="44.25026" lon="3.54171">
        <ele>1137</ele>
        <time>2015-08-22T12:53:01.933Z</time>
      </trkpt>
      <trkpt lat="44.25027" lon="3.54172">
        <ele>1137</ele>
        <time>2015-08-22T12:53:02.864Z</time>
      </trkpt>
      <trkpt lat="44.25035" lon="3.54179">
        <ele>1136.3</ele>
        <time>2015-08-22T12:53:08.892Z</time>
      </trkpt>
      <trkpt lat="44.25036" lon="3.5418">
        <ele>1136.1</ele>
        <time>2015-08-22T12:53:09.853Z</time>
      </trkpt>
      <trkpt lat="44.25042" lon="3.54186">
        <ele>1135.6</ele>
        <time>2015-08-22T12:53:14.936Z</time>
      </trkpt>
      <trkpt lat="44.25044" lon="3.54187">
        <ele>1135.4</ele>
        <time>2015-08-22T12:53:15.878Z</time>
      </trkpt>
      <trkpt lat="44.25051" lon="3.54194">
        <ele>1134.5</ele>
        <time>2015-08-22T12:53:21.908Z</time>
      </trkpt>
      <trkpt lat="44.25051" lon="3.54195">
        <ele>1134.5</ele>
        <time>2015-08-22T12:53:22.864Z</time>
      </trkpt>
      <trkpt lat="44.25058" lon="3.54204">
        <ele>1133.9</ele>
        <time>2015-08-22T12:53:28.901Z</time>
      </trkpt>
      <trkpt lat="44.25059" lon="3.54205">
        <ele>1133.8</ele>
        <time>2015-08-22T12:53:29.878Z</time>
      </trkpt>
      <trkpt lat="44.25063" lon="3.54214">
        <ele>1133.5</ele>
        <time>2015-08-22T12:53:34.901Z</time>
      </trkpt>
      <trkpt lat="44.25064" lon="3.54215">
        <ele>1133.5</ele>
        <time>2015-08-22T12:53:35.854Z</time>
      </trkpt>
      <trkpt lat="44.25071" lon="3.54223">
        <ele>1133.2</ele>
        <time>2015-08-22T12:53:41.900Z</time>
      </trkpt>
      <trkpt lat="44.25072" lon="3.54224">
        <ele>1133.1</ele>
        <time>2015-08-22T12:53:42.854Z</time>
      </trkpt>
      <trkpt lat="44.25079" lon="3.54229">
        <ele>1133</ele>
        <time>2015-08-22T12:53:48.905Z</time>
      </trkpt>
      <trkpt lat="44.25081" lon="3.54229">
        <ele>1133.1</ele>
        <time>2015-08-22T12:53:49.860Z</time>
      </trkpt>
      <trkpt lat="44.25088" lon="3.54235">
        <ele>1132.7</ele>
        <time>2015-08-22T12:53:55.907Z</time>
      </trkpt>
      <trkpt lat="44.2509" lon="3.54236">
        <ele>1132.8</ele>
        <time>2015-08-22T12:53:56.853Z</time>
      </trkpt>
      <trkpt lat="44.25096" lon="3.54241">
        <ele>1132.9</ele>
        <time>2015-08-22T12:54:01.912Z</time>
      </trkpt>
      <trkpt lat="44.25098" lon="3.54242">
        <ele>1132.8</ele>
        <time>2015-08-22T12:54:02.857Z</time>
      </trkpt>
      <trkpt lat="44.25105" lon="3.54248">
        <ele>1132.9</ele>
        <time>2015-08-22T12:54:08.893Z</time>
      </trkpt>
      <trkpt lat="44.25106" lon="3.54249">
        <ele>1132.8</ele>
        <time>2015-08-22T12:54:09.849Z</time>
      </trkpt>
      <trkpt lat="44.25114" lon="3.54256">
        <ele>1132.9</ele>
        <time>2015-08-22T12:54:15.933Z</time>
      </trkpt>
      <trkpt lat="44.25115" lon="3.54257">
        <ele>1132.9</ele>
        <time>2015-08-22T12:54:16.864Z</time>
      </trkpt>
      <trkpt lat="44.25122" lon="3.54265">
        <ele>1133</ele>
        <time>2015-08-22T12:54:22.903Z</time>
      </trkpt>
      <trkpt lat="44.25123" lon="3.54266">
        <ele>1133</ele>
        <time>2015-08-22T12:54:23.859Z</time>
      </trkpt>
      <trkpt lat="44.2513" lon="3.54273">
        <ele>1133.1</ele>
        <time>2015-08-22T12:54:29.903Z</time>
      </trkpt>
      <trkpt lat="44.25131" lon="3.54275">
        <ele>1133</ele>
        <time>2015-08-22T12:54:30.855Z</time>
      </trkpt>
      <trkpt lat="44.25138" lon="3.54281">
        <ele>1132.6</ele>
        <time>2015-08-22T12:54:36.906Z</time>
      </trkpt>
      <trkpt lat="44.2514" lon="3.54282">
        <ele>1132.6</ele>
        <time>2015-08-22T12:54:37.864Z</time>
      </trkpt>
      <trkpt lat="44.25147" lon="3.54289">
        <ele>1132.4</ele>
        <time>2015-08-22T12:54:43.909Z</time>
      </trkpt>
      <trkpt lat="44.25148" lon="3.5429">
        <ele>1132.3</ele>
        <time>2015-08-22T12:54:44.864Z</time>
      </trkpt>
      <trkpt lat="44.25156" lon="3.54295">
        <ele>1132</ele>
        <time>2015-08-22T12:54:51.248Z</time>
      </trkpt>
      <trkpt lat="44.25157" lon="3.54296">
        <ele>1131.9</ele>
        <time>2015-08-22T12:54:51.853Z</time>
      </trkpt>
      <trkpt lat="44.25164" lon="3.54301">
        <ele>1131.8</ele>
        <time>2015-08-22T12:54:57.911Z</time>
      </trkpt>
      <trkpt lat="44.25166" lon="3.54302">
        <ele>1131.7</ele>
        <time>2015-08-22T12:54:58.853Z</time>
      </trkpt>
      <trkpt lat="44.25173" lon="3.54308">
        <ele>1130.9</ele>
        <time>2015-08-22T12:55:08.898Z</time>
      </trkpt>
      <trkpt lat="44.25174" lon="3.54309">
        <ele>1130.6</ele>
        <time>2015-08-22T12:55:09.852Z</time>
      </trkpt>
      <trkpt lat="44.25181" lon="3.54315">
        <ele>1129.9</ele>
        <time>2015-08-22T12:55:15.992Z</time>
      </trkpt>
      <trkpt lat="44.25182" lon="3.54316">
        <ele>1129.8</ele>
        <time>2015-08-22T12:55:16.853Z</time>
      </trkpt>
      <trkpt lat="44.2519" lon="3.54322">
        <ele>1129.7</ele>
        <time>2015-08-22T12:55:22.945Z</time>
      </trkpt>
      <trkpt lat="44.25191" lon="3.54323">
        <ele>1129.6</ele>
        <time>2015-08-22T12:55:23.857Z</time>
      </trkpt>
      <trkpt lat="44.25199" lon="3.54328">
        <ele>1129.6</ele>
        <time>2015-08-22T12:55:29.937Z</time>
      </trkpt>
      <trkpt lat="44.252" lon="3.54329">
        <ele>1129.7</ele>
        <time>2015-08-22T12:55:30.866Z</time>
      </trkpt>
      <trkpt lat="44.25208" lon="3.54334">
        <ele>1129.5</ele>
        <time>2015-08-22T12:55:36.902Z</time>
      </trkpt>
      <trkpt lat="44.25209" lon="3.54335">
        <ele>1129.6</ele>
        <time>2015-08-22T12:55:37.878Z</time>
      </trkpt>
      <trkpt lat="44.25217" lon="3.54341">
        <ele>1129.7</ele>
        <time>2015-08-22T12:55:43.911Z</time>
      </trkpt>
      <trkpt lat="44.25218" lon="3.54342">
        <ele>1129.7</ele>
        <time>2015-08-22T12:55:44.858Z</time>
      </trkpt>
      <trkpt lat="44.25225" lon="3.54347">
        <ele>1129.7</ele>
        <time>2015-08-22T12:55:49.898Z</time>
      </trkpt>
      <trkpt lat="44.25226" lon="3.54348">
        <ele>1129.7</ele>
        <time>2015-08-22T12:55:50.852Z</time>
      </trkpt>
      <trkpt lat="44.25233" lon="3.54353">
        <ele>1129.6</ele>
        <time>2015-08-22T12:55:55.920Z</time>
      </trkpt>
      <trkpt lat="44.25234" lon="3.54354">
        <ele>1129.6</ele>
        <time>2015-08-22T12:55:56.855Z</time>
      </trkpt>
      <trkpt lat="44.25241" lon="3.54358">
        <ele>1129.6</ele>
        <time>2015-08-22T12:56:01.937Z</time>
      </trkpt>
      <trkpt lat="44.25242" lon="3.54359">
        <ele>1129.5</ele>
        <time>2015-08-22T12:56:02.853Z</time>
      </trkpt>
      <trkpt lat="44.25249" lon="3.54364">
        <ele>1129.5</ele>
        <time>2015-08-22T12:56:07.963Z</time>
      </trkpt>
      <trkpt lat="44.25251" lon="3.54365">
        <ele>1129.5</ele>
        <time>2015-08-22T12:56:08.852Z</time>
      </trkpt>
      <trkpt lat="44.25257" lon="3.5437">
        <ele>1129.4</ele>
        <time>2015-08-22T12:56:13.898Z</time>
      </trkpt>
      <trkpt lat="44.25259" lon="3.54371">
        <ele>1129.3</ele>
        <time>2015-08-22T12:56:14.864Z</time>
      </trkpt>
      <trkpt lat="44.25266" lon="3.54375">
        <ele>1129.1</ele>
        <time>2015-08-22T12:56:19.909Z</time>
      </trkpt>
      <trkpt lat="44.25267" lon="3.54376">
        <ele>1129.1</ele>
        <time>2015-08-22T12:56:20.864Z</time>
      </trkpt>
      <trkpt lat="44.25275" lon="3.54382">
        <ele>1128.8</ele>
        <time>2015-08-22T12:56:26.914Z</time>
      </trkpt>
      <trkpt lat="44.25276" lon="3.54383">
        <ele>1128.8</ele>
        <time>2015-08-22T12:56:27.865Z</time>
      </trkpt>
      <trkpt lat="44.25284" lon="3.54388">
        <ele>1128.7</ele>
        <time>2015-08-22T12:56:33.914Z</time>
      </trkpt>
      <trkpt lat="44.25285" lon="3.54389">
        <ele>1128.6</ele>
        <time>2015-08-22T12:56:34.854Z</time>
      </trkpt>
      <trkpt lat="44.25292" lon="3.54393">
        <ele>1128.9</ele>
        <time>2015-08-22T12:56:39.910Z</time>
      </trkpt>
      <trkpt lat="44.25293" lon="3.54394">
        <ele>1128.9</ele>
        <time>2015-08-22T12:56:40.872Z</time>
      </trkpt>
      <trkpt lat="44.253" lon="3.54399">
        <ele>1129</ele>
        <time>2015-08-22T12:56:45.911Z</time>
      </trkpt>
      <trkpt lat="44.25302" lon="3.544">
        <ele>1129</ele>
        <time>2015-08-22T12:56:46.853Z</time>
      </trkpt>
      <trkpt lat="44.25308" lon="3.54405">
        <ele>1129.2</ele>
        <time>2015-08-22T12:56:51.901Z</time>
      </trkpt>
      <trkpt lat="44.2531" lon="3.54406">
        <ele>1129.2</ele>
        <time>2015-08-22T12:56:52.855Z</time>
      </trkpt>
      <trkpt lat="44.25317" lon="3.54412">
        <ele>1129.3</ele>
        <time>2015-08-22T12:56:58.952Z</time>
      </trkpt>
      <trkpt lat="44.25318" lon="3.54413">
        <ele>1129.3</ele>
        <time>2015-08-22T12:56:59.854Z</time>
      </trkpt>
      <trkpt lat="44.25325" lon="3.54421">
        <ele>1129.3</ele>
        <time>2015-08-22T12:57:05.936Z</time>
      </trkpt>
      <trkpt lat="44.25326" lon="3.54422">
        <ele>1129.3</ele>
        <time>2015-08-22T12:57:06.866Z</time>
      </trkpt>
      <trkpt lat="44.25333" lon="3.5443">
        <ele>1129.3</ele>
        <time>2015-08-22T12:57:12.896Z</time>
      </trkpt>
      <trkpt lat="44.25334" lon="3.54431">
        <ele>1129.3</ele>
        <time>2015-08-22T12:57:13.852Z</time>
      </trkpt>
      <trkpt lat="44.2534" lon="3.54439">
        <ele>1129.1</ele>
        <time>2015-08-22T12:57:19.926Z</time>
      </trkpt>
      <trkpt lat="44.25341" lon="3.5444">
        <ele>1129.2</ele>
        <time>2015-08-22T12:57:20.852Z</time>
      </trkpt>
      <trkpt lat="44.25347" lon="3.54448">
        <ele>1129.7</ele>
        <time>2015-08-22T12:57:26.922Z</time>
      </trkpt>
      <trkpt lat="44.25348" lon="3.5445">
        <ele>1129.8</ele>
        <time>2015-08-22T12:57:27.855Z</time>
      </trkpt>
      <trkpt lat="44.25355" lon="3.54458">
        <ele>1130.1</ele>
        <time>2015-08-22T12:57:34.325Z</time>
      </trkpt>
      <trkpt lat="44.25356" lon="3.54459">
        <ele>1130.2</ele>
        <time>2015-08-22T12:57:34.854Z</time>
      </trkpt>
      <trkpt lat="44.25362" lon="3.54467">
        <ele>1130.6</ele>
        <time>2015-08-22T12:57:40.901Z</time>
      </trkpt>
      <trkpt lat="44.25363" lon="3.54468">
        <ele>1130.6</ele>
        <time>2015-08-22T12:57:41.855Z</time>
      </trkpt>
      <trkpt lat="44.2537" lon="3.54475">
        <ele>1131.1</ele>
        <time>2015-08-22T12:57:47.933Z</time>
      </trkpt>
      <trkpt lat="44.25371" lon="3.54476">
        <ele>1131.1</ele>
        <time>2015-08-22T12:57:48.855Z</time>
      </trkpt>
      <trkpt lat="44.25378" lon="3.54484">
        <ele>1131.8</ele>
        <time>2015-08-22T12:57:54.896Z</time>
      </trkpt>
      <trkpt lat="44.25379" lon="3.54485">
        <ele>1131.8</ele>
        <time>2015-08-22T12:57:55.859Z</time>
      </trkpt>
      <trkpt lat="44.25385" lon="3.54492">
        <ele>1132.6</ele>
        <time>2015-08-22T12:58:01.915Z</time>
      </trkpt>
      <trkpt lat="44.25386" lon="3.54493">
        <ele>1132.7</ele>
        <time>2015-08-22T12:58:02.855Z</time>
      </trkpt>
      <trkpt lat="44.25393" lon="3.545">
        <ele>1133.4</ele>
        <time>2015-08-22T12:58:08.892Z</time>
      </trkpt>
      <trkpt lat="44.25394" lon="3.54501">
        <ele>1133.5</ele>
        <time>2015-08-22T12:58:09.856Z</time>
      </trkpt>
      <trkpt lat="44.25401" lon="3.54506">
        <ele>1134</ele>
        <time>2015-08-22T12:58:15.908Z</time>
      </trkpt>
      <trkpt lat="44.25402" lon="3.54507">
        <ele>1134.1</ele>
        <time>2015-08-22T12:58:16.852Z</time>
      </trkpt>
      <trkpt lat="44.25409" lon="3.54513">
        <ele>1134.6</ele>
        <time>2015-08-22T12:58:22.901Z</time>
      </trkpt>
      <trkpt lat="44.2541" lon="3.54514">
        <ele>1134.6</ele>
        <time>2015-08-22T12:58:23.856Z</time>
      </trkpt>
      <trkpt lat="44.25417" lon="3.5452">
        <ele>1134.8</ele>
        <time>2015-08-22T12:58:29.922Z</time>
      </trkpt>
      <trkpt lat="44.25419" lon="3.5452">
        <ele>1134.8</ele>
        <time>2015-08-22T12:58:30.866Z</time>
      </trkpt>
      <trkpt lat="44.25425" lon="3.54526">
        <ele>1135.1</ele>
        <time>2015-08-22T12:58:36.895Z</time>
      </trkpt>
      <trkpt lat="44.25427" lon="3.54527">
        <ele>1135.1</ele>
        <time>2015-08-22T12:58:37.880Z</time>
      </trkpt>
      <trkpt lat="44.25434" lon="3.54533">
        <ele>1135.6</ele>
        <time>2015-08-22T12:58:43.918Z</time>
      </trkpt>
      <trkpt lat="44.25435" lon="3.54534">
        <ele>1135.6</ele>
        <time>2015-08-22T12:58:44.863Z</time>
      </trkpt>
      <trkpt lat="44.25442" lon="3.5454">
        <ele>1135.9</ele>
        <time>2015-08-22T12:58:50.914Z</time>
      </trkpt>
      <trkpt lat="44.25443" lon="3.54541">
        <ele>1135.9</ele>
        <time>2015-08-22T12:58:51.877Z</time>
      </trkpt>
      <trkpt lat="44.2545" lon="3.54547">
        <ele>1136.2</ele>
        <time>2015-08-22T12:58:57.916Z</time>
      </trkpt>
      <trkpt lat="44.25451" lon="3.54549">
        <ele>1136.3</ele>
        <time>2015-08-22T12:58:58.855Z</time>
      </trkpt>
      <trkpt lat="44.25458" lon="3.54555">
        <ele>1136.4</ele>
        <time>2015-08-22T12:59:05.306Z</time>
      </trkpt>
      <trkpt lat="44.25459" lon="3.54556">
        <ele>1136.4</ele>
        <time>2015-08-22T12:59:05.851Z</time>
      </trkpt>
      <trkpt lat="44.25466" lon="3.54563">
        <ele>1136.3</ele>
        <time>2015-08-22T12:59:11.902Z</time>
      </trkpt>
      <trkpt lat="44.25467" lon="3.54564">
        <ele>1136.3</ele>
        <time>2015-08-22T12:59:12.858Z</time>
      </trkpt>
      <trkpt lat="44.25474" lon="3.54571">
        <ele>1136.1</ele>
        <time>2015-08-22T12:59:18.894Z</time>
      </trkpt>
      <trkpt lat="44.25475" lon="3.54572">
        <ele>1136.1</ele>
        <time>2015-08-22T12:59:19.857Z</time>
      </trkpt>
      <trkpt lat="44.25481" lon="3.54579">
        <ele>1136.2</ele>
        <time>2015-08-22T12:59:25.950Z</time>
      </trkpt>
      <trkpt lat="44.25482" lon="3.5458">
        <ele>1136.2</ele>
        <time>2015-08-22T12:59:26.851Z</time>
      </trkpt>
      <trkpt lat="44.2549" lon="3.54586">
        <ele>1136.3</ele>
        <time>2015-08-22T12:59:33.242Z</time>
      </trkpt>
      <trkpt lat="44.25491" lon="3.54587">
        <ele>1136.3</ele>
        <time>2015-08-22T12:59:33.855Z</time>
      </trkpt>
      <trkpt lat="44.25498" lon="3.54594">
        <ele>1136.6</ele>
        <time>2015-08-22T12:59:39.919Z</time>
      </trkpt>
      <trkpt lat="44.25499" lon="3.54595">
        <ele>1136.6</ele>
        <time>2015-08-22T12:59:40.859Z</time>
      </trkpt>
      <trkpt lat="44.25506" lon="3.54601">
        <ele>1136.9</ele>
        <time>2015-08-22T12:59:46.920Z</time>
      </trkpt>
      <trkpt lat="44.25507" lon="3.54602">
        <ele>1137</ele>
        <time>2015-08-22T12:59:47.853Z</time>
      </trkpt>
      <trkpt lat="44.25514" lon="3.54608">
        <ele>1137.4</ele>
        <time>2015-08-22T12:59:53.941Z</time>
      </trkpt>
      <trkpt lat="44.25515" lon="3.54609">
        <ele>1137.4</ele>
        <time>2015-08-22T12:59:54.866Z</time>
      </trkpt>
      <trkpt lat="44.25522" lon="3.54615">
        <ele>1137.3</ele>
        <time>2015-08-22T13:00:00.895Z</time>
      </trkpt>
      <trkpt lat="44.25523" lon="3.54616">
        <ele>1137.3</ele>
        <time>2015-08-22T13:00:01.880Z</time>
      </trkpt>
      <trkpt lat="44.2553" lon="3.5462">
        <ele>1137</ele>
        <time>2015-08-22T13:00:07.887Z</time>
      </trkpt>
      <trkpt lat="44.25532" lon="3.5462">
        <ele>1137</ele>
        <time>2015-08-22T13:00:08.849Z</time>
      </trkpt>
      <trkpt lat="44.25539" lon="3.54622">
        <ele>1137</ele>
        <time>2015-08-22T13:00:14.918Z</time>
      </trkpt>
      <trkpt lat="44.25541" lon="3.54623">
        <ele>1136.9</ele>
        <time>2015-08-22T13:00:15.902Z</time>
      </trkpt>
      <trkpt lat="44.25549" lon="3.54625">
        <ele>1136.7</ele>
        <time>2015-08-22T13:00:21.896Z</time>
      </trkpt>
      <trkpt lat="44.2555" lon="3.54625">
        <ele>1136.5</ele>
        <time>2015-08-22T13:00:22.864Z</time>
      </trkpt>
      <trkpt lat="44.25559" lon="3.54628">
        <ele>1136.5</ele>
        <time>2015-08-22T13:00:28.895Z</time>
      </trkpt>
      <trkpt lat="44.2556" lon="3.54629">
        <ele>1136.6</ele>
        <time>2015-08-22T13:00:29.877Z</time>
      </trkpt>
      <trkpt lat="44.25568" lon="3.5463">
        <ele>1136.9</ele>
        <time>2015-08-22T13:00:35.918Z</time>
      </trkpt>
      <trkpt lat="44.25569" lon="3.54631">
        <ele>1136.9</ele>
        <time>2015-08-22T13:00:36.866Z</time>
      </trkpt>
      <trkpt lat="44.25578" lon="3.54634">
        <ele>1137.6</ele>
        <time>2015-08-22T13:00:42.889Z</time>
      </trkpt>
      <trkpt lat="44.25579" lon="3.54635">
        <ele>1137.7</ele>
        <time>2015-08-22T13:00:43.894Z</time>
      </trkpt>
      <trkpt lat="44.25587" lon="3.5464">
        <ele>1138</ele>
        <time>2015-08-22T13:00:55.891Z</time>
      </trkpt>
      <trkpt lat="44.25588" lon="3.54641">
        <ele>1138.1</ele>
        <time>2015-08-22T13:00:56.852Z</time>
      </trkpt>
      <trkpt lat="44.25595" lon="3.54648">
        <ele>1140.5</ele>
        <time>2015-08-22T13:01:42.897Z</time>
      </trkpt>
      <trkpt lat="44.25596" lon="3.5465">
        <ele>1140.5</ele>
        <time>2015-08-22T13:01:43.856Z</time>
      </trkpt>
      <trkpt lat="44.25603" lon="3.54657">
        <ele>1140.6</ele>
        <time>2015-08-22T13:01:49.893Z</time>
      </trkpt>
      <trkpt lat="44.25604" lon="3.54658">
        <ele>1140.7</ele>
        <time>2015-08-22T13:01:50.853Z</time>
      </trkpt>
      <trkpt lat="44.25611" lon="3.54665">
        <ele>1140.9</ele>
        <time>2015-08-22T13:01:56.931Z</time>
      </trkpt>
      <trkpt lat="44.25612" lon="3.54666">
        <ele>1140.9</ele>
        <time>2015-08-22T13:01:57.857Z</time>
      </trkpt>
      <trkpt lat="44.25619" lon="3.54673">
        <ele>1141.2</ele>
        <time>2015-08-22T13:02:03.924Z</time>
      </trkpt>
      <trkpt lat="44.2562" lon="3.54674">
        <ele>1141.3</ele>
        <time>2015-08-22T13:02:04.855Z</time>
      </trkpt>
      <trkpt lat="44.25627" lon="3.5468">
        <ele>1141.8</ele>
        <time>2015-08-22T13:02:10.903Z</time>
      </trkpt>
      <trkpt lat="44.25628" lon="3.5468">
        <ele>1141.8</ele>
        <time>2015-08-22T13:02:11.859Z</time>
      </trkpt>
      <trkpt lat="44.25634" lon="3.54686">
        <ele>1142.4</ele>
        <time>2015-08-22T13:02:17.904Z</time>
      </trkpt>
      <trkpt lat="44.25636" lon="3.54688">
        <ele>1142.5</ele>
        <time>2015-08-22T13:02:18.855Z</time>
      </trkpt>
      <trkpt lat="44.25643" lon="3.54694">
        <ele>1142.8</ele>
        <time>2015-08-22T13:02:24.899Z</time>
      </trkpt>
      <trkpt lat="44.25644" lon="3.54695">
        <ele>1142.9</ele>
        <time>2015-08-22T13:02:25.863Z</time>
      </trkpt>
      <trkpt lat="44.25652" lon="3.54701">
        <ele>1143.2</ele>
        <time>2015-08-22T13:02:31.897Z</time>
      </trkpt>
      <trkpt lat="44.25653" lon="3.54702">
        <ele>1143.2</ele>
        <time>2015-08-22T13:02:32.854Z</time>
      </trkpt>
      <trkpt lat="44.2566" lon="3.54709">
        <ele>1143.3</ele>
        <time>2015-08-22T13:02:38.896Z</time>
      </trkpt>
      <trkpt lat="44.25661" lon="3.5471">
        <ele>1143.4</ele>
        <time>2015-08-22T13:02:39.854Z</time>
      </trkpt>
      <trkpt lat="44.25669" lon="3.54716">
        <ele>1143.5</ele>
        <time>2015-08-22T13:02:45.901Z</time>
      </trkpt>
      <trkpt lat="44.2567" lon="3.54717">
        <ele>1143.6</ele>
        <time>2015-08-22T13:02:46.885Z</time>
      </trkpt>
      <trkpt lat="44.25678" lon="3.54724">
        <ele>1143.5</ele>
        <time>2015-08-22T13:02:52.884Z</time>
      </trkpt>
      <trkpt lat="44.25679" lon="3.54725">
        <ele>1143.5</ele>
        <time>2015-08-22T13:02:53.855Z</time>
      </trkpt>
      <trkpt lat="44.25686" lon="3.5473">
        <ele>1143.3</ele>
        <time>2015-08-22T13:02:59.904Z</time>
      </trkpt>
      <trkpt lat="44.25687" lon="3.54731">
        <ele>1143.3</ele>
        <time>2015-08-22T13:03:00.855Z</time>
      </trkpt>
      <trkpt lat="44.25695" lon="3.54737">
        <ele>1141.8</ele>
        <time>2015-08-22T13:03:26.936Z</time>
      </trkpt>
      <trkpt lat="44.25696" lon="3.54738">
        <ele>1141.8</ele>
        <time>2015-08-22T13:03:27.853Z</time>
      </trkpt>
      <trkpt lat="44.25704" lon="3.54744">
        <ele>1142.3</ele>
        <time>2015-08-22T13:03:33.892Z</time>
      </trkpt>
      <trkpt lat="44.25705" lon="3.54745">
        <ele>1142.4</ele>
        <time>2015-08-22T13:03:34.878Z</time>
      </trkpt>
      <trkpt lat="44.25713" lon="3.54748">
        <ele>1143</ele>
        <time>2015-08-22T13:03:40.932Z</time>
      </trkpt>
      <trkpt lat="44.25714" lon="3.54749">
        <ele>1143.1</ele>
        <time>2015-08-22T13:03:41.853Z</time>
      </trkpt>
      <trkpt lat="44.25723" lon="3.54752">
        <ele>1143.4</ele>
        <time>2015-08-22T13:03:47.943Z</time>
      </trkpt>
      <trkpt lat="44.25724" lon="3.54752">
        <ele>1143.5</ele>
        <time>2015-08-22T13:03:49.228Z</time>
      </trkpt>
      <trkpt lat="44.25732" lon="3.54755">
        <ele>1143.7</ele>
        <time>2015-08-22T13:03:54.938Z</time>
      </trkpt>
      <trkpt lat="44.25733" lon="3.54755">
        <ele>1143.7</ele>
        <time>2015-08-22T13:03:55.855Z</time>
      </trkpt>
      <trkpt lat="44.25741" lon="3.54759">
        <ele>1144</ele>
        <time>2015-08-22T13:04:03.895Z</time>
      </trkpt>
      <trkpt lat="44.25742" lon="3.54759">
        <ele>1144</ele>
        <time>2015-08-22T13:04:04.853Z</time>
      </trkpt>
      <trkpt lat="44.2575" lon="3.54763">
        <ele>1144.1</ele>
        <time>2015-08-22T13:04:10.912Z</time>
      </trkpt>
      <trkpt lat="44.25751" lon="3.54763">
        <ele>1144.2</ele>
        <time>2015-08-22T13:04:11.855Z</time>
      </trkpt>
      <trkpt lat="44.25759" lon="3.54766">
        <ele>1144.4</ele>
        <time>2015-08-22T13:04:17.894Z</time>
      </trkpt>
      <trkpt lat="44.2576" lon="3.54767">
        <ele>1144.4</ele>
        <time>2015-08-22T13:04:18.859Z</time>
      </trkpt>
      <trkpt lat="44.25768" lon="3.54771">
        <ele>1144.6</ele>
        <time>2015-08-22T13:04:24.901Z</time>
      </trkpt>
      <trkpt lat="44.25769" lon="3.54771">
        <ele>1144.5</ele>
        <time>2015-08-22T13:04:25.853Z</time>
      </trkpt>
      <trkpt lat="44.25776" lon="3.54777">
        <ele>1144.6</ele>
        <time>2015-08-22T13:04:45.891Z</time>
      </trkpt>
      <trkpt lat="44.25777" lon="3.54778">
        <ele>1144.5</ele>
        <time>2015-08-22T13:04:46.851Z</time>
      </trkpt>
      <trkpt lat="44.25784" lon="3.54784">
        <ele>1144.8</ele>
        <time>2015-08-22T13:04:55.927Z</time>
      </trkpt>
      <trkpt lat="44.25784" lon="3.54785">
        <ele>1144.7</ele>
        <time>2015-08-22T13:04:56.853Z</time>
      </trkpt>
      <trkpt lat="44.25793" lon="3.54789">
        <ele>1144.1</ele>
        <time>2015-08-22T13:05:06.923Z</time>
      </trkpt>
      <trkpt lat="44.25793" lon="3.54789">
        <ele>1144</ele>
        <time>2015-08-22T13:05:07.876Z</time>
      </trkpt>
      <trkpt lat="44.25801" lon="3.54785">
        <ele>1142.3</ele>
        <time>2015-08-22T13:05:19.895Z</time>
      </trkpt>
      <trkpt lat="44.25802" lon="3.54785">
        <ele>1142.2</ele>
        <time>2015-08-22T13:05:20.853Z</time>
      </trkpt>
      <trkpt lat="44.2581" lon="3.54782">
        <ele>1142.1</ele>
        <time>2015-08-22T13:05:26.894Z</time>
      </trkpt>
      <trkpt lat="44.25811" lon="3.54782">
        <ele>1142</ele>
        <time>2015-08-22T13:05:27.883Z</time>
      </trkpt>
      <trkpt lat="44.25819" lon="3.5478">
        <ele>1142.9</ele>
        <time>2015-08-22T13:05:34.265Z</time>
      </trkpt>
      <trkpt lat="44.2582" lon="3.5478">
        <ele>1142.6</ele>
        <time>2015-08-22T13:05:34.853Z</time>
      </trkpt>
      <trkpt lat="44.25829" lon="3.54779">
        <ele>1142</ele>
        <time>2015-08-22T13:05:40.905Z</time>
      </trkpt>
      <trkpt lat="44.25831" lon="3.54779">
        <ele>1142</ele>
        <time>2015-08-22T13:05:41.856Z</time>
      </trkpt>
      <trkpt lat="44.25839" lon="3.5478">
        <ele>1141.2</ele>
        <time>2015-08-22T13:05:47.900Z</time>
      </trkpt>
      <trkpt lat="44.2584" lon="3.5478">
        <ele>1141</ele>
        <time>2015-08-22T13:05:48.866Z</time>
      </trkpt>
      <trkpt lat="44.25849" lon="3.54781">
        <ele>1139.6</ele>
        <time>2015-08-22T13:05:54.893Z</time>
      </trkpt>
      <trkpt lat="44.2585" lon="3.54781">
        <ele>1139.1</ele>
        <time>2015-08-22T13:05:55.878Z</time>
      </trkpt>
      <trkpt lat="44.25859" lon="3.54782">
        <ele>1138.2</ele>
        <time>2015-08-22T13:06:01.901Z</time>
      </trkpt>
      <trkpt lat="44.2586" lon="3.54782">
        <ele>1138.1</ele>
        <time>2015-08-22T13:06:02.864Z</time>
      </trkpt>
      <trkpt lat="44.25868" lon="3.54783">
        <ele>1137.4</ele>
        <time>2015-08-22T13:06:08.889Z</time>
      </trkpt>
      <trkpt lat="44.2587" lon="3.54783">
        <ele>1137.3</ele>
        <time>2015-08-22T13:06:09.852Z</time>
      </trkpt>
      <trkpt lat="44.25879" lon="3.54783">
        <ele>1136.5</ele>
        <time>2015-08-22T13:06:18.928Z</time>
      </trkpt>
      <trkpt lat="44.2588" lon="3.54783">
        <ele>1136.4</ele>
        <time>2015-08-22T13:06:19.881Z</time>
      </trkpt>
      <trkpt lat="44.25889" lon="3.54784">
        <ele>1135.9</ele>
        <time>2015-08-22T13:06:25.901Z</time>
      </trkpt>
      <trkpt lat="44.2589" lon="3.54784">
        <ele>1135.9</ele>
        <time>2015-08-22T13:06:26.864Z</time>
      </trkpt>
      <trkpt lat="44.25899" lon="3.54787">
        <ele>1135.4</ele>
        <time>2015-08-22T13:06:32.893Z</time>
      </trkpt>
      <trkpt lat="44.259" lon="3.54787">
        <ele>1135.3</ele>
        <time>2015-08-22T13:06:33.878Z</time>
      </trkpt>
      <trkpt lat="44.25908" lon="3.5479">
        <ele>1135.9</ele>
        <time>2015-08-22T13:06:39.903Z</time>
      </trkpt>
      <trkpt lat="44.25909" lon="3.5479">
        <ele>1135.9</ele>
        <time>2015-08-22T13:06:40.855Z</time>
      </trkpt>
      <trkpt lat="44.25918" lon="3.54793">
        <ele>1135.8</ele>
        <time>2015-08-22T13:06:46.919Z</time>
      </trkpt>
      <trkpt lat="44.25919" lon="3.54793">
        <ele>1135.8</ele>
        <time>2015-08-22T13:06:47.877Z</time>
      </trkpt>
      <trkpt lat="44.25927" lon="3.54794">
        <ele>1135.5</ele>
        <time>2015-08-22T13:06:54.921Z</time>
      </trkpt>
      <trkpt lat="44.25929" lon="3.54794">
        <ele>1135.5</ele>
        <time>2015-08-22T13:06:55.878Z</time>
      </trkpt>
      <trkpt lat="44.25938" lon="3.54793">
        <ele>1136.7</ele>
        <time>2015-08-22T13:07:02.918Z</time>
      </trkpt>
      <trkpt lat="44.25939" lon="3.54793">
        <ele>1136.9</ele>
        <time>2015-08-22T13:07:03.855Z</time>
      </trkpt>
      <trkpt lat="44.25947" lon="3.54789">
        <ele>1137.5</ele>
        <time>2015-08-22T13:07:09.923Z</time>
      </trkpt>
      <trkpt lat="44.25948" lon="3.54788">
        <ele>1137.6</ele>
        <time>2015-08-22T13:07:10.852Z</time>
      </trkpt>
      <trkpt lat="44.25956" lon="3.54784">
        <ele>1137.8</ele>
        <time>2015-08-22T13:07:16.942Z</time>
      </trkpt>
      <trkpt lat="44.25957" lon="3.54783">
        <ele>1137.8</ele>
        <time>2015-08-22T13:07:17.853Z</time>
      </trkpt>
      <trkpt lat="44.25964" lon="3.54778">
        <ele>1138</ele>
        <time>2015-08-22T13:07:23.932Z</time>
      </trkpt>
      <trkpt lat="44.25966" lon="3.54777">
        <ele>1138.1</ele>
        <time>2015-08-22T13:07:24.855Z</time>
      </trkpt>
      <trkpt lat="44.25973" lon="3.54771">
        <ele>1138.2</ele>
        <time>2015-08-22T13:07:30.964Z</time>
      </trkpt>
      <trkpt lat="44.25975" lon="3.5477">
        <ele>1138.3</ele>
        <time>2015-08-22T13:07:31.852Z</time>
      </trkpt>
      <trkpt lat="44.25982" lon="3.54765">
        <ele>1139.2</ele>
        <time>2015-08-22T13:07:37.941Z</time>
      </trkpt>
      <trkpt lat="44.25983" lon="3.54764">
        <ele>1139.3</ele>
        <time>2015-08-22T13:07:38.864Z</time>
      </trkpt>
      <trkpt lat="44.2599" lon="3.54759">
        <ele>1139.9</ele>
        <time>2015-08-22T13:07:44.892Z</time>
      </trkpt>
      <trkpt lat="44.25991" lon="3.54758">
        <ele>1140</ele>
        <time>2015-08-22T13:07:45.875Z</time>
      </trkpt>
      <trkpt lat="44.25998" lon="3.54752">
        <ele>1140.6</ele>
        <time>2015-08-22T13:07:51.948Z</time>
      </trkpt>
      <trkpt lat="44.25999" lon="3.54751">
        <ele>1140.7</ele>
        <time>2015-08-22T13:07:52.853Z</time>
      </trkpt>
      <trkpt lat="44.26007" lon="3.54745">
        <ele>1141.3</ele>
        <time>2015-08-22T13:07:59.909Z</time>
      </trkpt>
      <trkpt lat="44.26008" lon="3.54744">
        <ele>1141.3</ele>
        <time>2015-08-22T13:08:00.853Z</time>
      </trkpt>
      <trkpt lat="44.26015" lon="3.54736">
        <ele>1142.2</ele>
        <time>2015-08-22T13:08:07.900Z</time>
      </trkpt>
      <trkpt lat="44.26016" lon="3.54735">
        <ele>1142.3</ele>
        <time>2015-08-22T13:08:08.855Z</time>
      </trkpt>
      <trkpt lat="44.26023" lon="3.54729">
        <ele>1144</ele>
        <time>2015-08-22T13:08:16.918Z</time>
      </trkpt>
      <trkpt lat="44.26024" lon="3.54729">
        <ele>1144.3</ele>
        <time>2015-08-22T13:08:17.854Z</time>
      </trkpt>
      <trkpt lat="44.26032" lon="3.54725">
        <ele>1146.3</ele>
        <time>2015-08-22T13:08:25.894Z</time>
      </trkpt>
      <trkpt lat="44.26032" lon="3.54724">
        <ele>1146.6</ele>
        <time>2015-08-22T13:08:27.228Z</time>
      </trkpt>
      <trkpt lat="44.26041" lon="3.54719">
        <ele>1148.1</ele>
        <time>2015-08-22T13:08:33.892Z</time>
      </trkpt>
      <trkpt lat="44.26042" lon="3.54719">
        <ele>1148.1</ele>
        <time>2015-08-22T13:08:34.862Z</time>
      </trkpt>
      <trkpt lat="44.26049" lon="3.54714">
        <ele>1148.5</ele>
        <time>2015-08-22T13:08:40.895Z</time>
      </trkpt>
      <trkpt lat="44.2605" lon="3.54713">
        <ele>1148.6</ele>
        <time>2015-08-22T13:08:41.858Z</time>
      </trkpt>
      <trkpt lat="44.26058" lon="3.5471">
        <ele>1149.3</ele>
        <time>2015-08-22T13:08:47.902Z</time>
      </trkpt>
      <trkpt lat="44.26059" lon="3.5471">
        <ele>1149.4</ele>
        <time>2015-08-22T13:08:48.856Z</time>
      </trkpt>
      <trkpt lat="44.26068" lon="3.54707">
        <ele>1150.5</ele>
        <time>2015-08-22T13:08:55.889Z</time>
      </trkpt>
      <trkpt lat="44.26069" lon="3.54706">
        <ele>1150.7</ele>
        <time>2015-08-22T13:08:56.863Z</time>
      </trkpt>
      <trkpt lat="44.26077" lon="3.54703">
        <ele>1152</ele>
        <time>2015-08-22T13:09:03.938Z</time>
      </trkpt>
      <trkpt lat="44.26079" lon="3.54703">
        <ele>1152.3</ele>
        <time>2015-08-22T13:09:04.853Z</time>
      </trkpt>
      <trkpt lat="44.26087" lon="3.547">
        <ele>1153.4</ele>
        <time>2015-08-22T13:09:11.902Z</time>
      </trkpt>
      <trkpt lat="44.26089" lon="3.54699">
        <ele>1153.5</ele>
        <time>2015-08-22T13:09:12.855Z</time>
      </trkpt>
      <trkpt lat="44.26097" lon="3.54697">
        <ele>1154.6</ele>
        <time>2015-08-22T13:09:19.903Z</time>
      </trkpt>
      <trkpt lat="44.26098" lon="3.54696">
        <ele>1154.8</ele>
        <time>2015-08-22T13:09:20.853Z</time>
      </trkpt>
      <trkpt lat="44.26107" lon="3.54696">
        <ele>1156</ele>
        <time>2015-08-22T13:09:27.903Z</time>
      </trkpt>
      <trkpt lat="44.26108" lon="3.54696">
        <ele>1155.6</ele>
        <time>2015-08-22T13:09:28.857Z</time>
      </trkpt>
      <trkpt lat="44.26117" lon="3.54697">
        <ele>1155.9</ele>
        <time>2015-08-22T13:09:35.888Z</time>
      </trkpt>
      <trkpt lat="44.26118" lon="3.54697">
        <ele>1156</ele>
        <time>2015-08-22T13:09:36.865Z</time>
      </trkpt>
      <trkpt lat="44.26126" lon="3.54696">
        <ele>1157.2</ele>
        <time>2015-08-22T13:09:43.902Z</time>
      </trkpt>
      <trkpt lat="44.26127" lon="3.54696">
        <ele>1157.3</ele>
        <time>2015-08-22T13:09:44.853Z</time>
      </trkpt>
      <trkpt lat="44.26136" lon="3.54693">
        <ele>1158.1</ele>
        <time>2015-08-22T13:09:51.901Z</time>
      </trkpt>
      <trkpt lat="44.26137" lon="3.54693">
        <ele>1158.1</ele>
        <time>2015-08-22T13:09:52.851Z</time>
      </trkpt>
      <trkpt lat="44.26145" lon="3.54688">
        <ele>1159.3</ele>
        <time>2015-08-22T13:09:59.910Z</time>
      </trkpt>
      <trkpt lat="44.26146" lon="3.54686">
        <ele>1159.5</ele>
        <time>2015-08-22T13:10:00.854Z</time>
      </trkpt>
      <trkpt lat="44.26154" lon="3.5468">
        <ele>1160.4</ele>
        <time>2015-08-22T13:10:07.904Z</time>
      </trkpt>
      <trkpt lat="44.26155" lon="3.5468">
        <ele>1160.3</ele>
        <time>2015-08-22T13:10:08.851Z</time>
      </trkpt>
      <trkpt lat="44.26162" lon="3.54672">
        <ele>1160.3</ele>
        <time>2015-08-22T13:10:15.933Z</time>
      </trkpt>
      <trkpt lat="44.26163" lon="3.54671">
        <ele>1160.4</ele>
        <time>2015-08-22T13:10:16.864Z</time>
      </trkpt>
      <trkpt lat="44.26169" lon="3.54664">
        <ele>1160.4</ele>
        <time>2015-08-22T13:10:22.892Z</time>
      </trkpt>
      <trkpt lat="44.2617" lon="3.54662">
        <ele>1160.3</ele>
        <time>2015-08-22T13:10:23.864Z</time>
      </trkpt>
      <trkpt lat="44.26177" lon="3.54655">
        <ele>1160.7</ele>
        <time>2015-08-22T13:10:29.903Z</time>
      </trkpt>
      <trkpt lat="44.26178" lon="3.54654">
        <ele>1160.7</ele>
        <time>2015-08-22T13:10:30.866Z</time>
      </trkpt>
      <trkpt lat="44.26184" lon="3.54645">
        <ele>1161.1</ele>
        <time>2015-08-22T13:10:36.896Z</time>
      </trkpt>
      <trkpt lat="44.26185" lon="3.54643">
        <ele>1161.2</ele>
        <time>2015-08-22T13:10:37.877Z</time>
      </trkpt>
      <trkpt lat="44.26191" lon="3.54636">
        <ele>1161.5</ele>
        <time>2015-08-22T13:10:43.931Z</time>
      </trkpt>
      <trkpt lat="44.26192" lon="3.54635">
        <ele>1161.5</ele>
        <time>2015-08-22T13:10:44.853Z</time>
      </trkpt>
      <trkpt lat="44.26198" lon="3.54627">
        <ele>1161.9</ele>
        <time>2015-08-22T13:10:50.896Z</time>
      </trkpt>
      <trkpt lat="44.26199" lon="3.54626">
        <ele>1161.9</ele>
        <time>2015-08-22T13:10:51.858Z</time>
      </trkpt>
      <trkpt lat="44.26205" lon="3.54619">
        <ele>1162.5</ele>
        <time>2015-08-22T13:10:57.891Z</time>
      </trkpt>
      <trkpt lat="44.26207" lon="3.54618">
        <ele>1162.5</ele>
        <time>2015-08-22T13:10:58.854Z</time>
      </trkpt>
      <trkpt lat="44.26215" lon="3.54615">
        <ele>1162</ele>
        <time>2015-08-22T13:11:04.893Z</time>
      </trkpt>
      <trkpt lat="44.26216" lon="3.54615">
        <ele>1162.1</ele>
        <time>2015-08-22T13:11:05.855Z</time>
      </trkpt>
      <trkpt lat="44.26225" lon="3.54615">
        <ele>1162</ele>
        <time>2015-08-22T13:11:11.906Z</time>
      </trkpt>
      <trkpt lat="44.26227" lon="3.54615">
        <ele>1162.1</ele>
        <time>2015-08-22T13:11:12.856Z</time>
      </trkpt>
      <trkpt lat="44.26235" lon="3.54616">
        <ele>1163</ele>
        <time>2015-08-22T13:11:18.894Z</time>
      </trkpt>
      <trkpt lat="44.26236" lon="3.54616">
        <ele>1162.4</ele>
        <time>2015-08-22T13:11:19.852Z</time>
      </trkpt>
      <trkpt lat="44.26245" lon="3.54617">
        <ele>1162.5</ele>
        <time>2015-08-22T13:11:26.901Z</time>
      </trkpt>
      <trkpt lat="44.26246" lon="3.54617">
        <ele>1162.5</ele>
        <time>2015-08-22T13:11:27.853Z</time>
      </trkpt>
      <trkpt lat="44.26255" lon="3.54616">
        <ele>1162.8</ele>
        <time>2015-08-22T13:11:33.901Z</time>
      </trkpt>
      <trkpt lat="44.26256" lon="3.54615">
        <ele>1162.9</ele>
        <time>2015-08-22T13:11:34.856Z</time>
      </trkpt>
      <trkpt lat="44.26264" lon="3.54614">
        <ele>1163.3</ele>
        <time>2015-08-22T13:11:40.894Z</time>
      </trkpt>
      <trkpt lat="44.26265" lon="3.54614">
        <ele>1163.4</ele>
        <time>2015-08-22T13:11:41.853Z</time>
      </trkpt>
      <trkpt lat="44.26274" lon="3.54613">
        <ele>1163.8</ele>
        <time>2015-08-22T13:11:47.903Z</time>
      </trkpt>
      <trkpt lat="44.26275" lon="3.54613">
        <ele>1163.9</ele>
        <time>2015-08-22T13:11:48.856Z</time>
      </trkpt>
      <trkpt lat="44.26283" lon="3.54611">
        <ele>1164.5</ele>
        <time>2015-08-22T13:11:54.918Z</time>
      </trkpt>
      <trkpt lat="44.26284" lon="3.54611">
        <ele>1164.5</ele>
        <time>2015-08-22T13:11:55.876Z</time>
      </trkpt>
      <trkpt lat="44.26292" lon="3.5461">
        <ele>1165.6</ele>
        <time>2015-08-22T13:12:01.933Z</time>
      </trkpt>
      <trkpt lat="44.26294" lon="3.54609">
        <ele>1165.6</ele>
        <time>2015-08-22T13:12:02.863Z</time>
      </trkpt>
      <trkpt lat="44.26302" lon="3.54608">
        <ele>1165.8</ele>
        <time>2015-08-22T13:12:08.922Z</time>
      </trkpt>
      <trkpt lat="44.26303" lon="3.54607">
        <ele>1165.9</ele>
        <time>2015-08-22T13:12:09.853Z</time>
      </trkpt>
      <trkpt lat="44.26311" lon="3.54604">
        <ele>1166.4</ele>
        <time>2015-08-22T13:12:16.187Z</time>
      </trkpt>
      <trkpt lat="44.26312" lon="3.54604">
        <ele>1166.6</ele>
        <time>2015-08-22T13:12:16.853Z</time>
      </trkpt>
      <trkpt lat="44.26319" lon="3.54598">
        <ele>1167.4</ele>
        <time>2015-08-22T13:12:22.896Z</time>
      </trkpt>
      <trkpt lat="44.2632" lon="3.54597">
        <ele>1167.5</ele>
        <time>2015-08-22T13:12:23.877Z</time>
      </trkpt>
      <trkpt lat="44.26328" lon="3.54592">
        <ele>1167.8</ele>
        <time>2015-08-22T13:12:30.107Z</time>
      </trkpt>
      <trkpt lat="44.26329" lon="3.54591">
        <ele>1167.9</ele>
        <time>2015-08-22T13:12:30.866Z</time>
      </trkpt>
      <trkpt lat="44.26337" lon="3.54586">
        <ele>1168.5</ele>
        <time>2015-08-22T13:12:36.895Z</time>
      </trkpt>
      <trkpt lat="44.26338" lon="3.54586">
        <ele>1168.6</ele>
        <time>2015-08-22T13:12:37.852Z</time>
      </trkpt>
      <trkpt lat="44.26346" lon="3.54583">
        <ele>1169.3</ele>
        <time>2015-08-22T13:12:43.923Z</time>
      </trkpt>
      <trkpt lat="44.26347" lon="3.54583">
        <ele>1169.3</ele>
        <time>2015-08-22T13:12:44.855Z</time>
      </trkpt>
      <trkpt lat="44.26355" lon="3.54583">
        <ele>1169.3</ele>
        <time>2015-08-22T13:12:51.899Z</time>
      </trkpt>
      <trkpt lat="44.26357" lon="3.54582">
        <ele>1169.3</ele>
        <time>2015-08-22T13:12:52.852Z</time>
      </trkpt>
      <trkpt lat="44.26365" lon="3.5458">
        <ele>1169.6</ele>
        <time>2015-08-22T13:12:58.924Z</time>
      </trkpt>
      <trkpt lat="44.26366" lon="3.5458">
        <ele>1169.8</ele>
        <time>2015-08-22T13:12:59.877Z</time>
      </trkpt>
      <trkpt lat="44.26375" lon="3.5458">
        <ele>1171</ele>
        <time>2015-08-22T13:13:06.921Z</time>
      </trkpt>
      <trkpt lat="44.26376" lon="3.5458">
        <ele>1170.9</ele>
        <time>2015-08-22T13:13:07.878Z</time>
      </trkpt>
      <trkpt lat="44.26385" lon="3.54578">
        <ele>1171.6</ele>
        <time>2015-08-22T13:13:14.934Z</time>
      </trkpt>
      <trkpt lat="44.26386" lon="3.54577">
        <ele>1171.7</ele>
        <time>2015-08-22T13:13:16.195Z</time>
      </trkpt>
      <trkpt lat="44.26393" lon="3.54575">
        <ele>1172.4</ele>
        <time>2015-08-22T13:13:29.889Z</time>
      </trkpt>
      <trkpt lat="44.26396" lon="3.54576">
        <ele>1172.5</ele>
        <time>2015-08-22T13:13:30.866Z</time>
      </trkpt>
      <trkpt lat="44.26404" lon="3.54573">
        <ele>1173.1</ele>
        <time>2015-08-22T13:13:38.932Z</time>
      </trkpt>
      <trkpt lat="44.26405" lon="3.54573">
        <ele>1173.4</ele>
        <time>2015-08-22T13:13:39.864Z</time>
      </trkpt>
      <trkpt lat="44.26414" lon="3.54572">
        <ele>1174</ele>
        <time>2015-08-22T13:13:48.199Z</time>
      </trkpt>
      <trkpt lat="44.26415" lon="3.54572">
        <ele>1174</ele>
        <time>2015-08-22T13:13:48.862Z</time>
      </trkpt>
      <trkpt lat="44.26423" lon="3.54573">
        <ele>1174.3</ele>
        <time>2015-08-22T13:14:10.932Z</time>
      </trkpt>
      <trkpt lat="44.26424" lon="3.54574">
        <ele>1174.4</ele>
        <time>2015-08-22T13:14:11.853Z</time>
      </trkpt>
      <trkpt lat="44.26433" lon="3.54577">
        <ele>1174.6</ele>
        <time>2015-08-22T13:14:18.924Z</time>
      </trkpt>
      <trkpt lat="44.26434" lon="3.54577">
        <ele>1174.6</ele>
        <time>2015-08-22T13:14:19.863Z</time>
      </trkpt>
      <trkpt lat="44.26443" lon="3.54578">
        <ele>1174.9</ele>
        <time>2015-08-22T13:14:26.961Z</time>
      </trkpt>
      <trkpt lat="44.26444" lon="3.54579">
        <ele>1175.1</ele>
        <time>2015-08-22T13:14:27.852Z</time>
      </trkpt>
      <trkpt lat="44.26452" lon="3.54582">
        <ele>1175.4</ele>
        <time>2015-08-22T13:14:33.919Z</time>
      </trkpt>
      <trkpt lat="44.26453" lon="3.54583">
        <ele>1175.5</ele>
        <time>2015-08-22T13:14:34.877Z</time>
      </trkpt>
      <trkpt lat="44.26462" lon="3.54586">
        <ele>1175.6</ele>
        <time>2015-08-22T13:14:41.955Z</time>
      </trkpt>
      <trkpt lat="44.26462" lon="3.54586">
        <ele>1175.8</ele>
        <time>2015-08-22T13:14:42.859Z</time>
      </trkpt>
      <trkpt lat="44.26471" lon="3.5459">
        <ele>1176</ele>
        <time>2015-08-22T13:14:49.899Z</time>
      </trkpt>
      <trkpt lat="44.26472" lon="3.54591">
        <ele>1176.1</ele>
        <time>2015-08-22T13:14:50.852Z</time>
      </trkpt>
      <trkpt lat="44.2648" lon="3.54594">
        <ele>1176.6</ele>
        <time>2015-08-22T13:14:57.903Z</time>
      </trkpt>
      <trkpt lat="44.26481" lon="3.54594">
        <ele>1176.7</ele>
        <time>2015-08-22T13:14:58.853Z</time>
      </trkpt>
      <trkpt lat="44.26489" lon="3.54596">
        <ele>1178</ele>
        <time>2015-08-22T13:15:06.909Z</time>
      </trkpt>
      <trkpt lat="44.26491" lon="3.54596">
        <ele>1178</ele>
        <time>2015-08-22T13:15:07.853Z</time>
      </trkpt>
      <trkpt lat="44.26499" lon="3.54597">
        <ele>1178.5</ele>
        <time>2015-08-22T13:15:15.899Z</time>
      </trkpt>
      <trkpt lat="44.265" lon="3.54597">
        <ele>1178.6</ele>
        <time>2015-08-22T13:15:16.865Z</time>
      </trkpt>
      <trkpt lat="44.26509" lon="3.546">
        <ele>1178.7</ele>
        <time>2015-08-22T13:15:24.921Z</time>
      </trkpt>
      <trkpt lat="44.2651" lon="3.546">
        <ele>1178.8</ele>
        <time>2015-08-22T13:15:25.853Z</time>
      </trkpt>
      <trkpt lat="44.26517" lon="3.54603">
        <ele>1179.2</ele>
        <time>2015-08-22T13:15:33.899Z</time>
      </trkpt>
      <trkpt lat="44.26518" lon="3.54603">
        <ele>1179.3</ele>
        <time>2015-08-22T13:15:34.855Z</time>
      </trkpt>
      <trkpt lat="44.26526" lon="3.54608">
        <ele>1180.3</ele>
        <time>2015-08-22T13:15:42.911Z</time>
      </trkpt>
      <trkpt lat="44.26527" lon="3.54608">
        <ele>1180.3</ele>
        <time>2015-08-22T13:15:43.853Z</time>
      </trkpt>
      <trkpt lat="44.26536" lon="3.54609">
        <ele>1181.4</ele>
        <time>2015-08-22T13:15:52.905Z</time>
      </trkpt>
      <trkpt lat="44.26537" lon="3.5461">
        <ele>1181.5</ele>
        <time>2015-08-22T13:15:53.854Z</time>
      </trkpt>
      <trkpt lat="44.26544" lon="3.54615">
        <ele>1182.5</ele>
        <time>2015-08-22T13:16:02.911Z</time>
      </trkpt>
      <trkpt lat="44.26545" lon="3.54615">
        <ele>1182.7</ele>
        <time>2015-08-22T13:16:03.853Z</time>
      </trkpt>
      <trkpt lat="44.26553" lon="3.54617">
        <ele>1183</ele>
        <time>2015-08-22T13:16:12.896Z</time>
      </trkpt>
      <trkpt lat="44.26554" lon="3.54617">
        <ele>1182.9</ele>
        <time>2015-08-22T13:16:13.852Z</time>
      </trkpt>
      <trkpt lat="44.26562" lon="3.54614">
        <ele>1183.2</ele>
        <time>2015-08-22T13:16:20.904Z</time>
      </trkpt>
      <trkpt lat="44.26563" lon="3.54615">
        <ele>1183.4</ele>
        <time>2015-08-22T13:16:21.855Z</time>
      </trkpt>
      <trkpt lat="44.26571" lon="3.54618">
        <ele>1184.2</ele>
        <time>2015-08-22T13:16:28.920Z</time>
      </trkpt>
      <trkpt lat="44.26572" lon="3.54618">
        <ele>1184.3</ele>
        <time>2015-08-22T13:16:29.855Z</time>
      </trkpt>
      <trkpt lat="44.2658" lon="3.54614">
        <ele>1185.7</ele>
        <time>2015-08-22T13:16:37.900Z</time>
      </trkpt>
      <trkpt lat="44.26581" lon="3.54613">
        <ele>1185.9</ele>
        <time>2015-08-22T13:16:38.854Z</time>
      </trkpt>
      <trkpt lat="44.26589" lon="3.54607">
        <ele>1186.8</ele>
        <time>2015-08-22T13:16:45.933Z</time>
      </trkpt>
      <trkpt lat="44.2659" lon="3.54606">
        <ele>1187.1</ele>
        <time>2015-08-22T13:16:46.864Z</time>
      </trkpt>
      <trkpt lat="44.26597" lon="3.54602">
        <ele>1188.4</ele>
        <time>2015-08-22T13:16:54.945Z</time>
      </trkpt>
      <trkpt lat="44.26598" lon="3.54601">
        <ele>1188.5</ele>
        <time>2015-08-22T13:16:55.855Z</time>
      </trkpt>
      <trkpt lat="44.26606" lon="3.54596">
        <ele>1188.8</ele>
        <time>2015-08-22T13:17:02.917Z</time>
      </trkpt>
      <trkpt lat="44.26607" lon="3.54595">
        <ele>1188.6</ele>
        <time>2015-08-22T13:17:03.855Z</time>
      </trkpt>
      <trkpt lat="44.26615" lon="3.54591">
        <ele>1188.8</ele>
        <time>2015-08-22T13:17:11.948Z</time>
      </trkpt>
      <trkpt lat="44.26616" lon="3.54591">
        <ele>1188.6</ele>
        <time>2015-08-22T13:17:12.856Z</time>
      </trkpt>
      <trkpt lat="44.26624" lon="3.54594">
        <ele>1188.6</ele>
        <time>2015-08-22T13:17:20.906Z</time>
      </trkpt>
      <trkpt lat="44.26625" lon="3.54594">
        <ele>1188.7</ele>
        <time>2015-08-22T13:17:21.855Z</time>
      </trkpt>
      <trkpt lat="44.26633" lon="3.54592">
        <ele>1189.3</ele>
        <time>2015-08-22T13:17:29.896Z</time>
      </trkpt>
      <trkpt lat="44.26634" lon="3.54592">
        <ele>1189.4</ele>
        <time>2015-08-22T13:17:30.856Z</time>
      </trkpt>
      <trkpt lat="44.26643" lon="3.54596">
        <ele>1189.8</ele>
        <time>2015-08-22T13:17:38.895Z</time>
      </trkpt>
      <trkpt lat="44.26644" lon="3.54596">
        <ele>1190</ele>
        <time>2015-08-22T13:17:39.852Z</time>
      </trkpt>
      <trkpt lat="44.26652" lon="3.54597">
        <ele>1189.4</ele>
        <time>2015-08-22T13:17:46.906Z</time>
      </trkpt>
      <trkpt lat="44.26653" lon="3.54597">
        <ele>1189.2</ele>
        <time>2015-08-22T13:17:48.061Z</time>
      </trkpt>
      <trkpt lat="44.26661" lon="3.546">
        <ele>1188.8</ele>
        <time>2015-08-22T13:17:53.918Z</time>
      </trkpt>
      <trkpt lat="44.26662" lon="3.54601">
        <ele>1188.8</ele>
        <time>2015-08-22T13:17:54.876Z</time>
      </trkpt>
      <trkpt lat="44.26671" lon="3.54602">
        <ele>1189.5</ele>
        <time>2015-08-22T13:18:02.904Z</time>
      </trkpt>
      <trkpt lat="44.26672" lon="3.54602">
        <ele>1189.7</ele>
        <time>2015-08-22T13:18:03.856Z</time>
      </trkpt>
      <trkpt lat="44.2668" lon="3.546">
        <ele>1191.2</ele>
        <time>2015-08-22T13:18:11.954Z</time>
      </trkpt>
      <trkpt lat="44.26681" lon="3.54599">
        <ele>1191.5</ele>
        <time>2015-08-22T13:18:12.881Z</time>
      </trkpt>
      <trkpt lat="44.26689" lon="3.54594">
        <ele>1193</ele>
        <time>2015-08-22T13:18:19.936Z</time>
      </trkpt>
      <trkpt lat="44.2669" lon="3.54594">
        <ele>1193.4</ele>
        <time>2015-08-22T13:18:20.857Z</time>
      </trkpt>
      <trkpt lat="44.26699" lon="3.54593">
        <ele>1195</ele>
        <time>2015-08-22T13:18:29.901Z</time>
      </trkpt>
      <trkpt lat="44.267" lon="3.54593">
        <ele>1195</ele>
        <time>2015-08-22T13:18:30.861Z</time>
      </trkpt>
      <trkpt lat="44.26709" lon="3.54594">
        <ele>1196.1</ele>
        <time>2015-08-22T13:18:38.902Z</time>
      </trkpt>
      <trkpt lat="44.2671" lon="3.54594">
        <ele>1196.1</ele>
        <time>2015-08-22T13:18:39.855Z</time>
      </trkpt>
      <trkpt lat="44.26718" lon="3.54597">
        <ele>1197.2</ele>
        <time>2015-08-22T13:18:47.901Z</time>
      </trkpt>
      <trkpt lat="44.26719" lon="3.54598">
        <ele>1197.3</ele>
        <time>2015-08-22T13:18:48.890Z</time>
      </trkpt>
      <trkpt lat="44.26727" lon="3.54603">
        <ele>1197</ele>
        <time>2015-08-22T13:18:55.925Z</time>
      </trkpt>
      <trkpt lat="44.26728" lon="3.54604">
        <ele>1197</ele>
        <time>2015-08-22T13:18:56.854Z</time>
      </trkpt>
      <trkpt lat="44.26735" lon="3.54609">
        <ele>1197.4</ele>
        <time>2015-08-22T13:19:04.133Z</time>
      </trkpt>
      <trkpt lat="44.26737" lon="3.5461">
        <ele>1197.5</ele>
        <time>2015-08-22T13:19:04.852Z</time>
      </trkpt>
      <trkpt lat="44.26744" lon="3.54615">
        <ele>1198.1</ele>
        <time>2015-08-22T13:19:11.936Z</time>
      </trkpt>
      <trkpt lat="44.26745" lon="3.54616">
        <ele>1198.2</ele>
        <time>2015-08-22T13:19:12.855Z</time>
      </trkpt>
      <trkpt lat="44.26753" lon="3.5462">
        <ele>1199.6</ele>
        <time>2015-08-22T13:19:20.901Z</time>
      </trkpt>
      <trkpt lat="44.26754" lon="3.5462">
        <ele>1199.6</ele>
        <time>2015-08-22T13:19:21.853Z</time>
      </trkpt>
      <trkpt lat="44.26761" lon="3.54623">
        <ele>1200.2</ele>
        <time>2015-08-22T13:19:28.903Z</time>
      </trkpt>
      <trkpt lat="44.26763" lon="3.54624">
        <ele>1200.2</ele>
        <time>2015-08-22T13:19:29.852Z</time>
      </trkpt>
      <trkpt lat="44.26771" lon="3.54627">
        <ele>1201.3</ele>
        <time>2015-08-22T13:19:37.899Z</time>
      </trkpt>
      <trkpt lat="44.26772" lon="3.54627">
        <ele>1201.4</ele>
        <time>2015-08-22T13:19:38.858Z</time>
      </trkpt>
      <trkpt lat="44.2678" lon="3.54631">
        <ele>1202.7</ele>
        <time>2015-08-22T13:19:46.902Z</time>
      </trkpt>
      <trkpt lat="44.26781" lon="3.54631">
        <ele>1202.8</ele>
        <time>2015-08-22T13:19:47.852Z</time>
      </trkpt>
      <trkpt lat="44.26788" lon="3.54635">
        <ele>1203.6</ele>
        <time>2015-08-22T13:19:54.903Z</time>
      </trkpt>
      <trkpt lat="44.26789" lon="3.54636">
        <ele>1203.6</ele>
        <time>2015-08-22T13:19:55.853Z</time>
      </trkpt>
      <trkpt lat="44.26797" lon="3.5464">
        <ele>1204.6</ele>
        <time>2015-08-22T13:20:03.901Z</time>
      </trkpt>
      <trkpt lat="44.26798" lon="3.5464">
        <ele>1204.7</ele>
        <time>2015-08-22T13:20:04.855Z</time>
      </trkpt>
      <trkpt lat="44.26806" lon="3.54643">
        <ele>1205.6</ele>
        <time>2015-08-22T13:20:13.903Z</time>
      </trkpt>
      <trkpt lat="44.26807" lon="3.54644">
        <ele>1205.7</ele>
        <time>2015-08-22T13:20:14.856Z</time>
      </trkpt>
      <trkpt lat="44.26815" lon="3.54647">
        <ele>1206.9</ele>
        <time>2015-08-22T13:20:22.901Z</time>
      </trkpt>
      <trkpt lat="44.26816" lon="3.54647">
        <ele>1207.1</ele>
        <time>2015-08-22T13:20:23.853Z</time>
      </trkpt>
      <trkpt lat="44.26824" lon="3.54648">
        <ele>1208.5</ele>
        <time>2015-08-22T13:20:31.907Z</time>
      </trkpt>
      <trkpt lat="44.26825" lon="3.54649">
        <ele>1208.4</ele>
        <time>2015-08-22T13:20:32.860Z</time>
      </trkpt>
      <trkpt lat="44.26833" lon="3.54653">
        <ele>1209</ele>
        <time>2015-08-22T13:20:39.946Z</time>
      </trkpt>
      <trkpt lat="44.26833" lon="3.54654">
        <ele>1209.3</ele>
        <time>2015-08-22T13:20:40.857Z</time>
      </trkpt>
      <trkpt lat="44.26841" lon="3.54658">
        <ele>1210.1</ele>
        <time>2015-08-22T13:20:48.922Z</time>
      </trkpt>
      <trkpt lat="44.26842" lon="3.54659">
        <ele>1210.2</ele>
        <time>2015-08-22T13:20:49.864Z</time>
      </trkpt>
      <trkpt lat="44.2685" lon="3.54664">
        <ele>1211.3</ele>
        <time>2015-08-22T13:20:58.247Z</time>
      </trkpt>
      <trkpt lat="44.26851" lon="3.54665">
        <ele>1211.5</ele>
        <time>2015-08-22T13:20:58.855Z</time>
      </trkpt>
      <trkpt lat="44.26858" lon="3.54669">
        <ele>1213</ele>
        <time>2015-08-22T13:21:04.916Z</time>
      </trkpt>
      <trkpt lat="44.26859" lon="3.5467">
        <ele>1213.2</ele>
        <time>2015-08-22T13:21:05.865Z</time>
      </trkpt>
      <trkpt lat="44.26867" lon="3.54674">
        <ele>1215.3</ele>
        <time>2015-08-22T13:21:13.903Z</time>
      </trkpt>
      <trkpt lat="44.26868" lon="3.54674">
        <ele>1215.5</ele>
        <time>2015-08-22T13:21:14.857Z</time>
      </trkpt>
      <trkpt lat="44.26875" lon="3.54677">
        <ele>1217.2</ele>
        <time>2015-08-22T13:21:24.316Z</time>
      </trkpt>
      <trkpt lat="44.26876" lon="3.54677">
        <ele>1217.5</ele>
        <time>2015-08-22T13:21:24.857Z</time>
      </trkpt>
      <trkpt lat="44.26885" lon="3.5468">
        <ele>1219.9</ele>
        <time>2015-08-22T13:21:34.903Z</time>
      </trkpt>
      <trkpt lat="44.26886" lon="3.5468">
        <ele>1220.1</ele>
        <time>2015-08-22T13:21:35.853Z</time>
      </trkpt>
      <trkpt lat="44.26893" lon="3.54686">
        <ele>1222.5</ele>
        <time>2015-08-22T13:21:45.058Z</time>
      </trkpt>
      <trkpt lat="44.26894" lon="3.54687">
        <ele>1222.7</ele>
        <time>2015-08-22T13:21:45.853Z</time>
      </trkpt>
      <trkpt lat="44.26902" lon="3.54691">
        <ele>1225.2</ele>
        <time>2015-08-22T13:21:54.915Z</time>
      </trkpt>
      <trkpt lat="44.26902" lon="3.54691">
        <ele>1225.4</ele>
        <time>2015-08-22T13:21:55.864Z</time>
      </trkpt>
      <trkpt lat="44.26911" lon="3.54692">
        <ele>1227</ele>
        <time>2015-08-22T13:22:03.892Z</time>
      </trkpt>
      <trkpt lat="44.26911" lon="3.54693">
        <ele>1227.1</ele>
        <time>2015-08-22T13:22:04.856Z</time>
      </trkpt>
      <trkpt lat="44.26919" lon="3.54699">
        <ele>1228.4</ele>
        <time>2015-08-22T13:22:12.899Z</time>
      </trkpt>
      <trkpt lat="44.2692" lon="3.547">
        <ele>1228.4</ele>
        <time>2015-08-22T13:22:13.856Z</time>
      </trkpt>
      <trkpt lat="44.26927" lon="3.54707">
        <ele>1229.6</ele>
        <time>2015-08-22T13:22:21.895Z</time>
      </trkpt>
      <trkpt lat="44.26928" lon="3.54708">
        <ele>1229.8</ele>
        <time>2015-08-22T13:22:22.857Z</time>
      </trkpt>
      <trkpt lat="44.26935" lon="3.54712">
        <ele>1231.1</ele>
        <time>2015-08-22T13:22:30.932Z</time>
      </trkpt>
      <trkpt lat="44.26936" lon="3.54713">
        <ele>1231.2</ele>
        <time>2015-08-22T13:22:31.864Z</time>
      </trkpt>
      <trkpt lat="44.26944" lon="3.54716">
        <ele>1232.7</ele>
        <time>2015-08-22T13:22:40.931Z</time>
      </trkpt>
      <trkpt lat="44.26945" lon="3.54716">
        <ele>1232.7</ele>
        <time>2015-08-22T13:22:41.853Z</time>
      </trkpt>
      <trkpt lat="44.26953" lon="3.5472">
        <ele>1233.8</ele>
        <time>2015-08-22T13:22:52.895Z</time>
      </trkpt>
      <trkpt lat="44.26954" lon="3.5472">
        <ele>1233.9</ele>
        <time>2015-08-22T13:22:53.855Z</time>
      </trkpt>
      <trkpt lat="44.26962" lon="3.54725">
        <ele>1234</ele>
        <time>2015-08-22T13:23:10.887Z</time>
      </trkpt>
      <trkpt lat="44.26963" lon="3.54725">
        <ele>1234.3</ele>
        <time>2015-08-22T13:23:11.851Z</time>
      </trkpt>
      <trkpt lat="44.2697" lon="3.54731">
        <ele>1234.7</ele>
        <time>2015-08-22T13:23:20.893Z</time>
      </trkpt>
      <trkpt lat="44.26971" lon="3.54731">
        <ele>1234.8</ele>
        <time>2015-08-22T13:23:21.854Z</time>
      </trkpt>
      <trkpt lat="44.26977" lon="3.54741">
        <ele>1237.1</ele>
        <time>2015-08-22T13:24:04.897Z</time>
      </trkpt>
      <trkpt lat="44.26977" lon="3.54741">
        <ele>1237.2</ele>
        <time>2015-08-22T13:24:05.857Z</time>
      </trkpt>
      <trkpt lat="44.26983" lon="3.54732">
        <ele>1242.8</ele>
        <time>2015-08-22T13:26:11.902Z</time>
      </trkpt>
      <trkpt lat="44.26984" lon="3.54731">
        <ele>1242.8</ele>
        <time>2015-08-22T13:26:12.853Z</time>
      </trkpt>
      <trkpt lat="44.26975" lon="3.54735">
        <ele>1243.9</ele>
        <time>2015-08-22T13:28:39.893Z</time>
      </trkpt>
      <trkpt lat="44.26975" lon="3.54735">
        <ele>1243.9</ele>
        <time>2015-08-22T13:28:40.856Z</time>
      </trkpt>
      <trkpt lat="44.26967" lon="3.54732">
        <ele>1242.4</ele>
        <time>2015-08-22T13:32:45.894Z</time>
      </trkpt>
      <trkpt lat="44.26965" lon="3.54731">
        <ele>1242.4</ele>
        <time>2015-08-22T13:32:46.852Z</time>
      </trkpt>
      <trkpt lat="44.26959" lon="3.54723">
        <ele>1242.1</ele>
        <time>2015-08-22T13:32:56.914Z</time>
      </trkpt>
      <trkpt lat="44.26958" lon="3.54723">
        <ele>1242</ele>
        <time>2015-08-22T13:32:57.854Z</time>
      </trkpt>
      <trkpt lat="44.26954" lon="3.54713">
        <ele>1241.7</ele>
        <time>2015-08-22T13:33:14.893Z</time>
      </trkpt>
      <trkpt lat="44.26953" lon="3.54711">
        <ele>1241.7</ele>
        <time>2015-08-22T13:33:15.854Z</time>
      </trkpt>
      <trkpt lat="44.26946" lon="3.54704">
        <ele>1241.7</ele>
        <time>2015-08-22T13:33:24.896Z</time>
      </trkpt>
      <trkpt lat="44.26945" lon="3.54704">
        <ele>1241.5</ele>
        <time>2015-08-22T13:33:25.858Z</time>
      </trkpt>
      <trkpt lat="44.26936" lon="3.54703">
        <ele>1240.3</ele>
        <time>2015-08-22T13:33:38.918Z</time>
      </trkpt>
      <trkpt lat="44.26935" lon="3.54703">
        <ele>1240.2</ele>
        <time>2015-08-22T13:33:39.849Z</time>
      </trkpt>
      <trkpt lat="44.26927" lon="3.54701">
        <ele>1238.7</ele>
        <time>2015-08-22T13:33:48.268Z</time>
      </trkpt>
      <trkpt lat="44.26926" lon="3.547">
        <ele>1238.6</ele>
        <time>2015-08-22T13:33:48.858Z</time>
      </trkpt>
      <trkpt lat="44.26918" lon="3.54696">
        <ele>1237</ele>
        <time>2015-08-22T13:33:55.893Z</time>
      </trkpt>
      <trkpt lat="44.26917" lon="3.54696">
        <ele>1236.8</ele>
        <time>2015-08-22T13:33:56.853Z</time>
      </trkpt>
      <trkpt lat="44.2691" lon="3.54691">
        <ele>1235.9</ele>
        <time>2015-08-22T13:34:03.895Z</time>
      </trkpt>
      <trkpt lat="44.26908" lon="3.54691">
        <ele>1235.8</ele>
        <time>2015-08-22T13:34:04.850Z</time>
      </trkpt>
      <trkpt lat="44.26901" lon="3.54685">
        <ele>1234.9</ele>
        <time>2015-08-22T13:34:13.968Z</time>
      </trkpt>
      <trkpt lat="44.269" lon="3.54685">
        <ele>1234.7</ele>
        <time>2015-08-22T13:34:14.854Z</time>
      </trkpt>
      <trkpt lat="44.26892" lon="3.54681">
        <ele>1232.6</ele>
        <time>2015-08-22T13:34:23.904Z</time>
      </trkpt>
      <trkpt lat="44.26891" lon="3.5468">
        <ele>1232.4</ele>
        <time>2015-08-22T13:34:24.855Z</time>
      </trkpt>
      <trkpt lat="44.26883" lon="3.54675">
        <ele>1230.1</ele>
        <time>2015-08-22T13:34:32.896Z</time>
      </trkpt>
      <trkpt lat="44.26882" lon="3.54675">
        <ele>1229.9</ele>
        <time>2015-08-22T13:34:33.853Z</time>
      </trkpt>
      <trkpt lat="44.26874" lon="3.54671">
        <ele>1227.8</ele>
        <time>2015-08-22T13:34:41.918Z</time>
      </trkpt>
      <trkpt lat="44.26873" lon="3.54671">
        <ele>1227.5</ele>
        <time>2015-08-22T13:34:42.912Z</time>
      </trkpt>
      <trkpt lat="44.26865" lon="3.54669">
        <ele>1224.7</ele>
        <time>2015-08-22T13:34:49.918Z</time>
      </trkpt>
      <trkpt lat="44.26863" lon="3.54669">
        <ele>1224.5</ele>
        <time>2015-08-22T13:34:50.852Z</time>
      </trkpt>
      <trkpt lat="44.26856" lon="3.54666">
        <ele>1222.8</ele>
        <time>2015-08-22T13:34:56.924Z</time>
      </trkpt>
      <trkpt lat="44.26854" lon="3.54665">
        <ele>1222.5</ele>
        <time>2015-08-22T13:34:57.863Z</time>
      </trkpt>
      <trkpt lat="44.26847" lon="3.54661">
        <ele>1220.7</ele>
        <time>2015-08-22T13:35:03.918Z</time>
      </trkpt>
      <trkpt lat="44.26845" lon="3.54661">
        <ele>1220.4</ele>
        <time>2015-08-22T13:35:04.856Z</time>
      </trkpt>
      <trkpt lat="44.26838" lon="3.54656">
        <ele>1218.5</ele>
        <time>2015-08-22T13:35:10.947Z</time>
      </trkpt>
      <trkpt lat="44.26836" lon="3.54656">
        <ele>1218.3</ele>
        <time>2015-08-22T13:35:11.865Z</time>
      </trkpt>
      <trkpt lat="44.26829" lon="3.54653">
        <ele>1216.8</ele>
        <time>2015-08-22T13:35:17.891Z</time>
      </trkpt>
      <trkpt lat="44.26828" lon="3.54652">
        <ele>1216.5</ele>
        <time>2015-08-22T13:35:18.857Z</time>
      </trkpt>
      <trkpt lat="44.26819" lon="3.54648">
        <ele>1215.4</ele>
        <time>2015-08-22T13:35:25.901Z</time>
      </trkpt>
      <trkpt lat="44.26818" lon="3.54648">
        <ele>1215.1</ele>
        <time>2015-08-22T13:35:26.857Z</time>
      </trkpt>
      <trkpt lat="44.2681" lon="3.54643">
        <ele>1214</ele>
        <time>2015-08-22T13:35:33.894Z</time>
      </trkpt>
      <trkpt lat="44.26809" lon="3.54643">
        <ele>1213.8</ele>
        <time>2015-08-22T13:35:34.852Z</time>
      </trkpt>
      <trkpt lat="44.26801" lon="3.5464">
        <ele>1212.8</ele>
        <time>2015-08-22T13:35:41.889Z</time>
      </trkpt>
      <trkpt lat="44.268" lon="3.5464">
        <ele>1212.6</ele>
        <time>2015-08-22T13:35:42.869Z</time>
      </trkpt>
      <trkpt lat="44.26792" lon="3.54637">
        <ele>1210.8</ele>
        <time>2015-08-22T13:35:49.892Z</time>
      </trkpt>
      <trkpt lat="44.26791" lon="3.54636">
        <ele>1210.7</ele>
        <time>2015-08-22T13:35:50.855Z</time>
      </trkpt>
      <trkpt lat="44.26783" lon="3.54631">
        <ele>1208.7</ele>
        <time>2015-08-22T13:35:56.887Z</time>
      </trkpt>
      <trkpt lat="44.26782" lon="3.5463">
        <ele>1208.3</ele>
        <time>2015-08-22T13:35:57.881Z</time>
      </trkpt>
      <trkpt lat="44.26774" lon="3.54626">
        <ele>1206.5</ele>
        <time>2015-08-22T13:36:03.893Z</time>
      </trkpt>
      <trkpt lat="44.26773" lon="3.54625">
        <ele>1206.2</ele>
        <time>2015-08-22T13:36:04.867Z</time>
      </trkpt>
      <trkpt lat="44.26766" lon="3.54621">
        <ele>1205</ele>
        <time>2015-08-22T13:36:09.893Z</time>
      </trkpt>
      <trkpt lat="44.26764" lon="3.54621">
        <ele>1204.9</ele>
        <time>2015-08-22T13:36:10.854Z</time>
      </trkpt>
      <trkpt lat="44.26757" lon="3.54618">
        <ele>1203.8</ele>
        <time>2015-08-22T13:36:15.902Z</time>
      </trkpt>
      <trkpt lat="44.26755" lon="3.54617">
        <ele>1203.6</ele>
        <time>2015-08-22T13:36:16.855Z</time>
      </trkpt>
      <trkpt lat="44.26749" lon="3.54612">
        <ele>1202.5</ele>
        <time>2015-08-22T13:36:21.921Z</time>
      </trkpt>
      <trkpt lat="44.26747" lon="3.54611">
        <ele>1202.2</ele>
        <time>2015-08-22T13:36:23.185Z</time>
      </trkpt>
      <trkpt lat="44.2674" lon="3.54605">
        <ele>1201.4</ele>
        <time>2015-08-22T13:36:30.056Z</time>
      </trkpt>
      <trkpt lat="44.26739" lon="3.54604">
        <ele>1201.4</ele>
        <time>2015-08-22T13:36:30.861Z</time>
      </trkpt>
      <trkpt lat="44.26731" lon="3.54599">
        <ele>1200.9</ele>
        <time>2015-08-22T13:36:37.092Z</time>
      </trkpt>
      <trkpt lat="44.2673" lon="3.54599">
        <ele>1200.9</ele>
        <time>2015-08-22T13:36:37.851Z</time>
      </trkpt>
      <trkpt lat="44.26722" lon="3.54597">
        <ele>1200.4</ele>
        <time>2015-08-22T13:36:44.314Z</time>
      </trkpt>
      <trkpt lat="44.26721" lon="3.54596">
        <ele>1200.2</ele>
        <time>2015-08-22T13:36:44.854Z</time>
      </trkpt>
      <trkpt lat="44.26713" lon="3.54593">
        <ele>1199.6</ele>
        <time>2015-08-22T13:36:50.894Z</time>
      </trkpt>
      <trkpt lat="44.26712" lon="3.54593">
        <ele>1199.6</ele>
        <time>2015-08-22T13:36:51.851Z</time>
      </trkpt>
      <trkpt lat="44.26704" lon="3.54591">
        <ele>1199.2</ele>
        <time>2015-08-22T13:36:57.902Z</time>
      </trkpt>
      <trkpt lat="44.26703" lon="3.54591">
        <ele>1199</ele>
        <time>2015-08-22T13:36:58.855Z</time>
      </trkpt>
      <trkpt lat="44.26694" lon="3.54591">
        <ele>1197.6</ele>
        <time>2015-08-22T13:37:05.914Z</time>
      </trkpt>
      <trkpt lat="44.26692" lon="3.54591">
        <ele>1197.5</ele>
        <time>2015-08-22T13:37:06.855Z</time>
      </trkpt>
      <trkpt lat="44.26684" lon="3.5459">
        <ele>1197.6</ele>
        <time>2015-08-22T13:37:13.902Z</time>
      </trkpt>
      <trkpt lat="44.26683" lon="3.5459">
        <ele>1197.6</ele>
        <time>2015-08-22T13:37:14.852Z</time>
      </trkpt>
      <trkpt lat="44.26675" lon="3.54591">
        <ele>1197.6</ele>
        <time>2015-08-22T13:37:21.920Z</time>
      </trkpt>
      <trkpt lat="44.26674" lon="3.54591">
        <ele>1197.5</ele>
        <time>2015-08-22T13:37:22.867Z</time>
      </trkpt>
      <trkpt lat="44.26665" lon="3.54591">
        <ele>1196.9</ele>
        <time>2015-08-22T13:37:29.149Z</time>
      </trkpt>
      <trkpt lat="44.26664" lon="3.54591">
        <ele>1196.7</ele>
        <time>2015-08-22T13:37:29.852Z</time>
      </trkpt>
      <trkpt lat="44.26656" lon="3.54593">
        <ele>1195.9</ele>
        <time>2015-08-22T13:37:35.902Z</time>
      </trkpt>
      <trkpt lat="44.26654" lon="3.54593">
        <ele>1195.8</ele>
        <time>2015-08-22T13:37:36.861Z</time>
      </trkpt>
      <trkpt lat="44.26646" lon="3.54595">
        <ele>1195.5</ele>
        <time>2015-08-22T13:37:42.904Z</time>
      </trkpt>
      <trkpt lat="44.26645" lon="3.54595">
        <ele>1195.4</ele>
        <time>2015-08-22T13:37:43.853Z</time>
      </trkpt>
      <trkpt lat="44.26636" lon="3.54592">
        <ele>1195.3</ele>
        <time>2015-08-22T13:37:50.904Z</time>
      </trkpt>
      <trkpt lat="44.26635" lon="3.54592">
        <ele>1195.3</ele>
        <time>2015-08-22T13:37:51.865Z</time>
      </trkpt>
      <trkpt lat="44.26626" lon="3.54591">
        <ele>1195.5</ele>
        <time>2015-08-22T13:37:58.896Z</time>
      </trkpt>
      <trkpt lat="44.26625" lon="3.54591">
        <ele>1195.5</ele>
        <time>2015-08-22T13:37:59.849Z</time>
      </trkpt>
      <trkpt lat="44.26617" lon="3.54593">
        <ele>1195.1</ele>
        <time>2015-08-22T13:38:07.903Z</time>
      </trkpt>
      <trkpt lat="44.26616" lon="3.54593">
        <ele>1195</ele>
        <time>2015-08-22T13:38:08.854Z</time>
      </trkpt>
      <trkpt lat="44.26607" lon="3.54594">
        <ele>1194.1</ele>
        <time>2015-08-22T13:38:15.901Z</time>
      </trkpt>
      <trkpt lat="44.26606" lon="3.54594">
        <ele>1193.9</ele>
        <time>2015-08-22T13:38:16.853Z</time>
      </trkpt>
      <trkpt lat="44.26597" lon="3.54592">
        <ele>1192.7</ele>
        <time>2015-08-22T13:38:23.912Z</time>
      </trkpt>
      <trkpt lat="44.26596" lon="3.54592">
        <ele>1192.4</ele>
        <time>2015-08-22T13:38:24.854Z</time>
      </trkpt>
      <trkpt lat="44.26588" lon="3.54592">
        <ele>1191</ele>
        <time>2015-08-22T13:38:32.908Z</time>
      </trkpt>
      <trkpt lat="44.26587" lon="3.54592">
        <ele>1190.8</ele>
        <time>2015-08-22T13:38:33.851Z</time>
      </trkpt>
      <trkpt lat="44.26578" lon="3.54592">
        <ele>1189.9</ele>
        <time>2015-08-22T13:38:40.910Z</time>
      </trkpt>
      <trkpt lat="44.26577" lon="3.54592">
        <ele>1189.8</ele>
        <time>2015-08-22T13:38:41.851Z</time>
      </trkpt>
      <trkpt lat="44.26569" lon="3.5459">
        <ele>1189.8</ele>
        <time>2015-08-22T13:39:02.020Z</time>
      </trkpt>
      <trkpt lat="44.26568" lon="3.5459">
        <ele>1189.8</ele>
        <time>2015-08-22T13:39:02.852Z</time>
      </trkpt>
      <trkpt lat="44.26559" lon="3.54589">
        <ele>1188.7</ele>
        <time>2015-08-22T13:39:09.941Z</time>
      </trkpt>
      <trkpt lat="44.26557" lon="3.54589">
        <ele>1188.5</ele>
        <time>2015-08-22T13:39:10.864Z</time>
      </trkpt>
      <trkpt lat="44.26549" lon="3.54588">
        <ele>1187</ele>
        <time>2015-08-22T13:39:17.908Z</time>
      </trkpt>
      <trkpt lat="44.26547" lon="3.54587">
        <ele>1186.8</ele>
        <time>2015-08-22T13:39:18.868Z</time>
      </trkpt>
      <trkpt lat="44.26539" lon="3.54584">
        <ele>1185.4</ele>
        <time>2015-08-22T13:39:25.899Z</time>
      </trkpt>
      <trkpt lat="44.26538" lon="3.54584">
        <ele>1185.1</ele>
        <time>2015-08-22T13:39:26.864Z</time>
      </trkpt>
      <trkpt lat="44.26529" lon="3.54583">
        <ele>1183.5</ele>
        <time>2015-08-22T13:39:32.903Z</time>
      </trkpt>
      <trkpt lat="44.26528" lon="3.54582">
        <ele>1183.3</ele>
        <time>2015-08-22T13:39:33.877Z</time>
      </trkpt>
      <trkpt lat="44.2652" lon="3.54583">
        <ele>1182.3</ele>
        <time>2015-08-22T13:39:39.909Z</time>
      </trkpt>
      <trkpt lat="44.26519" lon="3.54583">
        <ele>1181.9</ele>
        <time>2015-08-22T13:39:40.864Z</time>
      </trkpt>
      <trkpt lat="44.2651" lon="3.54583">
        <ele>1180.6</ele>
        <time>2015-08-22T13:39:47.980Z</time>
      </trkpt>
      <trkpt lat="44.26509" lon="3.54583">
        <ele>1180.3</ele>
        <time>2015-08-22T13:39:48.856Z</time>
      </trkpt>
      <trkpt lat="44.26501" lon="3.54581">
        <ele>1179</ele>
        <time>2015-08-22T13:39:57.003Z</time>
      </trkpt>
      <trkpt lat="44.26499" lon="3.54581">
        <ele>1178.9</ele>
        <time>2015-08-22T13:39:57.851Z</time>
      </trkpt>
      <trkpt lat="44.26492" lon="3.54581">
        <ele>1178.3</ele>
        <time>2015-08-22T13:40:20.901Z</time>
      </trkpt>
      <trkpt lat="44.2649" lon="3.54581">
        <ele>1178.5</ele>
        <time>2015-08-22T13:40:21.863Z</time>
      </trkpt>
      <trkpt lat="44.26482" lon="3.54581">
        <ele>1178.1</ele>
        <time>2015-08-22T13:40:27.908Z</time>
      </trkpt>
      <trkpt lat="44.26481" lon="3.54581">
        <ele>1177.9</ele>
        <time>2015-08-22T13:40:28.864Z</time>
      </trkpt>
      <trkpt lat="44.26473" lon="3.54581">
        <ele>1176.8</ele>
        <time>2015-08-22T13:40:34.901Z</time>
      </trkpt>
      <trkpt lat="44.26471" lon="3.54581">
        <ele>1176.6</ele>
        <time>2015-08-22T13:40:35.878Z</time>
      </trkpt>
      <trkpt lat="44.26463" lon="3.5458">
        <ele>1174.9</ele>
        <time>2015-08-22T13:40:41.911Z</time>
      </trkpt>
      <trkpt lat="44.26462" lon="3.5458">
        <ele>1174.7</ele>
        <time>2015-08-22T13:40:42.855Z</time>
      </trkpt>
      <trkpt lat="44.26453" lon="3.54578">
        <ele>1173.9</ele>
        <time>2015-08-22T13:40:48.922Z</time>
      </trkpt>
      <trkpt lat="44.26452" lon="3.54578">
        <ele>1173.9</ele>
        <time>2015-08-22T13:40:49.859Z</time>
      </trkpt>
      <trkpt lat="44.26444" lon="3.54577">
        <ele>1173.7</ele>
        <time>2015-08-22T13:40:55.913Z</time>
      </trkpt>
      <trkpt lat="44.26443" lon="3.54576">
        <ele>1173.6</ele>
        <time>2015-08-22T13:40:56.853Z</time>
      </trkpt>
      <trkpt lat="44.26435" lon="3.54573">
        <ele>1173.3</ele>
        <time>2015-08-22T13:41:02.904Z</time>
      </trkpt>
      <trkpt lat="44.26433" lon="3.54573">
        <ele>1173.3</ele>
        <time>2015-08-22T13:41:03.862Z</time>
      </trkpt>
      <trkpt lat="44.26425" lon="3.54571">
        <ele>1172.9</ele>
        <time>2015-08-22T13:41:10.940Z</time>
      </trkpt>
      <trkpt lat="44.26424" lon="3.54571">
        <ele>1172.9</ele>
        <time>2015-08-22T13:41:11.854Z</time>
      </trkpt>
      <trkpt lat="44.26416" lon="3.54569">
        <ele>1174.3</ele>
        <time>2015-08-22T13:41:31.055Z</time>
      </trkpt>
      <trkpt lat="44.26414" lon="3.54568">
        <ele>1174.4</ele>
        <time>2015-08-22T13:41:31.853Z</time>
      </trkpt>
      <trkpt lat="44.26406" lon="3.54568">
        <ele>1174.4</ele>
        <time>2015-08-22T13:41:38.358Z</time>
      </trkpt>
      <trkpt lat="44.26405" lon="3.54568">
        <ele>1174.4</ele>
        <time>2015-08-22T13:41:38.856Z</time>
      </trkpt>
      <trkpt lat="44.26397" lon="3.5457">
        <ele>1173.7</ele>
        <time>2015-08-22T13:41:44.936Z</time>
      </trkpt>
      <trkpt lat="44.26396" lon="3.5457">
        <ele>1173.5</ele>
        <time>2015-08-22T13:41:45.856Z</time>
      </trkpt>
      <trkpt lat="44.26387" lon="3.54569">
        <ele>1172.1</ele>
        <time>2015-08-22T13:41:51.903Z</time>
      </trkpt>
      <trkpt lat="44.26386" lon="3.54569">
        <ele>1171.9</ele>
        <time>2015-08-22T13:41:52.860Z</time>
      </trkpt>
      <trkpt lat="44.26377" lon="3.54569">
        <ele>1171</ele>
        <time>2015-08-22T13:41:58.919Z</time>
      </trkpt>
      <trkpt lat="44.26376" lon="3.54569">
        <ele>1170.8</ele>
        <time>2015-08-22T13:41:59.858Z</time>
      </trkpt>
      <trkpt lat="44.26367" lon="3.5457">
        <ele>1170.3</ele>
        <time>2015-08-22T13:42:05.899Z</time>
      </trkpt>
      <trkpt lat="44.26366" lon="3.54571">
        <ele>1170.2</ele>
        <time>2015-08-22T13:42:06.858Z</time>
      </trkpt>
      <trkpt lat="44.26359" lon="3.54576">
        <ele>1169.7</ele>
        <time>2015-08-22T13:42:12.943Z</time>
      </trkpt>
      <trkpt lat="44.26358" lon="3.54577">
        <ele>1169.5</ele>
        <time>2015-08-22T13:42:13.865Z</time>
      </trkpt>
      <trkpt lat="44.26351" lon="3.54583">
        <ele>1169.1</ele>
        <time>2015-08-22T13:42:19.894Z</time>
      </trkpt>
      <trkpt lat="44.26349" lon="3.54583">
        <ele>1168.9</ele>
        <time>2015-08-22T13:42:20.853Z</time>
      </trkpt>
      <trkpt lat="44.26342" lon="3.54588">
        <ele>1168.4</ele>
        <time>2015-08-22T13:42:25.905Z</time>
      </trkpt>
      <trkpt lat="44.26341" lon="3.54588">
        <ele>1168.3</ele>
        <time>2015-08-22T13:42:26.877Z</time>
      </trkpt>
      <trkpt lat="44.26333" lon="3.54592">
        <ele>1167</ele>
        <time>2015-08-22T13:42:32.934Z</time>
      </trkpt>
      <trkpt lat="44.26331" lon="3.54593">
        <ele>1166.9</ele>
        <time>2015-08-22T13:42:33.864Z</time>
      </trkpt>
      <trkpt lat="44.26324" lon="3.54598">
        <ele>1166.4</ele>
        <time>2015-08-22T13:42:39.905Z</time>
      </trkpt>
      <trkpt lat="44.26322" lon="3.54599">
        <ele>1166.3</ele>
        <time>2015-08-22T13:42:40.879Z</time>
      </trkpt>
      <trkpt lat="44.26315" lon="3.54605">
        <ele>1165.8</ele>
        <time>2015-08-22T13:42:46.908Z</time>
      </trkpt>
      <trkpt lat="44.26313" lon="3.54606">
        <ele>1165.7</ele>
        <time>2015-08-22T13:42:47.864Z</time>
      </trkpt>
      <trkpt lat="44.26306" lon="3.54609">
        <ele>1165</ele>
        <time>2015-08-22T13:42:53.913Z</time>
      </trkpt>
      <trkpt lat="44.26304" lon="3.54609">
        <ele>1164.9</ele>
        <time>2015-08-22T13:42:54.879Z</time>
      </trkpt>
      <trkpt lat="44.26296" lon="3.5461">
        <ele>1164.5</ele>
        <time>2015-08-22T13:43:00.901Z</time>
      </trkpt>
      <trkpt lat="44.26295" lon="3.5461">
        <ele>1164.5</ele>
        <time>2015-08-22T13:43:01.852Z</time>
      </trkpt>
      <trkpt lat="44.26287" lon="3.54612">
        <ele>1164.3</ele>
        <time>2015-08-22T13:43:07.907Z</time>
      </trkpt>
      <trkpt lat="44.26285" lon="3.54612">
        <ele>1164.3</ele>
        <time>2015-08-22T13:43:08.855Z</time>
      </trkpt>
      <trkpt lat="44.26277" lon="3.54613">
        <ele>1163.9</ele>
        <time>2015-08-22T13:43:14.978Z</time>
      </trkpt>
      <trkpt lat="44.26275" lon="3.54613">
        <ele>1163.8</ele>
        <time>2015-08-22T13:43:15.852Z</time>
      </trkpt>
      <trkpt lat="44.26267" lon="3.54613">
        <ele>1163.8</ele>
        <time>2015-08-22T13:43:21.918Z</time>
      </trkpt>
      <trkpt lat="44.26266" lon="3.54613">
        <ele>1163.7</ele>
        <time>2015-08-22T13:43:22.859Z</time>
      </trkpt>
      <trkpt lat="44.26257" lon="3.54614">
        <ele>1163.2</ele>
        <time>2015-08-22T13:43:28.920Z</time>
      </trkpt>
      <trkpt lat="44.26256" lon="3.54614">
        <ele>1163.1</ele>
        <time>2015-08-22T13:43:29.876Z</time>
      </trkpt>
      <trkpt lat="44.26248" lon="3.54615">
        <ele>1162.6</ele>
        <time>2015-08-22T13:43:35.921Z</time>
      </trkpt>
      <trkpt lat="44.26246" lon="3.54615">
        <ele>1162.4</ele>
        <time>2015-08-22T13:43:36.891Z</time>
      </trkpt>
      <trkpt lat="44.26238" lon="3.54615">
        <ele>1162.4</ele>
        <time>2015-08-22T13:43:42.919Z</time>
      </trkpt>
      <trkpt lat="44.26236" lon="3.54615">
        <ele>1162.3</ele>
        <time>2015-08-22T13:43:43.865Z</time>
      </trkpt>
      <trkpt lat="44.26228" lon="3.54615">
        <ele>1162</ele>
        <time>2015-08-22T13:43:49.919Z</time>
      </trkpt>
      <trkpt lat="44.26227" lon="3.54615">
        <ele>1161.9</ele>
        <time>2015-08-22T13:43:50.864Z</time>
      </trkpt>
      <trkpt lat="44.26218" lon="3.54616">
        <ele>1161.1</ele>
        <time>2015-08-22T13:43:56.909Z</time>
      </trkpt>
      <trkpt lat="44.26217" lon="3.54616">
        <ele>1161.1</ele>
        <time>2015-08-22T13:43:57.865Z</time>
      </trkpt>
      <trkpt lat="44.26209" lon="3.5462">
        <ele>1161.5</ele>
        <time>2015-08-22T13:44:04.897Z</time>
      </trkpt>
      <trkpt lat="44.26208" lon="3.54622">
        <ele>1161.6</ele>
        <time>2015-08-22T13:44:05.849Z</time>
      </trkpt>
      <trkpt lat="44.26202" lon="3.5463">
        <ele>1162.8</ele>
        <time>2015-08-22T13:44:13.095Z</time>
      </trkpt>
      <trkpt lat="44.26201" lon="3.54632">
        <ele>1162.9</ele>
        <time>2015-08-22T13:44:13.853Z</time>
      </trkpt>
      <trkpt lat="44.26195" lon="3.54639">
        <ele>1163.5</ele>
        <time>2015-08-22T13:44:19.908Z</time>
      </trkpt>
      <trkpt lat="44.26194" lon="3.5464">
        <ele>1163.6</ele>
        <time>2015-08-22T13:44:20.854Z</time>
      </trkpt>
      <trkpt lat="44.26189" lon="3.54647">
        <ele>1163.2</ele>
        <time>2015-08-22T13:44:25.901Z</time>
      </trkpt>
      <trkpt lat="44.26187" lon="3.54649">
        <ele>1163.2</ele>
        <time>2015-08-22T13:44:26.853Z</time>
      </trkpt>
      <trkpt lat="44.26181" lon="3.54656">
        <ele>1163.2</ele>
        <time>2015-08-22T13:44:33.327Z</time>
      </trkpt>
      <trkpt lat="44.2618" lon="3.54658">
        <ele>1163.1</ele>
        <time>2015-08-22T13:44:33.851Z</time>
      </trkpt>
      <trkpt lat="44.26173" lon="3.54665">
        <ele>1162.3</ele>
        <time>2015-08-22T13:44:39.902Z</time>
      </trkpt>
      <trkpt lat="44.26172" lon="3.54666">
        <ele>1162.1</ele>
        <time>2015-08-22T13:44:40.870Z</time>
      </trkpt>
      <trkpt lat="44.26165" lon="3.54673">
        <ele>1161.3</ele>
        <time>2015-08-22T13:44:46.933Z</time>
      </trkpt>
      <trkpt lat="44.26164" lon="3.54674">
        <ele>1161.2</ele>
        <time>2015-08-22T13:44:47.864Z</time>
      </trkpt>
      <trkpt lat="44.26157" lon="3.5468">
        <ele>1160.6</ele>
        <time>2015-08-22T13:44:53.918Z</time>
      </trkpt>
      <trkpt lat="44.26155" lon="3.54681">
        <ele>1160.6</ele>
        <time>2015-08-22T13:44:54.881Z</time>
      </trkpt>
      <trkpt lat="44.26148" lon="3.54686">
        <ele>1160.4</ele>
        <time>2015-08-22T13:45:00.964Z</time>
      </trkpt>
      <trkpt lat="44.26147" lon="3.54687">
        <ele>1160.3</ele>
        <time>2015-08-22T13:45:01.861Z</time>
      </trkpt>
      <trkpt lat="44.26139" lon="3.54691">
        <ele>1160</ele>
        <time>2015-08-22T13:45:07.920Z</time>
      </trkpt>
      <trkpt lat="44.26138" lon="3.54691">
        <ele>1159.8</ele>
        <time>2015-08-22T13:45:08.877Z</time>
      </trkpt>
      <trkpt lat="44.2613" lon="3.54694">
        <ele>1159</ele>
        <time>2015-08-22T13:45:15.181Z</time>
      </trkpt>
      <trkpt lat="44.26129" lon="3.54694">
        <ele>1158.8</ele>
        <time>2015-08-22T13:45:15.853Z</time>
      </trkpt>
      <trkpt lat="44.2612" lon="3.54696">
        <ele>1158</ele>
        <time>2015-08-22T13:45:21.893Z</time>
      </trkpt>
      <trkpt lat="44.26119" lon="3.54696">
        <ele>1157.8</ele>
        <time>2015-08-22T13:45:22.855Z</time>
      </trkpt>
      <trkpt lat="44.2611" lon="3.54696">
        <ele>1157.7</ele>
        <time>2015-08-22T13:45:28.933Z</time>
      </trkpt>
      <trkpt lat="44.26109" lon="3.54695">
        <ele>1157.6</ele>
        <time>2015-08-22T13:45:29.864Z</time>
      </trkpt>
      <trkpt lat="44.26101" lon="3.54696">
        <ele>1156.9</ele>
        <time>2015-08-22T13:45:35.886Z</time>
      </trkpt>
      <trkpt lat="44.26099" lon="3.54696">
        <ele>1156.9</ele>
        <time>2015-08-22T13:45:36.857Z</time>
      </trkpt>
      <trkpt lat="44.26092" lon="3.54698">
        <ele>1156</ele>
        <time>2015-08-22T13:45:41.892Z</time>
      </trkpt>
      <trkpt lat="44.2609" lon="3.54698">
        <ele>1155.9</ele>
        <time>2015-08-22T13:45:42.856Z</time>
      </trkpt>
      <trkpt lat="44.26082" lon="3.54702">
        <ele>1155.3</ele>
        <time>2015-08-22T13:45:48.905Z</time>
      </trkpt>
      <trkpt lat="44.26081" lon="3.54702">
        <ele>1155.1</ele>
        <time>2015-08-22T13:45:49.853Z</time>
      </trkpt>
      <trkpt lat="44.26072" lon="3.54706">
        <ele>1154.3</ele>
        <time>2015-08-22T13:45:55.887Z</time>
      </trkpt>
      <trkpt lat="44.26071" lon="3.54707">
        <ele>1154</ele>
        <time>2015-08-22T13:45:56.900Z</time>
      </trkpt>
      <trkpt lat="44.26063" lon="3.54709">
        <ele>1152.9</ele>
        <time>2015-08-22T13:46:01.895Z</time>
      </trkpt>
      <trkpt lat="44.26062" lon="3.5471">
        <ele>1152.6</ele>
        <time>2015-08-22T13:46:02.859Z</time>
      </trkpt>
      <trkpt lat="44.26054" lon="3.54713">
        <ele>1152</ele>
        <time>2015-08-22T13:46:08.904Z</time>
      </trkpt>
      <trkpt lat="44.26052" lon="3.54714">
        <ele>1152</ele>
        <time>2015-08-22T13:46:09.865Z</time>
      </trkpt>
      <trkpt lat="44.26045" lon="3.54717">
        <ele>1151.5</ele>
        <time>2015-08-22T13:46:15.894Z</time>
      </trkpt>
      <trkpt lat="44.26044" lon="3.54718">
        <ele>1151.4</ele>
        <time>2015-08-22T13:46:16.860Z</time>
      </trkpt>
      <trkpt lat="44.26035" lon="3.54723">
        <ele>1150.1</ele>
        <time>2015-08-22T13:46:22.905Z</time>
      </trkpt>
      <trkpt lat="44.26034" lon="3.54723">
        <ele>1149.9</ele>
        <time>2015-08-22T13:46:23.854Z</time>
      </trkpt>
      <trkpt lat="44.26027" lon="3.54728">
        <ele>1149.1</ele>
        <time>2015-08-22T13:46:28.901Z</time>
      </trkpt>
      <trkpt lat="44.26026" lon="3.54728">
        <ele>1148.8</ele>
        <time>2015-08-22T13:46:29.853Z</time>
      </trkpt>
      <trkpt lat="44.26018" lon="3.54735">
        <ele>1147.9</ele>
        <time>2015-08-22T13:46:35.893Z</time>
      </trkpt>
      <trkpt lat="44.26017" lon="3.54736">
        <ele>1147.8</ele>
        <time>2015-08-22T13:46:36.855Z</time>
      </trkpt>
      <trkpt lat="44.2601" lon="3.54744">
        <ele>1147</ele>
        <time>2015-08-22T13:46:42.907Z</time>
      </trkpt>
      <trkpt lat="44.26009" lon="3.54745">
        <ele>1146.9</ele>
        <time>2015-08-22T13:46:43.853Z</time>
      </trkpt>
      <trkpt lat="44.26003" lon="3.54751">
        <ele>1145.8</ele>
        <time>2015-08-22T13:46:48.906Z</time>
      </trkpt>
      <trkpt lat="44.26001" lon="3.54752">
        <ele>1145.5</ele>
        <time>2015-08-22T13:46:49.856Z</time>
      </trkpt>
      <trkpt lat="44.25994" lon="3.54757">
        <ele>1144.4</ele>
        <time>2015-08-22T13:46:54.906Z</time>
      </trkpt>
      <trkpt lat="44.25993" lon="3.54758">
        <ele>1144.1</ele>
        <time>2015-08-22T13:46:55.852Z</time>
      </trkpt>
      <trkpt lat="44.25985" lon="3.54764">
        <ele>1142.5</ele>
        <time>2015-08-22T13:47:01.919Z</time>
      </trkpt>
      <trkpt lat="44.25984" lon="3.54764">
        <ele>1142.2</ele>
        <time>2015-08-22T13:47:02.877Z</time>
      </trkpt>
      <trkpt lat="44.25976" lon="3.54769">
        <ele>1141.1</ele>
        <time>2015-08-22T13:47:08.893Z</time>
      </trkpt>
      <trkpt lat="44.25975" lon="3.54771">
        <ele>1141</ele>
        <time>2015-08-22T13:47:09.849Z</time>
      </trkpt>
      <trkpt lat="44.25967" lon="3.54772">
        <ele>1139.6</ele>
        <time>2015-08-22T13:47:16.903Z</time>
      </trkpt>
      <trkpt lat="44.25966" lon="3.54771">
        <ele>1139.3</ele>
        <time>2015-08-22T13:47:17.864Z</time>
      </trkpt>
      <trkpt lat="44.25957" lon="3.54771">
        <ele>1139.4</ele>
        <time>2015-08-22T13:48:49.891Z</time>
      </trkpt>
      <trkpt lat="44.25957" lon="3.54771">
        <ele>1139.3</ele>
        <time>2015-08-22T13:48:50.851Z</time>
      </trkpt>
      <trkpt lat="44.25949" lon="3.54777">
        <ele>1139</ele>
        <time>2015-08-22T13:50:31.894Z</time>
      </trkpt>
      <trkpt lat="44.25949" lon="3.54777">
        <ele>1139</ele>
        <time>2015-08-22T13:50:32.858Z</time>
      </trkpt>
      <trkpt lat="44.25941" lon="3.54782">
        <ele>1139</ele>
        <time>2015-08-22T13:50:43.897Z</time>
      </trkpt>
      <trkpt lat="44.2594" lon="3.54782">
        <ele>1139</ele>
        <time>2015-08-22T13:50:44.854Z</time>
      </trkpt>
      <trkpt lat="44.25934" lon="3.5479">
        <ele>1138.5</ele>
        <time>2015-08-22T13:50:52.897Z</time>
      </trkpt>
      <trkpt lat="44.25933" lon="3.54791">
        <ele>1138.5</ele>
        <time>2015-08-22T13:50:53.858Z</time>
      </trkpt>
      <trkpt lat="44.25924" lon="3.54791">
        <ele>1139</ele>
        <time>2015-08-22T13:51:00.933Z</time>
      </trkpt>
      <trkpt lat="44.25923" lon="3.54791">
        <ele>1139.1</ele>
        <time>2015-08-22T13:51:01.853Z</time>
      </trkpt>
      <trkpt lat="44.25915" lon="3.54789">
        <ele>1139.2</ele>
        <time>2015-08-22T13:51:08.904Z</time>
      </trkpt>
      <trkpt lat="44.25914" lon="3.54789">
        <ele>1138.9</ele>
        <time>2015-08-22T13:51:09.853Z</time>
      </trkpt>
      <trkpt lat="44.25906" lon="3.54786">
        <ele>1138</ele>
        <time>2015-08-22T13:51:16.886Z</time>
      </trkpt>
      <trkpt lat="44.25904" lon="3.54785">
        <ele>1137.8</ele>
        <time>2015-08-22T13:51:17.852Z</time>
      </trkpt>
      <trkpt lat="44.25896" lon="3.54783">
        <ele>1137</ele>
        <time>2015-08-22T13:51:24.904Z</time>
      </trkpt>
      <trkpt lat="44.25895" lon="3.54783">
        <ele>1136.9</ele>
        <time>2015-08-22T13:51:25.855Z</time>
      </trkpt>
      <trkpt lat="44.25886" lon="3.54783">
        <ele>1137.4</ele>
        <time>2015-08-22T13:51:38.894Z</time>
      </trkpt>
      <trkpt lat="44.25885" lon="3.54783">
        <ele>1137.4</ele>
        <time>2015-08-22T13:51:39.853Z</time>
      </trkpt>
      <trkpt lat="44.25877" lon="3.54781">
        <ele>1139</ele>
        <time>2015-08-22T13:51:47.894Z</time>
      </trkpt>
      <trkpt lat="44.25875" lon="3.54781">
        <ele>1139.1</ele>
        <time>2015-08-22T13:51:48.856Z</time>
      </trkpt>
      <trkpt lat="44.25867" lon="3.54781">
        <ele>1138.6</ele>
        <time>2015-08-22T13:51:54.952Z</time>
      </trkpt>
      <trkpt lat="44.25866" lon="3.54781">
        <ele>1138.6</ele>
        <time>2015-08-22T13:51:55.855Z</time>
      </trkpt>
      <trkpt lat="44.25857" lon="3.5478">
        <ele>1139.5</ele>
        <time>2015-08-22T13:52:02.932Z</time>
      </trkpt>
      <trkpt lat="44.25856" lon="3.5478">
        <ele>1139.5</ele>
        <time>2015-08-22T13:52:03.865Z</time>
      </trkpt>
      <trkpt lat="44.25847" lon="3.5478">
        <ele>1141.3</ele>
        <time>2015-08-22T13:52:10.943Z</time>
      </trkpt>
      <trkpt lat="44.25846" lon="3.54779">
        <ele>1141.6</ele>
        <time>2015-08-22T13:52:11.865Z</time>
      </trkpt>
      <trkpt lat="44.25838" lon="3.54779">
        <ele>1143.2</ele>
        <time>2015-08-22T13:52:18.902Z</time>
      </trkpt>
      <trkpt lat="44.25837" lon="3.54778">
        <ele>1143.4</ele>
        <time>2015-08-22T13:52:19.853Z</time>
      </trkpt>
      <trkpt lat="44.25828" lon="3.54778">
        <ele>1144.9</ele>
        <time>2015-08-22T13:52:26.902Z</time>
      </trkpt>
      <trkpt lat="44.25827" lon="3.54778">
        <ele>1145</ele>
        <time>2015-08-22T13:52:27.853Z</time>
      </trkpt>
      <trkpt lat="44.25818" lon="3.54778">
        <ele>1146.4</ele>
        <time>2015-08-22T13:52:36.277Z</time>
      </trkpt>
      <trkpt lat="44.25817" lon="3.54779">
        <ele>1146.7</ele>
        <time>2015-08-22T13:52:36.854Z</time>
      </trkpt>
      <trkpt lat="44.25809" lon="3.54781">
        <ele>1148.1</ele>
        <time>2015-08-22T13:52:43.895Z</time>
      </trkpt>
      <trkpt lat="44.25808" lon="3.54782">
        <ele>1148.3</ele>
        <time>2015-08-22T13:52:44.852Z</time>
      </trkpt>
      <trkpt lat="44.258" lon="3.54784">
        <ele>1150</ele>
        <time>2015-08-22T13:52:51.893Z</time>
      </trkpt>
      <trkpt lat="44.25799" lon="3.54784">
        <ele>1150.1</ele>
        <time>2015-08-22T13:52:52.869Z</time>
      </trkpt>
      <trkpt lat="44.2579" lon="3.54783">
        <ele>1152.5</ele>
        <time>2015-08-22T13:53:00.925Z</time>
      </trkpt>
      <trkpt lat="44.25789" lon="3.54782">
        <ele>1152.8</ele>
        <time>2015-08-22T13:53:01.865Z</time>
      </trkpt>
      <trkpt lat="44.25781" lon="3.5478">
        <ele>1153.8</ele>
        <time>2015-08-22T13:53:10.895Z</time>
      </trkpt>
      <trkpt lat="44.2578" lon="3.54782">
        <ele>1154</ele>
        <time>2015-08-22T13:53:11.860Z</time>
      </trkpt>
      <trkpt lat="44.25774" lon="3.5479">
        <ele>1154.5</ele>
        <time>2015-08-22T13:53:18.927Z</time>
      </trkpt>
      <trkpt lat="44.25773" lon="3.54791">
        <ele>1154.7</ele>
        <time>2015-08-22T13:53:19.854Z</time>
      </trkpt>
      <trkpt lat="44.25767" lon="3.54799">
        <ele>1155.8</ele>
        <time>2015-08-22T13:53:27.894Z</time>
      </trkpt>
      <trkpt lat="44.25766" lon="3.548">
        <ele>1155.9</ele>
        <time>2015-08-22T13:53:28.857Z</time>
      </trkpt>
      <trkpt lat="44.2576" lon="3.54808">
        <ele>1155.6</ele>
        <time>2015-08-22T13:53:35.891Z</time>
      </trkpt>
      <trkpt lat="44.2576" lon="3.54809">
        <ele>1155.4</ele>
        <time>2015-08-22T13:53:36.881Z</time>
      </trkpt>
      <trkpt lat="44.25753" lon="3.54816">
        <ele>1157</ele>
        <time>2015-08-22T13:53:50.894Z</time>
      </trkpt>
      <trkpt lat="44.25753" lon="3.54817">
        <ele>1157.1</ele>
        <time>2015-08-22T13:53:51.862Z</time>
      </trkpt>
      <trkpt lat="44.25747" lon="3.54825">
        <ele>1158</ele>
        <time>2015-08-22T13:53:59.903Z</time>
      </trkpt>
      <trkpt lat="44.25746" lon="3.54826">
        <ele>1158.1</ele>
        <time>2015-08-22T13:54:00.888Z</time>
      </trkpt>
      <trkpt lat="44.2574" lon="3.54834">
        <ele>1159.1</ele>
        <time>2015-08-22T13:54:08.894Z</time>
      </trkpt>
      <trkpt lat="44.25739" lon="3.54836">
        <ele>1159.2</ele>
        <time>2015-08-22T13:54:09.864Z</time>
      </trkpt>
      <trkpt lat="44.25732" lon="3.54843">
        <ele>1159.8</ele>
        <time>2015-08-22T13:54:16.895Z</time>
      </trkpt>
      <trkpt lat="44.25731" lon="3.54844">
        <ele>1159.5</ele>
        <time>2015-08-22T13:54:17.854Z</time>
      </trkpt>
      <trkpt lat="44.25725" lon="3.54851">
        <ele>1158.1</ele>
        <time>2015-08-22T13:54:24.891Z</time>
      </trkpt>
      <trkpt lat="44.25724" lon="3.54852">
        <ele>1158.1</ele>
        <time>2015-08-22T13:54:25.878Z</time>
      </trkpt>
      <trkpt lat="44.25716" lon="3.54857">
        <ele>1158.7</ele>
        <time>2015-08-22T13:54:32.894Z</time>
      </trkpt>
      <trkpt lat="44.25715" lon="3.54857">
        <ele>1158.8</ele>
        <time>2015-08-22T13:54:34.232Z</time>
      </trkpt>
      <trkpt lat="44.2571" lon="3.54867">
        <ele>1160.5</ele>
        <time>2015-08-22T13:54:40.925Z</time>
      </trkpt>
      <trkpt lat="44.2571" lon="3.54868">
        <ele>1160.8</ele>
        <time>2015-08-22T13:54:41.857Z</time>
      </trkpt>
      <trkpt lat="44.25705" lon="3.54878">
        <ele>1163.4</ele>
        <time>2015-08-22T13:54:52.906Z</time>
      </trkpt>
      <trkpt lat="44.25704" lon="3.54879">
        <ele>1163.6</ele>
        <time>2015-08-22T13:54:53.853Z</time>
      </trkpt>
      <trkpt lat="44.25699" lon="3.54889">
        <ele>1165.5</ele>
        <time>2015-08-22T13:55:02.893Z</time>
      </trkpt>
      <trkpt lat="44.25698" lon="3.5489">
        <ele>1165.8</ele>
        <time>2015-08-22T13:55:03.864Z</time>
      </trkpt>
      <trkpt lat="44.25692" lon="3.54899">
        <ele>1166.9</ele>
        <time>2015-08-22T13:55:11.904Z</time>
      </trkpt>
      <trkpt lat="44.25691" lon="3.549">
        <ele>1167</ele>
        <time>2015-08-22T13:55:12.855Z</time>
      </trkpt>
      <trkpt lat="44.25684" lon="3.54907">
        <ele>1166.9</ele>
        <time>2015-08-22T13:55:20.888Z</time>
      </trkpt>
      <trkpt lat="44.25683" lon="3.54908">
        <ele>1166.5</ele>
        <time>2015-08-22T13:55:21.856Z</time>
      </trkpt>
      <trkpt lat="44.25675" lon="3.54913">
        <ele>1167</ele>
        <time>2015-08-22T13:55:32.922Z</time>
      </trkpt>
      <trkpt lat="44.25674" lon="3.54913">
        <ele>1167.1</ele>
        <time>2015-08-22T13:55:33.930Z</time>
      </trkpt>
      <trkpt lat="44.25667" lon="3.54913">
        <ele>1167.2</ele>
        <time>2015-08-22T13:56:06.903Z</time>
      </trkpt>
      <trkpt lat="44.25665" lon="3.54913">
        <ele>1167.5</ele>
        <time>2015-08-22T13:56:07.933Z</time>
      </trkpt>
      <trkpt lat="44.25658" lon="3.5492">
        <ele>1167.9</ele>
        <time>2015-08-22T13:56:13.886Z</time>
      </trkpt>
      <trkpt lat="44.25657" lon="3.54921">
        <ele>1168</ele>
        <time>2015-08-22T13:56:15.192Z</time>
      </trkpt>
      <trkpt lat="44.25651" lon="3.54929">
        <ele>1168.7</ele>
        <time>2015-08-22T13:56:21.904Z</time>
      </trkpt>
      <trkpt lat="44.2565" lon="3.5493">
        <ele>1168.9</ele>
        <time>2015-08-22T13:56:22.853Z</time>
      </trkpt>
      <trkpt lat="44.25644" lon="3.54939">
        <ele>1170.4</ele>
        <time>2015-08-22T13:56:31.906Z</time>
      </trkpt>
      <trkpt lat="44.25643" lon="3.5494">
        <ele>1170.6</ele>
        <time>2015-08-22T13:56:32.868Z</time>
      </trkpt>
      <trkpt lat="44.25637" lon="3.54948">
        <ele>1171.4</ele>
        <time>2015-08-22T13:56:39.916Z</time>
      </trkpt>
      <trkpt lat="44.25636" lon="3.54949">
        <ele>1171.6</ele>
        <time>2015-08-22T13:56:40.854Z</time>
      </trkpt>
      <trkpt lat="44.2563" lon="3.54957">
        <ele>1172.9</ele>
        <time>2015-08-22T13:56:47.904Z</time>
      </trkpt>
      <trkpt lat="44.25629" lon="3.54957">
        <ele>1173</ele>
        <time>2015-08-22T13:56:49.234Z</time>
      </trkpt>
      <trkpt lat="44.25622" lon="3.54964">
        <ele>1174.3</ele>
        <time>2015-08-22T13:56:55.270Z</time>
      </trkpt>
      <trkpt lat="44.25621" lon="3.54965">
        <ele>1174.3</ele>
        <time>2015-08-22T13:56:55.856Z</time>
      </trkpt>
      <trkpt lat="44.25613" lon="3.54971">
        <ele>1175.1</ele>
        <time>2015-08-22T13:57:02.894Z</time>
      </trkpt>
      <trkpt lat="44.25612" lon="3.54972">
        <ele>1175.3</ele>
        <time>2015-08-22T13:57:03.853Z</time>
      </trkpt>
      <trkpt lat="44.25605" lon="3.54977">
        <ele>1176</ele>
        <time>2015-08-22T13:57:10.893Z</time>
      </trkpt>
      <trkpt lat="44.25604" lon="3.54978">
        <ele>1176</ele>
        <time>2015-08-22T13:57:11.857Z</time>
      </trkpt>
      <trkpt lat="44.25597" lon="3.54985">
        <ele>1176.6</ele>
        <time>2015-08-22T13:57:18.887Z</time>
      </trkpt>
      <trkpt lat="44.25596" lon="3.54985">
        <ele>1176.9</ele>
        <time>2015-08-22T13:57:19.852Z</time>
      </trkpt>
      <trkpt lat="44.25591" lon="3.54993">
        <ele>1177.5</ele>
        <time>2015-08-22T13:57:27.902Z</time>
      </trkpt>
      <trkpt lat="44.2559" lon="3.54994">
        <ele>1177.6</ele>
        <time>2015-08-22T13:57:28.855Z</time>
      </trkpt>
      <trkpt lat="44.25583" lon="3.55">
        <ele>1178.5</ele>
        <time>2015-08-22T13:57:35.897Z</time>
      </trkpt>
      <trkpt lat="44.25582" lon="3.55001">
        <ele>1178.6</ele>
        <time>2015-08-22T13:57:36.884Z</time>
      </trkpt>
      <trkpt lat="44.25576" lon="3.55008">
        <ele>1179.3</ele>
        <time>2015-08-22T13:57:43.890Z</time>
      </trkpt>
      <trkpt lat="44.25575" lon="3.55009">
        <ele>1179.5</ele>
        <time>2015-08-22T13:57:44.852Z</time>
      </trkpt>
      <trkpt lat="44.2557" lon="3.55018">
        <ele>1180.5</ele>
        <time>2015-08-22T13:57:54.923Z</time>
      </trkpt>
      <trkpt lat="44.25569" lon="3.55019">
        <ele>1180.6</ele>
        <time>2015-08-22T13:57:55.865Z</time>
      </trkpt>
      <trkpt lat="44.25562" lon="3.55025">
        <ele>1181.7</ele>
        <time>2015-08-22T13:58:04.949Z</time>
      </trkpt>
      <trkpt lat="44.2556" lon="3.55026">
        <ele>1181.8</ele>
        <time>2015-08-22T13:58:05.856Z</time>
      </trkpt>
      <trkpt lat="44.25553" lon="3.55032">
        <ele>1183.4</ele>
        <time>2015-08-22T13:58:13.903Z</time>
      </trkpt>
      <trkpt lat="44.25552" lon="3.55033">
        <ele>1183.6</ele>
        <time>2015-08-22T13:58:14.856Z</time>
      </trkpt>
      <trkpt lat="44.25546" lon="3.55041">
        <ele>1185.3</ele>
        <time>2015-08-22T13:58:21.891Z</time>
      </trkpt>
      <trkpt lat="44.25545" lon="3.55042">
        <ele>1185.6</ele>
        <time>2015-08-22T13:58:22.850Z</time>
      </trkpt>
      <trkpt lat="44.25538" lon="3.55048">
        <ele>1187.6</ele>
        <time>2015-08-22T13:58:30.369Z</time>
      </trkpt>
      <trkpt lat="44.25538" lon="3.55049">
        <ele>1187.9</ele>
        <time>2015-08-22T13:58:30.855Z</time>
      </trkpt>
      <trkpt lat="44.25531" lon="3.55056">
        <ele>1189.2</ele>
        <time>2015-08-22T13:58:37.950Z</time>
      </trkpt>
      <trkpt lat="44.25531" lon="3.55058">
        <ele>1189.4</ele>
        <time>2015-08-22T13:58:38.865Z</time>
      </trkpt>
      <trkpt lat="44.25523" lon="3.55065">
        <ele>1191.7</ele>
        <time>2015-08-22T13:58:47.939Z</time>
      </trkpt>
      <trkpt lat="44.25523" lon="3.55065">
        <ele>1191.9</ele>
        <time>2015-08-22T13:58:48.857Z</time>
      </trkpt>
      <trkpt lat="44.25516" lon="3.55072">
        <ele>1193.9</ele>
        <time>2015-08-22T13:58:58.895Z</time>
      </trkpt>
      <trkpt lat="44.25515" lon="3.55073">
        <ele>1194.2</ele>
        <time>2015-08-22T13:58:59.855Z</time>
      </trkpt>
      <trkpt lat="44.25508" lon="3.55079">
        <ele>1196.9</ele>
        <time>2015-08-22T13:59:09.033Z</time>
      </trkpt>
      <trkpt lat="44.25507" lon="3.5508">
        <ele>1197.4</ele>
        <time>2015-08-22T13:59:09.854Z</time>
      </trkpt>
      <trkpt lat="44.255" lon="3.55087">
        <ele>1200</ele>
        <time>2015-08-22T13:59:18.898Z</time>
      </trkpt>
      <trkpt lat="44.25499" lon="3.55087">
        <ele>1200.2</ele>
        <time>2015-08-22T13:59:19.860Z</time>
      </trkpt>
      <trkpt lat="44.25492" lon="3.55093">
        <ele>1202.2</ele>
        <time>2015-08-22T13:59:26.924Z</time>
      </trkpt>
      <trkpt lat="44.2549" lon="3.55094">
        <ele>1202.7</ele>
        <time>2015-08-22T13:59:27.866Z</time>
      </trkpt>
      <trkpt lat="44.25482" lon="3.55097">
        <ele>1205.4</ele>
        <time>2015-08-22T13:59:35.901Z</time>
      </trkpt>
      <trkpt lat="44.25481" lon="3.55097">
        <ele>1205.6</ele>
        <time>2015-08-22T13:59:36.854Z</time>
      </trkpt>
      <trkpt lat="44.25473" lon="3.55097">
        <ele>1206.3</ele>
        <time>2015-08-22T13:59:52.933Z</time>
      </trkpt>
      <trkpt lat="44.25472" lon="3.55097">
        <ele>1206.3</ele>
        <time>2015-08-22T13:59:53.864Z</time>
      </trkpt>
      <trkpt lat="44.25465" lon="3.55092">
        <ele>1204.8</ele>
        <time>2015-08-22T14:00:17.897Z</time>
      </trkpt>
      <trkpt lat="44.25462" lon="3.55091">
        <ele>1205.1</ele>
        <time>2015-08-22T14:00:18.854Z</time>
      </trkpt>
      <trkpt lat="44.25454" lon="3.55095">
        <ele>1206.1</ele>
        <time>2015-08-22T14:00:28.319Z</time>
      </trkpt>
      <trkpt lat="44.25453" lon="3.55096">
        <ele>1206.1</ele>
        <time>2015-08-22T14:00:28.858Z</time>
      </trkpt>
      <trkpt lat="44.25446" lon="3.55102">
        <ele>1207</ele>
        <time>2015-08-22T14:00:38.988Z</time>
      </trkpt>
      <trkpt lat="44.25445" lon="3.55102">
        <ele>1207.1</ele>
        <time>2015-08-22T14:00:39.852Z</time>
      </trkpt>
      <trkpt lat="44.25437" lon="3.55102">
        <ele>1207.9</ele>
        <time>2015-08-22T14:00:46.933Z</time>
      </trkpt>
      <trkpt lat="44.25435" lon="3.55102">
        <ele>1207.8</ele>
        <time>2015-08-22T14:00:47.865Z</time>
      </trkpt>
      <trkpt lat="44.25427" lon="3.55104">
        <ele>1207.7</ele>
        <time>2015-08-22T14:00:54.904Z</time>
      </trkpt>
      <trkpt lat="44.25426" lon="3.55104">
        <ele>1207.4</ele>
        <time>2015-08-22T14:00:55.855Z</time>
      </trkpt>
      <trkpt lat="44.25418" lon="3.55103">
        <ele>1207.2</ele>
        <time>2015-08-22T14:01:02.910Z</time>
      </trkpt>
      <trkpt lat="44.25417" lon="3.55103">
        <ele>1207.3</ele>
        <time>2015-08-22T14:01:03.878Z</time>
      </trkpt>
      <trkpt lat="44.25409" lon="3.55109">
        <ele>1208.9</ele>
        <time>2015-08-22T14:01:12.905Z</time>
      </trkpt>
      <trkpt lat="44.25409" lon="3.55111">
        <ele>1209.1</ele>
        <time>2015-08-22T14:01:13.853Z</time>
      </trkpt>
      <trkpt lat="44.25408" lon="3.55123">
        <ele>1209.9</ele>
        <time>2015-08-22T14:01:20.909Z</time>
      </trkpt>
      <trkpt lat="44.25408" lon="3.55124">
        <ele>1210.1</ele>
        <time>2015-08-22T14:01:21.854Z</time>
      </trkpt>
      <trkpt lat="44.25405" lon="3.55136">
        <ele>1211.8</ele>
        <time>2015-08-22T14:01:29.926Z</time>
      </trkpt>
      <trkpt lat="44.25404" lon="3.55137">
        <ele>1212.1</ele>
        <time>2015-08-22T14:01:30.857Z</time>
      </trkpt>
      <trkpt lat="44.25396" lon="3.55143">
        <ele>1210.8</ele>
        <time>2015-08-22T14:01:52.910Z</time>
      </trkpt>
      <trkpt lat="44.25395" lon="3.55143">
        <ele>1210.7</ele>
        <time>2015-08-22T14:01:53.857Z</time>
      </trkpt>
      <trkpt lat="44.25388" lon="3.55139">
        <ele>1209.8</ele>
        <time>2015-08-22T14:02:00.921Z</time>
      </trkpt>
      <trkpt lat="44.25387" lon="3.55139">
        <ele>1209.7</ele>
        <time>2015-08-22T14:02:01.866Z</time>
      </trkpt>
      <trkpt lat="44.25379" lon="3.55134">
        <ele>1208.8</ele>
        <time>2015-08-22T14:03:05.896Z</time>
      </trkpt>
      <trkpt lat="44.25378" lon="3.55134">
        <ele>1208.7</ele>
        <time>2015-08-22T14:03:06.855Z</time>
      </trkpt>
      <trkpt lat="44.25369" lon="3.55134">
        <ele>1207.6</ele>
        <time>2015-08-22T14:04:37.921Z</time>
      </trkpt>
      <trkpt lat="44.25369" lon="3.55134">
        <ele>1207.6</ele>
        <time>2015-08-22T14:04:38.863Z</time>
      </trkpt>
      <trkpt lat="44.25362" lon="3.55127">
        <ele>1206.8</ele>
        <time>2015-08-22T14:04:46.923Z</time>
      </trkpt>
      <trkpt lat="44.25361" lon="3.55127">
        <ele>1206.6</ele>
        <time>2015-08-22T14:04:47.880Z</time>
      </trkpt>
      <trkpt lat="44.25354" lon="3.55118">
        <ele>1205.3</ele>
        <time>2015-08-22T14:04:56.903Z</time>
      </trkpt>
      <trkpt lat="44.25353" lon="3.55117">
        <ele>1205</ele>
        <time>2015-08-22T14:04:57.862Z</time>
      </trkpt>
      <trkpt lat="44.25347" lon="3.55109">
        <ele>1203.8</ele>
        <time>2015-08-22T14:05:10.900Z</time>
      </trkpt>
      <trkpt lat="44.25346" lon="3.55107">
        <ele>1203.6</ele>
        <time>2015-08-22T14:05:11.880Z</time>
      </trkpt>
      <trkpt lat="44.2534" lon="3.551">
        <ele>1202.2</ele>
        <time>2015-08-22T14:05:19.899Z</time>
      </trkpt>
      <trkpt lat="44.25339" lon="3.55099">
        <ele>1202</ele>
        <time>2015-08-22T14:05:20.849Z</time>
      </trkpt>
      <trkpt lat="44.25335" lon="3.55089">
        <ele>1200.4</ele>
        <time>2015-08-22T14:05:27.903Z</time>
      </trkpt>
      <trkpt lat="44.25334" lon="3.55088">
        <ele>1200.2</ele>
        <time>2015-08-22T14:05:28.852Z</time>
      </trkpt>
      <trkpt lat="44.25329" lon="3.55078">
        <ele>1198.7</ele>
        <time>2015-08-22T14:05:36.905Z</time>
      </trkpt>
      <trkpt lat="44.25328" lon="3.55077">
        <ele>1198.5</ele>
        <time>2015-08-22T14:05:37.857Z</time>
      </trkpt>
      <trkpt lat="44.25323" lon="3.55068">
        <ele>1197.7</ele>
        <time>2015-08-22T14:05:45.913Z</time>
      </trkpt>
      <trkpt lat="44.25322" lon="3.55067">
        <ele>1197.5</ele>
        <time>2015-08-22T14:05:46.853Z</time>
      </trkpt>
      <trkpt lat="44.25316" lon="3.55058">
        <ele>1196.6</ele>
        <time>2015-08-22T14:05:54.916Z</time>
      </trkpt>
      <trkpt lat="44.25315" lon="3.55056">
        <ele>1196.4</ele>
        <time>2015-08-22T14:05:55.865Z</time>
      </trkpt>
      <trkpt lat="44.25311" lon="3.55046">
        <ele>1196.3</ele>
        <time>2015-08-22T14:06:02.919Z</time>
      </trkpt>
      <trkpt lat="44.25311" lon="3.55044">
        <ele>1196.3</ele>
        <time>2015-08-22T14:06:03.851Z</time>
      </trkpt>
      <trkpt lat="44.25307" lon="3.55034">
        <ele>1196.3</ele>
        <time>2015-08-22T14:06:10.930Z</time>
      </trkpt>
      <trkpt lat="44.25307" lon="3.55033">
        <ele>1196.4</ele>
        <time>2015-08-22T14:06:11.859Z</time>
      </trkpt>
      <trkpt lat="44.253" lon="3.55026">
        <ele>1195.5</ele>
        <time>2015-08-22T14:06:21.897Z</time>
      </trkpt>
      <trkpt lat="44.25299" lon="3.55025">
        <ele>1195.3</ele>
        <time>2015-08-22T14:06:22.853Z</time>
      </trkpt>
      <trkpt lat="44.25294" lon="3.55015">
        <ele>1194</ele>
        <time>2015-08-22T14:06:28.904Z</time>
      </trkpt>
      <trkpt lat="44.25293" lon="3.55014">
        <ele>1193.8</ele>
        <time>2015-08-22T14:06:29.864Z</time>
      </trkpt>
      <trkpt lat="44.25288" lon="3.55004">
        <ele>1193</ele>
        <time>2015-08-22T14:06:35.914Z</time>
      </trkpt>
      <trkpt lat="44.25287" lon="3.55002">
        <ele>1193.1</ele>
        <time>2015-08-22T14:06:36.858Z</time>
      </trkpt>
      <trkpt lat="44.25283" lon="3.54993">
        <ele>1193</ele>
        <time>2015-08-22T14:06:42.928Z</time>
      </trkpt>
      <trkpt lat="44.25282" lon="3.54991">
        <ele>1192.9</ele>
        <time>2015-08-22T14:06:43.860Z</time>
      </trkpt>
      <trkpt lat="44.25277" lon="3.54981">
        <ele>1192.5</ele>
        <time>2015-08-22T14:06:50.329Z</time>
      </trkpt>
      <trkpt lat="44.25276" lon="3.5498">
        <ele>1192.4</ele>
        <time>2015-08-22T14:06:50.855Z</time>
      </trkpt>
      <trkpt lat="44.25272" lon="3.54969">
        <ele>1192</ele>
        <time>2015-08-22T14:06:57.924Z</time>
      </trkpt>
      <trkpt lat="44.25271" lon="3.54968">
        <ele>1192.1</ele>
        <time>2015-08-22T14:06:58.864Z</time>
      </trkpt>
      <trkpt lat="44.25268" lon="3.54957">
        <ele>1192.4</ele>
        <time>2015-08-22T14:07:04.901Z</time>
      </trkpt>
      <trkpt lat="44.25268" lon="3.54955">
        <ele>1192.6</ele>
        <time>2015-08-22T14:07:05.878Z</time>
      </trkpt>
      <trkpt lat="44.25265" lon="3.54944">
        <ele>1192.8</ele>
        <time>2015-08-22T14:07:11.909Z</time>
      </trkpt>
      <trkpt lat="44.25265" lon="3.54942">
        <ele>1192.8</ele>
        <time>2015-08-22T14:07:12.867Z</time>
      </trkpt>
      <trkpt lat="44.25262" lon="3.54931">
        <ele>1193</ele>
        <time>2015-08-22T14:07:19.933Z</time>
      </trkpt>
      <trkpt lat="44.25261" lon="3.5493">
        <ele>1193.4</ele>
        <time>2015-08-22T14:07:20.864Z</time>
      </trkpt>
      <trkpt lat="44.25254" lon="3.54924">
        <ele>1195.3</ele>
        <time>2015-08-22T14:07:46.911Z</time>
      </trkpt>
      <trkpt lat="44.25254" lon="3.54922">
        <ele>1195.2</ele>
        <time>2015-08-22T14:07:47.854Z</time>
      </trkpt>
      <trkpt lat="44.2525" lon="3.54911">
        <ele>1196.2</ele>
        <time>2015-08-22T14:08:03.910Z</time>
      </trkpt>
      <trkpt lat="44.2525" lon="3.54909">
        <ele>1196.2</ele>
        <time>2015-08-22T14:08:04.853Z</time>
      </trkpt>
      <trkpt lat="44.25247" lon="3.54899">
        <ele>1196.9</ele>
        <time>2015-08-22T14:08:10.891Z</time>
      </trkpt>
      <trkpt lat="44.25245" lon="3.54897">
        <ele>1197</ele>
        <time>2015-08-22T14:08:11.860Z</time>
      </trkpt>
      <trkpt lat="44.2524" lon="3.54888">
        <ele>1197.9</ele>
        <time>2015-08-22T14:08:17.902Z</time>
      </trkpt>
      <trkpt lat="44.25239" lon="3.54886">
        <ele>1198.1</ele>
        <time>2015-08-22T14:08:18.856Z</time>
      </trkpt>
      <trkpt lat="44.25235" lon="3.54876">
        <ele>1199</ele>
        <time>2015-08-22T14:08:24.898Z</time>
      </trkpt>
      <trkpt lat="44.25234" lon="3.54874">
        <ele>1199.1</ele>
        <time>2015-08-22T14:08:25.861Z</time>
      </trkpt>
      <trkpt lat="44.2523" lon="3.54864">
        <ele>1199.9</ele>
        <time>2015-08-22T14:08:31.900Z</time>
      </trkpt>
      <trkpt lat="44.25229" lon="3.54863">
        <ele>1200</ele>
        <time>2015-08-22T14:08:32.856Z</time>
      </trkpt>
      <trkpt lat="44.25224" lon="3.54853">
        <ele>1199</ele>
        <time>2015-08-22T14:08:38.895Z</time>
      </trkpt>
      <trkpt lat="44.25223" lon="3.54852">
        <ele>1198.8</ele>
        <time>2015-08-22T14:08:39.859Z</time>
      </trkpt>
      <trkpt lat="44.25219" lon="3.54842">
        <ele>1198.3</ele>
        <time>2015-08-22T14:08:45.912Z</time>
      </trkpt>
      <trkpt lat="44.25218" lon="3.54841">
        <ele>1198.4</ele>
        <time>2015-08-22T14:08:46.852Z</time>
      </trkpt>
      <trkpt lat="44.25214" lon="3.54831">
        <ele>1197.8</ele>
        <time>2015-08-22T14:08:52.898Z</time>
      </trkpt>
      <trkpt lat="44.25213" lon="3.5483">
        <ele>1197.7</ele>
        <time>2015-08-22T14:08:53.854Z</time>
      </trkpt>
      <trkpt lat="44.25209" lon="3.5482">
        <ele>1197.4</ele>
        <time>2015-08-22T14:08:59.892Z</time>
      </trkpt>
      <trkpt lat="44.25208" lon="3.54818">
        <ele>1197.3</ele>
        <time>2015-08-22T14:09:00.855Z</time>
      </trkpt>
      <trkpt lat="44.25202" lon="3.5481">
        <ele>1196.8</ele>
        <time>2015-08-22T14:09:06.904Z</time>
      </trkpt>
      <trkpt lat="44.25201" lon="3.54809">
        <ele>1196.9</ele>
        <time>2015-08-22T14:09:07.855Z</time>
      </trkpt>
      <trkpt lat="44.25196" lon="3.54801">
        <ele>1196.9</ele>
        <time>2015-08-22T14:09:13.974Z</time>
      </trkpt>
      <trkpt lat="44.25195" lon="3.54799">
        <ele>1196.8</ele>
        <time>2015-08-22T14:09:14.855Z</time>
      </trkpt>
      <trkpt lat="44.25186" lon="3.54796">
        <ele>1196.2</ele>
        <time>2015-08-22T14:09:26.892Z</time>
      </trkpt>
      <trkpt lat="44.25185" lon="3.54795">
        <ele>1196</ele>
        <time>2015-08-22T14:09:27.856Z</time>
      </trkpt>
      <trkpt lat="44.25177" lon="3.54793">
        <ele>1195.7</ele>
        <time>2015-08-22T14:09:32.949Z</time>
      </trkpt>
      <trkpt lat="44.25176" lon="3.54793">
        <ele>1195.8</ele>
        <time>2015-08-22T14:09:33.853Z</time>
      </trkpt>
      <trkpt lat="44.25167" lon="3.54791">
        <ele>1195.8</ele>
        <time>2015-08-22T14:09:39.935Z</time>
      </trkpt>
      <trkpt lat="44.25166" lon="3.54791">
        <ele>1195.7</ele>
        <time>2015-08-22T14:09:40.860Z</time>
      </trkpt>
      <trkpt lat="44.25157" lon="3.54789">
        <ele>1195.4</ele>
        <time>2015-08-22T14:09:46.923Z</time>
      </trkpt>
      <trkpt lat="44.25156" lon="3.54788">
        <ele>1195.2</ele>
        <time>2015-08-22T14:09:47.865Z</time>
      </trkpt>
      <trkpt lat="44.25148" lon="3.54785">
        <ele>1194.7</ele>
        <time>2015-08-22T14:09:53.926Z</time>
      </trkpt>
      <trkpt lat="44.25147" lon="3.54785">
        <ele>1194.8</ele>
        <time>2015-08-22T14:09:54.882Z</time>
      </trkpt>
      <trkpt lat="44.25139" lon="3.54781">
        <ele>1195.3</ele>
        <time>2015-08-22T14:09:59.896Z</time>
      </trkpt>
      <trkpt lat="44.25138" lon="3.54781">
        <ele>1195.5</ele>
        <time>2015-08-22T14:10:00.855Z</time>
      </trkpt>
      <trkpt lat="44.2513" lon="3.54776">
        <ele>1195.6</ele>
        <time>2015-08-22T14:10:06.907Z</time>
      </trkpt>
      <trkpt lat="44.25128" lon="3.54776">
        <ele>1195.7</ele>
        <time>2015-08-22T14:10:07.854Z</time>
      </trkpt>
      <trkpt lat="44.25121" lon="3.54772">
        <ele>1195.6</ele>
        <time>2015-08-22T14:10:12.904Z</time>
      </trkpt>
      <trkpt lat="44.25119" lon="3.54771">
        <ele>1195.7</ele>
        <time>2015-08-22T14:10:13.851Z</time>
      </trkpt>
      <trkpt lat="44.25112" lon="3.54767">
        <ele>1195.4</ele>
        <time>2015-08-22T14:10:19.891Z</time>
      </trkpt>
      <trkpt lat="44.2511" lon="3.54767">
        <ele>1195.7</ele>
        <time>2015-08-22T14:10:20.853Z</time>
      </trkpt>
      <trkpt lat="44.25103" lon="3.54763">
        <ele>1196</ele>
        <time>2015-08-22T14:10:26.898Z</time>
      </trkpt>
      <trkpt lat="44.25102" lon="3.54763">
        <ele>1196</ele>
        <time>2015-08-22T14:10:27.854Z</time>
      </trkpt>
      <trkpt lat="44.25093" lon="3.54759">
        <ele>1195.6</ele>
        <time>2015-08-22T14:10:33.895Z</time>
      </trkpt>
      <trkpt lat="44.25092" lon="3.54758">
        <ele>1195.4</ele>
        <time>2015-08-22T14:10:34.857Z</time>
      </trkpt>
      <trkpt lat="44.25084" lon="3.54755">
        <ele>1194.5</ele>
        <time>2015-08-22T14:10:41.897Z</time>
      </trkpt>
      <trkpt lat="44.25082" lon="3.54754">
        <ele>1194.4</ele>
        <time>2015-08-22T14:10:42.856Z</time>
      </trkpt>
      <trkpt lat="44.25074" lon="3.54751">
        <ele>1193.1</ele>
        <time>2015-08-22T14:10:49.895Z</time>
      </trkpt>
      <trkpt lat="44.25073" lon="3.5475">
        <ele>1192.8</ele>
        <time>2015-08-22T14:10:50.854Z</time>
      </trkpt>
      <trkpt lat="44.25064" lon="3.54747">
        <ele>1191.9</ele>
        <time>2015-08-22T14:10:58.902Z</time>
      </trkpt>
      <trkpt lat="44.25063" lon="3.54747">
        <ele>1191.8</ele>
        <time>2015-08-22T14:10:59.854Z</time>
      </trkpt>
      <trkpt lat="44.25055" lon="3.54745">
        <ele>1190.3</ele>
        <time>2015-08-22T14:11:10.182Z</time>
      </trkpt>
      <trkpt lat="44.25054" lon="3.54744">
        <ele>1190.2</ele>
        <time>2015-08-22T14:11:10.855Z</time>
      </trkpt>
      <trkpt lat="44.25046" lon="3.54741">
        <ele>1188.5</ele>
        <time>2015-08-22T14:11:18.895Z</time>
      </trkpt>
      <trkpt lat="44.25045" lon="3.54741">
        <ele>1188.2</ele>
        <time>2015-08-22T14:11:19.855Z</time>
      </trkpt>
      <trkpt lat="44.25037" lon="3.54737">
        <ele>1187.1</ele>
        <time>2015-08-22T14:11:26.894Z</time>
      </trkpt>
      <trkpt lat="44.25035" lon="3.54737">
        <ele>1186.9</ele>
        <time>2015-08-22T14:11:27.877Z</time>
      </trkpt>
      <trkpt lat="44.25027" lon="3.54734">
        <ele>1186.1</ele>
        <time>2015-08-22T14:11:34.891Z</time>
      </trkpt>
      <trkpt lat="44.25026" lon="3.54733">
        <ele>1186.1</ele>
        <time>2015-08-22T14:11:35.854Z</time>
      </trkpt>
      <trkpt lat="44.25017" lon="3.54732">
        <ele>1184.6</ele>
        <time>2015-08-22T14:11:46.895Z</time>
      </trkpt>
      <trkpt lat="44.25016" lon="3.54731">
        <ele>1184.4</ele>
        <time>2015-08-22T14:11:47.854Z</time>
      </trkpt>
      <trkpt lat="44.25009" lon="3.54729">
        <ele>1183.5</ele>
        <time>2015-08-22T14:11:53.896Z</time>
      </trkpt>
      <trkpt lat="44.25007" lon="3.54728">
        <ele>1183.4</ele>
        <time>2015-08-22T14:11:54.881Z</time>
      </trkpt>
      <trkpt lat="44.25" lon="3.54725">
        <ele>1181.8</ele>
        <time>2015-08-22T14:12:01.925Z</time>
      </trkpt>
      <trkpt lat="44.24999" lon="3.54724">
        <ele>1181.5</ele>
        <time>2015-08-22T14:12:02.878Z</time>
      </trkpt>
      <trkpt lat="44.24991" lon="3.5472">
        <ele>1179.9</ele>
        <time>2015-08-22T14:12:08.904Z</time>
      </trkpt>
      <trkpt lat="44.2499" lon="3.54719">
        <ele>1179.7</ele>
        <time>2015-08-22T14:12:09.883Z</time>
      </trkpt>
      <trkpt lat="44.24982" lon="3.54714">
        <ele>1178.2</ele>
        <time>2015-08-22T14:12:15.923Z</time>
      </trkpt>
      <trkpt lat="44.24981" lon="3.54713">
        <ele>1177.9</ele>
        <time>2015-08-22T14:12:16.879Z</time>
      </trkpt>
      <trkpt lat="44.24973" lon="3.5471">
        <ele>1176.3</ele>
        <time>2015-08-22T14:12:25.891Z</time>
      </trkpt>
      <trkpt lat="44.24972" lon="3.5471">
        <ele>1176.2</ele>
        <time>2015-08-22T14:12:26.853Z</time>
      </trkpt>
      <trkpt lat="44.24964" lon="3.54708">
        <ele>1175.1</ele>
        <time>2015-08-22T14:12:33.907Z</time>
      </trkpt>
      <trkpt lat="44.24963" lon="3.54707">
        <ele>1174.9</ele>
        <time>2015-08-22T14:12:34.858Z</time>
      </trkpt>
      <trkpt lat="44.24955" lon="3.54704">
        <ele>1173.7</ele>
        <time>2015-08-22T14:12:40.905Z</time>
      </trkpt>
      <trkpt lat="44.24953" lon="3.54704">
        <ele>1173.7</ele>
        <time>2015-08-22T14:12:41.854Z</time>
      </trkpt>
      <trkpt lat="44.24946" lon="3.54701">
        <ele>1172.8</ele>
        <time>2015-08-22T14:12:47.894Z</time>
      </trkpt>
      <trkpt lat="44.24944" lon="3.547">
        <ele>1172.6</ele>
        <time>2015-08-22T14:12:48.855Z</time>
      </trkpt>
      <trkpt lat="44.24936" lon="3.54697">
        <ele>1171.9</ele>
        <time>2015-08-22T14:12:54.905Z</time>
      </trkpt>
      <trkpt lat="44.24935" lon="3.54696">
        <ele>1171.7</ele>
        <time>2015-08-22T14:12:55.856Z</time>
      </trkpt>
      <trkpt lat="44.24927" lon="3.54693">
        <ele>1171</ele>
        <time>2015-08-22T14:13:01.919Z</time>
      </trkpt>
      <trkpt lat="44.24925" lon="3.54692">
        <ele>1171</ele>
        <time>2015-08-22T14:13:02.857Z</time>
      </trkpt>
      <trkpt lat="44.24918" lon="3.54685">
        <ele>1170.3</ele>
        <time>2015-08-22T14:13:08.921Z</time>
      </trkpt>
      <trkpt lat="44.24917" lon="3.54684">
        <ele>1170.2</ele>
        <time>2015-08-22T14:13:09.865Z</time>
      </trkpt>
      <trkpt lat="44.2491" lon="3.54676">
        <ele>1169.6</ele>
        <time>2015-08-22T14:13:15.930Z</time>
      </trkpt>
      <trkpt lat="44.24909" lon="3.54675">
        <ele>1169.5</ele>
        <time>2015-08-22T14:13:16.865Z</time>
      </trkpt>
      <trkpt lat="44.24903" lon="3.54667">
        <ele>1169</ele>
        <time>2015-08-22T14:13:22.890Z</time>
      </trkpt>
      <trkpt lat="44.24902" lon="3.54665">
        <ele>1169</ele>
        <time>2015-08-22T14:13:23.853Z</time>
      </trkpt>
      <trkpt lat="44.24897" lon="3.54657">
        <ele>1169</ele>
        <time>2015-08-22T14:13:29.897Z</time>
      </trkpt>
      <trkpt lat="44.24896" lon="3.54656">
        <ele>1168.9</ele>
        <time>2015-08-22T14:13:30.853Z</time>
      </trkpt>
      <trkpt lat="44.2489" lon="3.54646">
        <ele>1169</ele>
        <time>2015-08-22T14:13:37.891Z</time>
      </trkpt>
      <trkpt lat="44.24889" lon="3.54645">
        <ele>1168.9</ele>
        <time>2015-08-22T14:13:38.854Z</time>
      </trkpt>
      <trkpt lat="44.24884" lon="3.54635">
        <ele>1168.8</ele>
        <time>2015-08-22T14:13:45.891Z</time>
      </trkpt>
      <trkpt lat="44.24884" lon="3.54634">
        <ele>1169</ele>
        <time>2015-08-22T14:13:46.852Z</time>
      </trkpt>
      <trkpt lat="44.24877" lon="3.54638">
        <ele>1170.4</ele>
        <time>2015-08-22T14:14:28.894Z</time>
      </trkpt>
      <trkpt lat="44.24875" lon="3.54638">
        <ele>1170.4</ele>
        <time>2015-08-22T14:14:29.859Z</time>
      </trkpt>
      <trkpt lat="44.24867" lon="3.5464">
        <ele>1170.2</ele>
        <time>2015-08-22T14:14:34.896Z</time>
      </trkpt>
      <trkpt lat="44.24865" lon="3.5464">
        <ele>1170.1</ele>
        <time>2015-08-22T14:14:35.877Z</time>
      </trkpt>
      <trkpt lat="44.24857" lon="3.54635">
        <ele>1169.8</ele>
        <time>2015-08-22T14:14:41.903Z</time>
      </trkpt>
      <trkpt lat="44.24856" lon="3.54634">
        <ele>1169.7</ele>
        <time>2015-08-22T14:14:42.854Z</time>
      </trkpt>
      <trkpt lat="44.2485" lon="3.54626">
        <ele>1169.8</ele>
        <time>2015-08-22T14:14:47.901Z</time>
      </trkpt>
      <trkpt lat="44.24848" lon="3.54624">
        <ele>1169.9</ele>
        <time>2015-08-22T14:14:48.856Z</time>
      </trkpt>
      <trkpt lat="44.24845" lon="3.54614">
        <ele>1170.5</ele>
        <time>2015-08-22T14:14:53.895Z</time>
      </trkpt>
      <trkpt lat="44.24845" lon="3.54612">
        <ele>1170.8</ele>
        <time>2015-08-22T14:14:54.856Z</time>
      </trkpt>
      <trkpt lat="44.24847" lon="3.54601">
        <ele>1173</ele>
        <time>2015-08-22T14:15:01.900Z</time>
      </trkpt>
      <trkpt lat="44.24848" lon="3.54599">
        <ele>1173.3</ele>
        <time>2015-08-22T14:15:02.853Z</time>
      </trkpt>
      <trkpt lat="44.24856" lon="3.54597">
        <ele>1176</ele>
        <time>2015-08-22T14:15:10.921Z</time>
      </trkpt>
      <trkpt lat="44.24857" lon="3.54597">
        <ele>1176.3</ele>
        <time>2015-08-22T14:15:11.876Z</time>
      </trkpt>
      <trkpt lat="44.24864" lon="3.54605">
        <ele>1177.2</ele>
        <time>2015-08-22T14:15:23.896Z</time>
      </trkpt>
      <trkpt lat="44.24864" lon="3.54605">
        <ele>1177.3</ele>
        <time>2015-08-22T14:15:24.856Z</time>
      </trkpt>
      <trkpt lat="44.2486" lon="3.54616">
        <ele>1176.2</ele>
        <time>2015-08-22T14:15:32.939Z</time>
      </trkpt>
      <trkpt lat="44.2486" lon="3.54617">
        <ele>1176.2</ele>
        <time>2015-08-22T14:15:33.851Z</time>
      </trkpt>
      <trkpt lat="44.2486" lon="3.5463">
        <ele>1172.4</ele>
        <time>2015-08-22T14:15:55.888Z</time>
      </trkpt>
      <trkpt lat="44.2486" lon="3.5463">
        <ele>1172</ele>
        <time>2015-08-22T14:15:56.938Z</time>
      </trkpt>
      <trkpt lat="44.24858" lon="3.54642">
        <ele>1169.6</ele>
        <time>2015-08-22T14:16:15.937Z</time>
      </trkpt>
      <trkpt lat="44.24859" lon="3.54643">
        <ele>1169.6</ele>
        <time>2015-08-22T14:16:16.864Z</time>
      </trkpt>
      <trkpt lat="44.24866" lon="3.54643">
        <ele>1170.4</ele>
        <time>2015-08-22T14:16:32.923Z</time>
      </trkpt>
      <trkpt lat="44.24867" lon="3.5464">
        <ele>1170.5</ele>
        <time>2015-08-22T14:16:33.865Z</time>
      </trkpt>
      <trkpt lat="44.24874" lon="3.54636">
        <ele>1173.3</ele>
        <time>2015-08-22T14:16:53.893Z</time>
      </trkpt>
      <trkpt lat="44.24876" lon="3.54635">
        <ele>1173.2</ele>
        <time>2015-08-22T14:16:54.854Z</time>
      </trkpt>
      <trkpt lat="44.2488" lon="3.54624">
        <ele>1171.6</ele>
        <time>2015-08-22T14:17:37.894Z</time>
      </trkpt>
      <trkpt lat="44.24879" lon="3.54622">
        <ele>1171.7</ele>
        <time>2015-08-22T14:17:38.855Z</time>
      </trkpt>
      <trkpt lat="44.24874" lon="3.54612">
        <ele>1171.8</ele>
        <time>2015-08-22T14:17:45.266Z</time>
      </trkpt>
      <trkpt lat="44.24873" lon="3.5461">
        <ele>1171.9</ele>
        <time>2015-08-22T14:17:45.858Z</time>
      </trkpt>
      <trkpt lat="44.24868" lon="3.546">
        <ele>1172.6</ele>
        <time>2015-08-22T14:17:51.923Z</time>
      </trkpt>
      <trkpt lat="44.24867" lon="3.54598">
        <ele>1172.7</ele>
        <time>2015-08-22T14:17:52.866Z</time>
      </trkpt>
      <trkpt lat="44.24862" lon="3.5459">
        <ele>1174.3</ele>
        <time>2015-08-22T14:17:57.906Z</time>
      </trkpt>
      <trkpt lat="44.24862" lon="3.54588">
        <ele>1174.6</ele>
        <time>2015-08-22T14:17:58.855Z</time>
      </trkpt>
      <trkpt lat="44.24856" lon="3.54578">
        <ele>1176.2</ele>
        <time>2015-08-22T14:18:04.901Z</time>
      </trkpt>
      <trkpt lat="44.24856" lon="3.54576">
        <ele>1176.4</ele>
        <time>2015-08-22T14:18:05.854Z</time>
      </trkpt>
      <trkpt lat="44.2485" lon="3.54567">
        <ele>1177.5</ele>
        <time>2015-08-22T14:18:11.904Z</time>
      </trkpt>
      <trkpt lat="44.24849" lon="3.54566">
        <ele>1177.8</ele>
        <time>2015-08-22T14:18:12.856Z</time>
      </trkpt>
      <trkpt lat="44.24845" lon="3.54556">
        <ele>1179.2</ele>
        <time>2015-08-22T14:18:19.884Z</time>
      </trkpt>
      <trkpt lat="44.24844" lon="3.54554">
        <ele>1179.4</ele>
        <time>2015-08-22T14:18:20.854Z</time>
      </trkpt>
      <trkpt lat="44.2484" lon="3.54545">
        <ele>1180.2</ele>
        <time>2015-08-22T14:18:26.886Z</time>
      </trkpt>
      <trkpt lat="44.24839" lon="3.54543">
        <ele>1180.4</ele>
        <time>2015-08-22T14:18:27.854Z</time>
      </trkpt>
      <trkpt lat="44.24835" lon="3.54533">
        <ele>1181.8</ele>
        <time>2015-08-22T14:18:34.893Z</time>
      </trkpt>
      <trkpt lat="44.24834" lon="3.54532">
        <ele>1181.9</ele>
        <time>2015-08-22T14:18:35.866Z</time>
      </trkpt>
      <trkpt lat="44.24828" lon="3.54523">
        <ele>1183.7</ele>
        <time>2015-08-22T14:18:42.898Z</time>
      </trkpt>
      <trkpt lat="44.24827" lon="3.54521">
        <ele>1183.8</ele>
        <time>2015-08-22T14:18:43.855Z</time>
      </trkpt>
      <trkpt lat="44.24822" lon="3.54512">
        <ele>1184.6</ele>
        <time>2015-08-22T14:18:50.902Z</time>
      </trkpt>
      <trkpt lat="44.24821" lon="3.54511">
        <ele>1184.6</ele>
        <time>2015-08-22T14:18:51.855Z</time>
      </trkpt>
      <trkpt lat="44.24815" lon="3.54503">
        <ele>1185.2</ele>
        <time>2015-08-22T14:18:57.892Z</time>
      </trkpt>
      <trkpt lat="44.24814" lon="3.54502">
        <ele>1185.2</ele>
        <time>2015-08-22T14:18:58.853Z</time>
      </trkpt>
      <trkpt lat="44.24809" lon="3.54492">
        <ele>1185</ele>
        <time>2015-08-22T14:19:05.947Z</time>
      </trkpt>
      <trkpt lat="44.24808" lon="3.54491">
        <ele>1185.2</ele>
        <time>2015-08-22T14:19:06.855Z</time>
      </trkpt>
      <trkpt lat="44.24803" lon="3.54481">
        <ele>1186.9</ele>
        <time>2015-08-22T14:19:13.906Z</time>
      </trkpt>
      <trkpt lat="44.24803" lon="3.5448">
        <ele>1187</ele>
        <time>2015-08-22T14:19:14.854Z</time>
      </trkpt>
      <trkpt lat="44.24796" lon="3.54472">
        <ele>1188.2</ele>
        <time>2015-08-22T14:19:25.889Z</time>
      </trkpt>
      <trkpt lat="44.24796" lon="3.5447">
        <ele>1188.2</ele>
        <time>2015-08-22T14:19:26.882Z</time>
      </trkpt>
      <trkpt lat="44.24791" lon="3.54461">
        <ele>1189.2</ele>
        <time>2015-08-22T14:19:45.348Z</time>
      </trkpt>
      <trkpt lat="44.2479" lon="3.54461">
        <ele>1189.4</ele>
        <time>2015-08-22T14:19:45.851Z</time>
      </trkpt>
      <trkpt lat="44.24783" lon="3.54454">
        <ele>1190.8</ele>
        <time>2015-08-22T14:19:53.944Z</time>
      </trkpt>
      <trkpt lat="44.24782" lon="3.54453">
        <ele>1191</ele>
        <time>2015-08-22T14:19:54.880Z</time>
      </trkpt>
      <trkpt lat="44.24776" lon="3.54443">
        <ele>1192.1</ele>
        <time>2015-08-22T14:20:01.925Z</time>
      </trkpt>
      <trkpt lat="44.24775" lon="3.54442">
        <ele>1192.3</ele>
        <time>2015-08-22T14:20:02.865Z</time>
      </trkpt>
      <trkpt lat="44.2477" lon="3.54433">
        <ele>1193.3</ele>
        <time>2015-08-22T14:20:08.903Z</time>
      </trkpt>
      <trkpt lat="44.24769" lon="3.54432">
        <ele>1193.6</ele>
        <time>2015-08-22T14:20:09.855Z</time>
      </trkpt>
      <trkpt lat="44.24763" lon="3.54425">
        <ele>1194.4</ele>
        <time>2015-08-22T14:20:16.920Z</time>
      </trkpt>
      <trkpt lat="44.24762" lon="3.54423">
        <ele>1194.7</ele>
        <time>2015-08-22T14:20:17.865Z</time>
      </trkpt>
      <trkpt lat="44.24757" lon="3.54414">
        <ele>1195.2</ele>
        <time>2015-08-22T14:20:24.923Z</time>
      </trkpt>
      <trkpt lat="44.24757" lon="3.54413">
        <ele>1195.5</ele>
        <time>2015-08-22T14:20:25.861Z</time>
      </trkpt>
      <trkpt lat="44.24751" lon="3.54404">
        <ele>1196.2</ele>
        <time>2015-08-22T14:20:32.895Z</time>
      </trkpt>
      <trkpt lat="44.24751" lon="3.54403">
        <ele>1196.2</ele>
        <time>2015-08-22T14:20:33.854Z</time>
      </trkpt>
      <trkpt lat="44.24745" lon="3.54394">
        <ele>1196.6</ele>
        <time>2015-08-22T14:20:41.924Z</time>
      </trkpt>
      <trkpt lat="44.24744" lon="3.54393">
        <ele>1196.6</ele>
        <time>2015-08-22T14:20:42.910Z</time>
      </trkpt>
      <trkpt lat="44.24739" lon="3.54384">
        <ele>1197.5</ele>
        <time>2015-08-22T14:20:49.925Z</time>
      </trkpt>
      <trkpt lat="44.24739" lon="3.54382">
        <ele>1197.7</ele>
        <time>2015-08-22T14:20:50.973Z</time>
      </trkpt>
      <trkpt lat="44.24733" lon="3.54373">
        <ele>1198.3</ele>
        <time>2015-08-22T14:20:57.988Z</time>
      </trkpt>
      <trkpt lat="44.24733" lon="3.54372">
        <ele>1198.6</ele>
        <time>2015-08-22T14:20:58.865Z</time>
      </trkpt>
      <trkpt lat="44.24727" lon="3.54364">
        <ele>1200.1</ele>
        <time>2015-08-22T14:21:05.889Z</time>
      </trkpt>
      <trkpt lat="44.24727" lon="3.54362">
        <ele>1200.3</ele>
        <time>2015-08-22T14:21:06.858Z</time>
      </trkpt>
      <trkpt lat="44.24719" lon="3.54357">
        <ele>1201.9</ele>
        <time>2015-08-22T14:21:14.934Z</time>
      </trkpt>
      <trkpt lat="44.24718" lon="3.54357">
        <ele>1202</ele>
        <time>2015-08-22T14:21:15.865Z</time>
      </trkpt>
      <trkpt lat="44.2471" lon="3.5435">
        <ele>1203.7</ele>
        <time>2015-08-22T14:21:23.886Z</time>
      </trkpt>
      <trkpt lat="44.24709" lon="3.54349">
        <ele>1203.9</ele>
        <time>2015-08-22T14:21:24.858Z</time>
      </trkpt>
      <trkpt lat="44.24702" lon="3.54343">
        <ele>1205.3</ele>
        <time>2015-08-22T14:21:31.901Z</time>
      </trkpt>
      <trkpt lat="44.24701" lon="3.54342">
        <ele>1205.5</ele>
        <time>2015-08-22T14:21:32.878Z</time>
      </trkpt>
      <trkpt lat="44.24694" lon="3.54337">
        <ele>1206.1</ele>
        <time>2015-08-22T14:21:39.919Z</time>
      </trkpt>
      <trkpt lat="44.24693" lon="3.54336">
        <ele>1206.3</ele>
        <time>2015-08-22T14:21:40.886Z</time>
      </trkpt>
      <trkpt lat="44.24686" lon="3.54329">
        <ele>1206.8</ele>
        <time>2015-08-22T14:22:11.899Z</time>
      </trkpt>
      <trkpt lat="44.24685" lon="3.54328">
        <ele>1206.9</ele>
        <time>2015-08-22T14:22:12.856Z</time>
      </trkpt>
      <trkpt lat="44.24677" lon="3.54321">
        <ele>1206.7</ele>
        <time>2015-08-22T14:22:22.921Z</time>
      </trkpt>
      <trkpt lat="44.24677" lon="3.5432">
        <ele>1206.8</ele>
        <time>2015-08-22T14:22:23.854Z</time>
      </trkpt>
      <trkpt lat="44.24668" lon="3.54316">
        <ele>1206.8</ele>
        <time>2015-08-22T14:22:39.904Z</time>
      </trkpt>
      <trkpt lat="44.24667" lon="3.54316">
        <ele>1206.9</ele>
        <time>2015-08-22T14:22:40.854Z</time>
      </trkpt>
      <trkpt lat="44.24659" lon="3.54311">
        <ele>1207.3</ele>
        <time>2015-08-22T14:22:48.896Z</time>
      </trkpt>
      <trkpt lat="44.24659" lon="3.5431">
        <ele>1207.2</ele>
        <time>2015-08-22T14:22:49.872Z</time>
      </trkpt>
      <trkpt lat="44.2465" lon="3.54308">
        <ele>1207</ele>
        <time>2015-08-22T14:22:57.904Z</time>
      </trkpt>
      <trkpt lat="44.24649" lon="3.54308">
        <ele>1206.9</ele>
        <time>2015-08-22T14:22:58.857Z</time>
      </trkpt>
      <trkpt lat="44.24641" lon="3.54306">
        <ele>1207.4</ele>
        <time>2015-08-22T14:26:05.935Z</time>
      </trkpt>
      <trkpt lat="44.2464" lon="3.54305">
        <ele>1207</ele>
        <time>2015-08-22T14:26:06.867Z</time>
      </trkpt>
      <trkpt lat="44.24632" lon="3.543">
        <ele>1205.8</ele>
        <time>2015-08-22T14:26:18.907Z</time>
      </trkpt>
      <trkpt lat="44.24631" lon="3.54299">
        <ele>1205.8</ele>
        <time>2015-08-22T14:26:19.855Z</time>
      </trkpt>
      <trkpt lat="44.24623" lon="3.54295">
        <ele>1205.7</ele>
        <time>2015-08-22T14:26:26.903Z</time>
      </trkpt>
      <trkpt lat="44.24622" lon="3.54294">
        <ele>1205.6</ele>
        <time>2015-08-22T14:26:27.854Z</time>
      </trkpt>
      <trkpt lat="44.24613" lon="3.5429">
        <ele>1205</ele>
        <time>2015-08-22T14:26:36.903Z</time>
      </trkpt>
      <trkpt lat="44.24612" lon="3.5429">
        <ele>1204.9</ele>
        <time>2015-08-22T14:26:37.855Z</time>
      </trkpt>
      <trkpt lat="44.24603" lon="3.54288">
        <ele>1204.2</ele>
        <time>2015-08-22T14:26:45.910Z</time>
      </trkpt>
      <trkpt lat="44.24602" lon="3.54288">
        <ele>1204.5</ele>
        <time>2015-08-22T14:26:46.853Z</time>
      </trkpt>
      <trkpt lat="44.24594" lon="3.54291">
        <ele>1203.2</ele>
        <time>2015-08-22T14:26:57.952Z</time>
      </trkpt>
      <trkpt lat="44.24593" lon="3.54291">
        <ele>1203</ele>
        <time>2015-08-22T14:26:58.866Z</time>
      </trkpt>
      <trkpt lat="44.24585" lon="3.54285">
        <ele>1203.1</ele>
        <time>2015-08-22T14:27:17.925Z</time>
      </trkpt>
      <trkpt lat="44.24584" lon="3.54285">
        <ele>1203</ele>
        <time>2015-08-22T14:27:18.886Z</time>
      </trkpt>
      <trkpt lat="44.24575" lon="3.54285">
        <ele>1201.3</ele>
        <time>2015-08-22T14:27:31.902Z</time>
      </trkpt>
      <trkpt lat="44.24575" lon="3.54285">
        <ele>1201</ele>
        <time>2015-08-22T14:27:32.858Z</time>
      </trkpt>
      <trkpt lat="44.24566" lon="3.54288">
        <ele>1197.6</ele>
        <time>2015-08-22T14:27:48.905Z</time>
      </trkpt>
      <trkpt lat="44.24565" lon="3.54287">
        <ele>1197.4</ele>
        <time>2015-08-22T14:27:49.855Z</time>
      </trkpt>
      <trkpt lat="44.24557" lon="3.54291">
        <ele>1194.3</ele>
        <time>2015-08-22T14:28:01.988Z</time>
      </trkpt>
      <trkpt lat="44.24556" lon="3.54292">
        <ele>1194</ele>
        <time>2015-08-22T14:28:02.854Z</time>
      </trkpt>
      <trkpt lat="44.24547" lon="3.54294">
        <ele>1191.3</ele>
        <time>2015-08-22T14:28:33.905Z</time>
      </trkpt>
      <trkpt lat="44.24547" lon="3.54294">
        <ele>1191.2</ele>
        <time>2015-08-22T14:28:34.857Z</time>
      </trkpt>
      <trkpt lat="44.24538" lon="3.54298">
        <ele>1190.4</ele>
        <time>2015-08-22T14:28:43.904Z</time>
      </trkpt>
      <trkpt lat="44.24537" lon="3.54299">
        <ele>1190.3</ele>
        <time>2015-08-22T14:28:44.853Z</time>
      </trkpt>
      <trkpt lat="44.24528" lon="3.54302">
        <ele>1189.4</ele>
        <time>2015-08-22T14:28:51.894Z</time>
      </trkpt>
      <trkpt lat="44.24528" lon="3.54302">
        <ele>1189.3</ele>
        <time>2015-08-22T14:28:52.855Z</time>
      </trkpt>
      <trkpt lat="44.24519" lon="3.54305">
        <ele>1189.8</ele>
        <time>2015-08-22T14:29:02.902Z</time>
      </trkpt>
      <trkpt lat="44.24518" lon="3.54306">
        <ele>1189.7</ele>
        <time>2015-08-22T14:29:03.866Z</time>
      </trkpt>
      <trkpt lat="44.24509" lon="3.54306">
        <ele>1188.4</ele>
        <time>2015-08-22T14:29:11.902Z</time>
      </trkpt>
      <trkpt lat="44.24508" lon="3.54307">
        <ele>1188.3</ele>
        <time>2015-08-22T14:29:12.868Z</time>
      </trkpt>
      <trkpt lat="44.245" lon="3.5431">
        <ele>1187.3</ele>
        <time>2015-08-22T14:29:20.902Z</time>
      </trkpt>
      <trkpt lat="44.24499" lon="3.5431">
        <ele>1187.3</ele>
        <time>2015-08-22T14:29:21.861Z</time>
      </trkpt>
      <trkpt lat="44.2449" lon="3.5431">
        <ele>1186.7</ele>
        <time>2015-08-22T14:29:31.903Z</time>
      </trkpt>
      <trkpt lat="44.24489" lon="3.5431">
        <ele>1186.7</ele>
        <time>2015-08-22T14:29:32.855Z</time>
      </trkpt>
      <trkpt lat="44.24481" lon="3.54308">
        <ele>1186.1</ele>
        <time>2015-08-22T14:29:39.913Z</time>
      </trkpt>
      <trkpt lat="44.2448" lon="3.54308">
        <ele>1186</ele>
        <time>2015-08-22T14:29:40.855Z</time>
      </trkpt>
      <trkpt lat="44.24473" lon="3.54305">
        <ele>1185.9</ele>
        <time>2015-08-22T14:29:46.903Z</time>
      </trkpt>
      <trkpt lat="44.24471" lon="3.54305">
        <ele>1185.8</ele>
        <time>2015-08-22T14:29:47.853Z</time>
      </trkpt>
      <trkpt lat="44.24463" lon="3.54301">
        <ele>1185.7</ele>
        <time>2015-08-22T14:29:53.911Z</time>
      </trkpt>
      <trkpt lat="44.24462" lon="3.543">
        <ele>1185.7</ele>
        <time>2015-08-22T14:29:54.859Z</time>
      </trkpt>
      <trkpt lat="44.24453" lon="3.54297">
        <ele>1185.7</ele>
        <time>2015-08-22T14:30:00.905Z</time>
      </trkpt>
      <trkpt lat="44.24452" lon="3.54297">
        <ele>1185.7</ele>
        <time>2015-08-22T14:30:01.855Z</time>
      </trkpt>
      <trkpt lat="44.24444" lon="3.54294">
        <ele>1186</ele>
        <time>2015-08-22T14:30:08.091Z</time>
      </trkpt>
      <trkpt lat="44.24442" lon="3.54294">
        <ele>1185.8</ele>
        <time>2015-08-22T14:30:08.852Z</time>
      </trkpt>
      <trkpt lat="44.24435" lon="3.5429">
        <ele>1185.6</ele>
        <time>2015-08-22T14:30:13.904Z</time>
      </trkpt>
      <trkpt lat="44.24434" lon="3.54289">
        <ele>1185.6</ele>
        <time>2015-08-22T14:30:15.258Z</time>
      </trkpt>
      <trkpt lat="44.24425" lon="3.54284">
        <ele>1185.9</ele>
        <time>2015-08-22T14:30:21.899Z</time>
      </trkpt>
      <trkpt lat="44.24424" lon="3.54283">
        <ele>1186</ele>
        <time>2015-08-22T14:30:22.855Z</time>
      </trkpt>
      <trkpt lat="44.24417" lon="3.5428">
        <ele>1186</ele>
        <time>2015-08-22T14:30:29.912Z</time>
      </trkpt>
      <trkpt lat="44.24415" lon="3.54279">
        <ele>1185.9</ele>
        <time>2015-08-22T14:30:30.855Z</time>
      </trkpt>
      <trkpt lat="44.24407" lon="3.54276">
        <ele>1185.6</ele>
        <time>2015-08-22T14:30:36.943Z</time>
      </trkpt>
      <trkpt lat="44.24406" lon="3.54275">
        <ele>1185.8</ele>
        <time>2015-08-22T14:30:37.878Z</time>
      </trkpt>
      <trkpt lat="44.24399" lon="3.54269">
        <ele>1187</ele>
        <time>2015-08-22T14:30:52.901Z</time>
      </trkpt>
      <trkpt lat="44.24398" lon="3.54269">
        <ele>1186.9</ele>
        <time>2015-08-22T14:30:53.853Z</time>
      </trkpt>
      <trkpt lat="44.2439" lon="3.54268">
        <ele>1186.2</ele>
        <time>2015-08-22T14:30:59.914Z</time>
      </trkpt>
      <trkpt lat="44.24388" lon="3.54268">
        <ele>1186.2</ele>
        <time>2015-08-22T14:31:00.854Z</time>
      </trkpt>
      <trkpt lat="44.2438" lon="3.54267">
        <ele>1186.6</ele>
        <time>2015-08-22T14:31:06.912Z</time>
      </trkpt>
      <trkpt lat="44.24378" lon="3.54267">
        <ele>1186.6</ele>
        <time>2015-08-22T14:31:07.865Z</time>
      </trkpt>
      <trkpt lat="44.2437" lon="3.54266">
        <ele>1185.9</ele>
        <time>2015-08-22T14:31:14.100Z</time>
      </trkpt>
      <trkpt lat="44.24369" lon="3.54266">
        <ele>1185.8</ele>
        <time>2015-08-22T14:31:14.856Z</time>
      </trkpt>
      <trkpt lat="44.24361" lon="3.54265">
        <ele>1185.8</ele>
        <time>2015-08-22T14:31:20.953Z</time>
      </trkpt>
      <trkpt lat="44.24359" lon="3.54264">
        <ele>1185.9</ele>
        <time>2015-08-22T14:31:21.854Z</time>
      </trkpt>
      <trkpt lat="44.24351" lon="3.54264">
        <ele>1185.9</ele>
        <time>2015-08-22T14:31:27.896Z</time>
      </trkpt>
      <trkpt lat="44.2435" lon="3.54264">
        <ele>1185.9</ele>
        <time>2015-08-22T14:31:28.854Z</time>
      </trkpt>
      <trkpt lat="44.24342" lon="3.54263">
        <ele>1186.2</ele>
        <time>2015-08-22T14:31:34.889Z</time>
      </trkpt>
      <trkpt lat="44.2434" lon="3.54263">
        <ele>1186.2</ele>
        <time>2015-08-22T14:31:35.882Z</time>
      </trkpt>
      <trkpt lat="44.24333" lon="3.54261">
        <ele>1186.9</ele>
        <time>2015-08-22T14:31:42.191Z</time>
      </trkpt>
      <trkpt lat="44.24331" lon="3.54261">
        <ele>1187.1</ele>
        <time>2015-08-22T14:31:42.856Z</time>
      </trkpt>
      <trkpt lat="44.24324" lon="3.5426">
        <ele>1187.1</ele>
        <time>2015-08-22T14:31:48.900Z</time>
      </trkpt>
      <trkpt lat="44.24322" lon="3.54259">
        <ele>1187.1</ele>
        <time>2015-08-22T14:31:49.863Z</time>
      </trkpt>
      <trkpt lat="44.24315" lon="3.54259">
        <ele>1188</ele>
        <time>2015-08-22T14:31:55.893Z</time>
      </trkpt>
      <trkpt lat="44.24313" lon="3.54259">
        <ele>1188.1</ele>
        <time>2015-08-22T14:31:56.854Z</time>
      </trkpt>
      <trkpt lat="44.24305" lon="3.54259">
        <ele>1188.9</ele>
        <time>2015-08-22T14:32:03.899Z</time>
      </trkpt>
      <trkpt lat="44.24303" lon="3.54259">
        <ele>1188.9</ele>
        <time>2015-08-22T14:32:04.863Z</time>
      </trkpt>
      <trkpt lat="44.24295" lon="3.54259">
        <ele>1189.2</ele>
        <time>2015-08-22T14:32:11.343Z</time>
      </trkpt>
      <trkpt lat="44.24293" lon="3.54259">
        <ele>1189.2</ele>
        <time>2015-08-22T14:32:11.869Z</time>
      </trkpt>
      <trkpt lat="44.24285" lon="3.5426">
        <ele>1189.5</ele>
        <time>2015-08-22T14:32:17.890Z</time>
      </trkpt>
      <trkpt lat="44.24284" lon="3.5426">
        <ele>1189.6</ele>
        <time>2015-08-22T14:32:18.858Z</time>
      </trkpt>
      <trkpt lat="44.24275" lon="3.54258">
        <ele>1190.5</ele>
        <time>2015-08-22T14:32:25.986Z</time>
      </trkpt>
      <trkpt lat="44.24274" lon="3.54258">
        <ele>1190.7</ele>
        <time>2015-08-22T14:32:26.856Z</time>
      </trkpt>
      <trkpt lat="44.24265" lon="3.54257">
        <ele>1191.5</ele>
        <time>2015-08-22T14:32:33.941Z</time>
      </trkpt>
      <trkpt lat="44.24264" lon="3.54257">
        <ele>1191.7</ele>
        <time>2015-08-22T14:32:34.866Z</time>
      </trkpt>
      <trkpt lat="44.24256" lon="3.54257">
        <ele>1192.9</ele>
        <time>2015-08-22T14:32:40.898Z</time>
      </trkpt>
      <trkpt lat="44.24255" lon="3.54257">
        <ele>1193</ele>
        <time>2015-08-22T14:32:41.872Z</time>
      </trkpt>
      <trkpt lat="44.24247" lon="3.54258">
        <ele>1193.7</ele>
        <time>2015-08-22T14:32:47.895Z</time>
      </trkpt>
      <trkpt lat="44.24245" lon="3.54258">
        <ele>1193.7</ele>
        <time>2015-08-22T14:32:48.868Z</time>
      </trkpt>
      <trkpt lat="44.24237" lon="3.54258">
        <ele>1193.8</ele>
        <time>2015-08-22T14:32:55.907Z</time>
      </trkpt>
      <trkpt lat="44.24235" lon="3.54258">
        <ele>1193.8</ele>
        <time>2015-08-22T14:32:56.866Z</time>
      </trkpt>
      <trkpt lat="44.24227" lon="3.54256">
        <ele>1194</ele>
        <time>2015-08-22T14:33:02.898Z</time>
      </trkpt>
      <trkpt lat="44.24226" lon="3.54256">
        <ele>1194</ele>
        <time>2015-08-22T14:33:03.853Z</time>
      </trkpt>
      <trkpt lat="44.24218" lon="3.54256">
        <ele>1193.7</ele>
        <time>2015-08-22T14:33:09.908Z</time>
      </trkpt>
      <trkpt lat="44.24216" lon="3.54256">
        <ele>1193.5</ele>
        <time>2015-08-22T14:33:10.854Z</time>
      </trkpt>
      <trkpt lat="44.24208" lon="3.54254">
        <ele>1192.3</ele>
        <time>2015-08-22T14:33:17.907Z</time>
      </trkpt>
      <trkpt lat="44.24207" lon="3.54254">
        <ele>1192.1</ele>
        <time>2015-08-22T14:33:18.860Z</time>
      </trkpt>
      <trkpt lat="44.24199" lon="3.54252">
        <ele>1191.3</ele>
        <time>2015-08-22T14:33:25.906Z</time>
      </trkpt>
      <trkpt lat="44.24197" lon="3.54252">
        <ele>1191.3</ele>
        <time>2015-08-22T14:33:26.866Z</time>
      </trkpt>
      <trkpt lat="44.24189" lon="3.54252">
        <ele>1191.2</ele>
        <time>2015-08-22T14:33:32.905Z</time>
      </trkpt>
      <trkpt lat="44.24188" lon="3.54252">
        <ele>1191.2</ele>
        <time>2015-08-22T14:33:33.879Z</time>
      </trkpt>
      <trkpt lat="44.24179" lon="3.5425">
        <ele>1190.6</ele>
        <time>2015-08-22T14:33:40.922Z</time>
      </trkpt>
      <trkpt lat="44.24178" lon="3.54249">
        <ele>1190.6</ele>
        <time>2015-08-22T14:33:41.879Z</time>
      </trkpt>
      <trkpt lat="44.24171" lon="3.54243">
        <ele>1189.9</ele>
        <time>2015-08-22T14:33:49.130Z</time>
      </trkpt>
      <trkpt lat="44.2417" lon="3.54242">
        <ele>1189.8</ele>
        <time>2015-08-22T14:33:49.861Z</time>
      </trkpt>
      <trkpt lat="44.24161" lon="3.54239">
        <ele>1189.5</ele>
        <time>2015-08-22T14:33:55.939Z</time>
      </trkpt>
      <trkpt lat="44.2416" lon="3.54238">
        <ele>1189.5</ele>
        <time>2015-08-22T14:33:56.866Z</time>
      </trkpt>
      <trkpt lat="44.24152" lon="3.54234">
        <ele>1189.9</ele>
        <time>2015-08-22T14:34:02.897Z</time>
      </trkpt>
      <trkpt lat="44.24151" lon="3.54234">
        <ele>1190</ele>
        <time>2015-08-22T14:34:03.855Z</time>
      </trkpt>
      <trkpt lat="44.24144" lon="3.54229">
        <ele>1190.5</ele>
        <time>2015-08-22T14:34:09.902Z</time>
      </trkpt>
      <trkpt lat="44.24143" lon="3.54229">
        <ele>1190.5</ele>
        <time>2015-08-22T14:34:10.855Z</time>
      </trkpt>
      <trkpt lat="44.24135" lon="3.54224">
        <ele>1190</ele>
        <time>2015-08-22T14:34:16.896Z</time>
      </trkpt>
      <trkpt lat="44.24134" lon="3.54223">
        <ele>1189.9</ele>
        <time>2015-08-22T14:34:17.865Z</time>
      </trkpt>
      <trkpt lat="44.24127" lon="3.54218">
        <ele>1189.3</ele>
        <time>2015-08-22T14:34:23.897Z</time>
      </trkpt>
      <trkpt lat="44.24126" lon="3.54217">
        <ele>1189.3</ele>
        <time>2015-08-22T14:34:24.857Z</time>
      </trkpt>
      <trkpt lat="44.24118" lon="3.54212">
        <ele>1189.3</ele>
        <time>2015-08-22T14:34:30.926Z</time>
      </trkpt>
      <trkpt lat="44.24117" lon="3.54212">
        <ele>1189.2</ele>
        <time>2015-08-22T14:34:31.884Z</time>
      </trkpt>
      <trkpt lat="44.24109" lon="3.54207">
        <ele>1189.2</ele>
        <time>2015-08-22T14:34:37.904Z</time>
      </trkpt>
      <trkpt lat="44.24108" lon="3.54206">
        <ele>1189.2</ele>
        <time>2015-08-22T14:34:38.866Z</time>
      </trkpt>
      <trkpt lat="44.241" lon="3.54203">
        <ele>1188.5</ele>
        <time>2015-08-22T14:34:44.892Z</time>
      </trkpt>
      <trkpt lat="44.24099" lon="3.54202">
        <ele>1188.5</ele>
        <time>2015-08-22T14:34:45.858Z</time>
      </trkpt>
      <trkpt lat="44.24091" lon="3.54199">
        <ele>1187.8</ele>
        <time>2015-08-22T14:35:07.894Z</time>
      </trkpt>
      <trkpt lat="44.2409" lon="3.54198">
        <ele>1187.7</ele>
        <time>2015-08-22T14:35:08.852Z</time>
      </trkpt>
      <trkpt lat="44.24083" lon="3.54192">
        <ele>1187.3</ele>
        <time>2015-08-22T14:35:15.158Z</time>
      </trkpt>
      <trkpt lat="44.24082" lon="3.54192">
        <ele>1187.2</ele>
        <time>2015-08-22T14:35:15.854Z</time>
      </trkpt>
      <trkpt lat="44.24074" lon="3.54187">
        <ele>1187.4</ele>
        <time>2015-08-22T14:35:21.889Z</time>
      </trkpt>
      <trkpt lat="44.24073" lon="3.54187">
        <ele>1187.2</ele>
        <time>2015-08-22T14:35:22.857Z</time>
      </trkpt>
      <trkpt lat="44.24065" lon="3.54182">
        <ele>1187</ele>
        <time>2015-08-22T14:35:28.903Z</time>
      </trkpt>
      <trkpt lat="44.24064" lon="3.54182">
        <ele>1187</ele>
        <time>2015-08-22T14:35:29.860Z</time>
      </trkpt>
      <trkpt lat="44.24056" lon="3.54179">
        <ele>1186.7</ele>
        <time>2015-08-22T14:35:35.926Z</time>
      </trkpt>
      <trkpt lat="44.24055" lon="3.54179">
        <ele>1186.6</ele>
        <time>2015-08-22T14:35:36.882Z</time>
      </trkpt>
      <trkpt lat="44.24047" lon="3.54178">
        <ele>1186.3</ele>
        <time>2015-08-22T14:35:42.926Z</time>
      </trkpt>
      <trkpt lat="44.24046" lon="3.54177">
        <ele>1186.3</ele>
        <time>2015-08-22T14:35:43.865Z</time>
      </trkpt>
      <trkpt lat="44.24038" lon="3.54174">
        <ele>1185.6</ele>
        <time>2015-08-22T14:35:49.895Z</time>
      </trkpt>
      <trkpt lat="44.24036" lon="3.54174">
        <ele>1185.5</ele>
        <time>2015-08-22T14:35:50.896Z</time>
      </trkpt>
      <trkpt lat="44.24028" lon="3.54171">
        <ele>1185.4</ele>
        <time>2015-08-22T14:35:58.940Z</time>
      </trkpt>
      <trkpt lat="44.24026" lon="3.54171">
        <ele>1185.4</ele>
        <time>2015-08-22T14:35:59.865Z</time>
      </trkpt>
      <trkpt lat="44.24018" lon="3.54169">
        <ele>1184.6</ele>
        <time>2015-08-22T14:36:05.903Z</time>
      </trkpt>
      <trkpt lat="44.24017" lon="3.54168">
        <ele>1184.6</ele>
        <time>2015-08-22T14:36:06.858Z</time>
      </trkpt>
      <trkpt lat="44.24009" lon="3.54166">
        <ele>1183.5</ele>
        <time>2015-08-22T14:36:12.902Z</time>
      </trkpt>
      <trkpt lat="44.24008" lon="3.54166">
        <ele>1183.3</ele>
        <time>2015-08-22T14:36:13.865Z</time>
      </trkpt>
      <trkpt lat="44.24" lon="3.54163">
        <ele>1181.8</ele>
        <time>2015-08-22T14:36:19.897Z</time>
      </trkpt>
      <trkpt lat="44.23998" lon="3.54163">
        <ele>1181.5</ele>
        <time>2015-08-22T14:36:20.852Z</time>
      </trkpt>
      <trkpt lat="44.2399" lon="3.54159">
        <ele>1180.6</ele>
        <time>2015-08-22T14:36:26.893Z</time>
      </trkpt>
      <trkpt lat="44.23989" lon="3.54158">
        <ele>1180.4</ele>
        <time>2015-08-22T14:36:27.865Z</time>
      </trkpt>
      <trkpt lat="44.2398" lon="3.54155">
        <ele>1179.2</ele>
        <time>2015-08-22T14:36:34.925Z</time>
      </trkpt>
      <trkpt lat="44.23979" lon="3.54155">
        <ele>1179.1</ele>
        <time>2015-08-22T14:36:35.858Z</time>
      </trkpt>
      <trkpt lat="44.23971" lon="3.54154">
        <ele>1178</ele>
        <time>2015-08-22T14:36:41.887Z</time>
      </trkpt>
      <trkpt lat="44.2397" lon="3.54154">
        <ele>1177.9</ele>
        <time>2015-08-22T14:36:42.853Z</time>
      </trkpt>
      <trkpt lat="44.23962" lon="3.54153">
        <ele>1176.4</ele>
        <time>2015-08-22T14:36:49.911Z</time>
      </trkpt>
      <trkpt lat="44.23961" lon="3.54152">
        <ele>1176.3</ele>
        <time>2015-08-22T14:36:50.866Z</time>
      </trkpt>
      <trkpt lat="44.23952" lon="3.54151">
        <ele>1175.3</ele>
        <time>2015-08-22T14:36:56.905Z</time>
      </trkpt>
      <trkpt lat="44.23951" lon="3.54151">
        <ele>1175.1</ele>
        <time>2015-08-22T14:36:57.866Z</time>
      </trkpt>
      <trkpt lat="44.23942" lon="3.54148">
        <ele>1173.9</ele>
        <time>2015-08-22T14:37:04.934Z</time>
      </trkpt>
      <trkpt lat="44.23941" lon="3.54147">
        <ele>1173.6</ele>
        <time>2015-08-22T14:37:05.856Z</time>
      </trkpt>
      <trkpt lat="44.23933" lon="3.54144">
        <ele>1172.2</ele>
        <time>2015-08-22T14:37:11.896Z</time>
      </trkpt>
      <trkpt lat="44.23932" lon="3.54143">
        <ele>1171.9</ele>
        <time>2015-08-22T14:37:12.857Z</time>
      </trkpt>
      <trkpt lat="44.23924" lon="3.54142">
        <ele>1170.4</ele>
        <time>2015-08-22T14:37:19.895Z</time>
      </trkpt>
      <trkpt lat="44.23923" lon="3.54142">
        <ele>1170.2</ele>
        <time>2015-08-22T14:37:20.861Z</time>
      </trkpt>
      <trkpt lat="44.23914" lon="3.54142">
        <ele>1168.9</ele>
        <time>2015-08-22T14:37:26.902Z</time>
      </trkpt>
      <trkpt lat="44.23913" lon="3.54142">
        <ele>1168.5</ele>
        <time>2015-08-22T14:37:27.857Z</time>
      </trkpt>
      <trkpt lat="44.23905" lon="3.54141">
        <ele>1166.1</ele>
        <time>2015-08-22T14:37:35.904Z</time>
      </trkpt>
      <trkpt lat="44.23903" lon="3.54141">
        <ele>1165.7</ele>
        <time>2015-08-22T14:37:36.857Z</time>
      </trkpt>
      <trkpt lat="44.23895" lon="3.5414">
        <ele>1163.8</ele>
        <time>2015-08-22T14:37:43.898Z</time>
      </trkpt>
      <trkpt lat="44.23894" lon="3.5414">
        <ele>1163.6</ele>
        <time>2015-08-22T14:37:44.854Z</time>
      </trkpt>
      <trkpt lat="44.23887" lon="3.54134">
        <ele>1161.7</ele>
        <time>2015-08-22T14:40:11.932Z</time>
      </trkpt>
      <trkpt lat="44.23886" lon="3.54134">
        <ele>1161.6</ele>
        <time>2015-08-22T14:40:12.866Z</time>
      </trkpt>
      <trkpt lat="44.23878" lon="3.54134">
        <ele>1160.2</ele>
        <time>2015-08-22T14:40:19.930Z</time>
      </trkpt>
      <trkpt lat="44.23876" lon="3.54133">
        <ele>1159.9</ele>
        <time>2015-08-22T14:40:20.853Z</time>
      </trkpt>
      <trkpt lat="44.23868" lon="3.54132">
        <ele>1158.5</ele>
        <time>2015-08-22T14:40:28.894Z</time>
      </trkpt>
      <trkpt lat="44.23867" lon="3.54132">
        <ele>1158.3</ele>
        <time>2015-08-22T14:40:29.861Z</time>
      </trkpt>
      <trkpt lat="44.23859" lon="3.54133">
        <ele>1155.7</ele>
        <time>2015-08-22T14:40:37.906Z</time>
      </trkpt>
      <trkpt lat="44.23858" lon="3.54134">
        <ele>1155.2</ele>
        <time>2015-08-22T14:40:38.855Z</time>
      </trkpt>
      <trkpt lat="44.23849" lon="3.54135">
        <ele>1153.4</ele>
        <time>2015-08-22T14:40:45.899Z</time>
      </trkpt>
      <trkpt lat="44.23848" lon="3.54135">
        <ele>1153</ele>
        <time>2015-08-22T14:40:46.855Z</time>
      </trkpt>
      <trkpt lat="44.23842" lon="3.54128">
        <ele>1151.9</ele>
        <time>2015-08-22T14:41:05.896Z</time>
      </trkpt>
      <trkpt lat="44.2384" lon="3.54129">
        <ele>1151.7</ele>
        <time>2015-08-22T14:41:06.853Z</time>
      </trkpt>
      <trkpt lat="44.23832" lon="3.54134">
        <ele>1150.3</ele>
        <time>2015-08-22T14:41:12.922Z</time>
      </trkpt>
      <trkpt lat="44.23831" lon="3.54135">
        <ele>1149.8</ele>
        <time>2015-08-22T14:41:13.878Z</time>
      </trkpt>
      <trkpt lat="44.23823" lon="3.54136">
        <ele>1147.5</ele>
        <time>2015-08-22T14:41:19.923Z</time>
      </trkpt>
      <trkpt lat="44.23822" lon="3.54136">
        <ele>1147.1</ele>
        <time>2015-08-22T14:41:20.866Z</time>
      </trkpt>
      <trkpt lat="44.23814" lon="3.54137">
        <ele>1145.4</ele>
        <time>2015-08-22T14:41:26.906Z</time>
      </trkpt>
      <trkpt lat="44.23813" lon="3.54137">
        <ele>1145</ele>
        <time>2015-08-22T14:41:27.878Z</time>
      </trkpt>
      <trkpt lat="44.23807" lon="3.54145">
        <ele>1142.8</ele>
        <time>2015-08-22T14:41:35.335Z</time>
      </trkpt>
      <trkpt lat="44.23806" lon="3.54146">
        <ele>1142.6</ele>
        <time>2015-08-22T14:41:35.856Z</time>
      </trkpt>
      <trkpt lat="44.23801" lon="3.54157">
        <ele>1141</ele>
        <time>2015-08-22T14:41:42.953Z</time>
      </trkpt>
      <trkpt lat="44.238" lon="3.54158">
        <ele>1140.8</ele>
        <time>2015-08-22T14:41:43.875Z</time>
      </trkpt>
      <trkpt lat="44.23795" lon="3.54167">
        <ele>1139.5</ele>
        <time>2015-08-22T14:41:49.888Z</time>
      </trkpt>
      <trkpt lat="44.23794" lon="3.54168">
        <ele>1139.2</ele>
        <time>2015-08-22T14:41:50.865Z</time>
      </trkpt>
      <trkpt lat="44.23789" lon="3.54178">
        <ele>1138.1</ele>
        <time>2015-08-22T14:41:56.893Z</time>
      </trkpt>
      <trkpt lat="44.23788" lon="3.54179">
        <ele>1138</ele>
        <time>2015-08-22T14:41:57.866Z</time>
      </trkpt>
      <trkpt lat="44.23783" lon="3.54189">
        <ele>1137</ele>
        <time>2015-08-22T14:42:05.934Z</time>
      </trkpt>
      <trkpt lat="44.23783" lon="3.5419">
        <ele>1136.9</ele>
        <time>2015-08-22T14:42:06.867Z</time>
      </trkpt>
      <trkpt lat="44.23779" lon="3.542">
        <ele>1136.2</ele>
        <time>2015-08-22T14:42:12.961Z</time>
      </trkpt>
      <trkpt lat="44.23778" lon="3.54201">
        <ele>1135.9</ele>
        <time>2015-08-22T14:42:13.878Z</time>
      </trkpt>
      <trkpt lat="44.23775" lon="3.54212">
        <ele>1135.1</ele>
        <time>2015-08-22T14:42:19.904Z</time>
      </trkpt>
      <trkpt lat="44.23775" lon="3.54214">
        <ele>1135</ele>
        <time>2015-08-22T14:42:20.866Z</time>
      </trkpt>
      <trkpt lat="44.2377" lon="3.54225">
        <ele>1134.3</ele>
        <time>2015-08-22T14:42:27.890Z</time>
      </trkpt>
      <trkpt lat="44.23769" lon="3.54226">
        <ele>1134.2</ele>
        <time>2015-08-22T14:42:28.865Z</time>
      </trkpt>
      <trkpt lat="44.23766" lon="3.54238">
        <ele>1132.6</ele>
        <time>2015-08-22T14:42:37.933Z</time>
      </trkpt>
      <trkpt lat="44.23766" lon="3.54239">
        <ele>1132.4</ele>
        <time>2015-08-22T14:42:38.865Z</time>
      </trkpt>
      <trkpt lat="44.23767" lon="3.54251">
        <ele>1130.6</ele>
        <time>2015-08-22T14:42:46.891Z</time>
      </trkpt>
      <trkpt lat="44.23767" lon="3.54252">
        <ele>1130.2</ele>
        <time>2015-08-22T14:42:47.853Z</time>
      </trkpt>
      <trkpt lat="44.2377" lon="3.54264">
        <ele>1127.9</ele>
        <time>2015-08-22T14:42:55.904Z</time>
      </trkpt>
      <trkpt lat="44.23771" lon="3.54265">
        <ele>1127.6</ele>
        <time>2015-08-22T14:42:56.854Z</time>
      </trkpt>
      <trkpt lat="44.23778" lon="3.5427">
        <ele>1126.5</ele>
        <time>2015-08-22T14:43:04.895Z</time>
      </trkpt>
      <trkpt lat="44.2378" lon="3.54271">
        <ele>1126.3</ele>
        <time>2015-08-22T14:43:05.858Z</time>
      </trkpt>
      <trkpt lat="44.23788" lon="3.54273">
        <ele>1125.4</ele>
        <time>2015-08-22T14:43:11.919Z</time>
      </trkpt>
      <trkpt lat="44.23789" lon="3.54274">
        <ele>1125.3</ele>
        <time>2015-08-22T14:43:12.866Z</time>
      </trkpt>
      <trkpt lat="44.23797" lon="3.54278">
        <ele>1124.3</ele>
        <time>2015-08-22T14:43:19.271Z</time>
      </trkpt>
      <trkpt lat="44.23798" lon="3.54279">
        <ele>1124</ele>
        <time>2015-08-22T14:43:19.866Z</time>
      </trkpt>
      <trkpt lat="44.23805" lon="3.54286">
        <ele>1123.1</ele>
        <time>2015-08-22T14:43:25.893Z</time>
      </trkpt>
      <trkpt lat="44.23806" lon="3.54287">
        <ele>1123</ele>
        <time>2015-08-22T14:43:26.866Z</time>
      </trkpt>
      <trkpt lat="44.23811" lon="3.54297">
        <ele>1121.8</ele>
        <time>2015-08-22T14:43:33.933Z</time>
      </trkpt>
      <trkpt lat="44.23812" lon="3.54299">
        <ele>1121.5</ele>
        <time>2015-08-22T14:43:34.869Z</time>
      </trkpt>
      <trkpt lat="44.23812" lon="3.54311">
        <ele>1119.9</ele>
        <time>2015-08-22T14:43:40.894Z</time>
      </trkpt>
      <trkpt lat="44.23812" lon="3.54312">
        <ele>1119.8</ele>
        <time>2015-08-22T14:43:41.878Z</time>
      </trkpt>
      <trkpt lat="44.23809" lon="3.54323">
        <ele>1119.2</ele>
        <time>2015-08-22T14:43:47.933Z</time>
      </trkpt>
      <trkpt lat="44.23809" lon="3.54325">
        <ele>1119</ele>
        <time>2015-08-22T14:43:48.860Z</time>
      </trkpt>
      <trkpt lat="44.23806" lon="3.54336">
        <ele>1118.1</ele>
        <time>2015-08-22T14:43:54.924Z</time>
      </trkpt>
      <trkpt lat="44.23805" lon="3.54337">
        <ele>1117.9</ele>
        <time>2015-08-22T14:43:55.878Z</time>
      </trkpt>
      <trkpt lat="44.23803" lon="3.54348">
        <ele>1117.2</ele>
        <time>2015-08-22T14:44:01.934Z</time>
      </trkpt>
      <trkpt lat="44.23802" lon="3.54349">
        <ele>1117.2</ele>
        <time>2015-08-22T14:44:02.882Z</time>
      </trkpt>
      <trkpt lat="44.23798" lon="3.54359">
        <ele>1116.7</ele>
        <time>2015-08-22T14:44:08.925Z</time>
      </trkpt>
      <trkpt lat="44.23797" lon="3.54361">
        <ele>1116.6</ele>
        <time>2015-08-22T14:44:09.896Z</time>
      </trkpt>
      <trkpt lat="44.23793" lon="3.54371">
        <ele>1115.8</ele>
        <time>2015-08-22T14:44:15.933Z</time>
      </trkpt>
      <trkpt lat="44.23793" lon="3.54373">
        <ele>1115.6</ele>
        <time>2015-08-22T14:44:16.865Z</time>
      </trkpt>
      <trkpt lat="44.23788" lon="3.54384">
        <ele>1114.6</ele>
        <time>2015-08-22T14:44:22.894Z</time>
      </trkpt>
      <trkpt lat="44.23787" lon="3.54386">
        <ele>1114.5</ele>
        <time>2015-08-22T14:44:23.858Z</time>
      </trkpt>
      <trkpt lat="44.23785" lon="3.54395">
        <ele>1113.6</ele>
        <time>2015-08-22T14:44:28.895Z</time>
      </trkpt>
      <trkpt lat="44.23784" lon="3.54398">
        <ele>1113.5</ele>
        <time>2015-08-22T14:44:29.854Z</time>
      </trkpt>
      <trkpt lat="44.23783" lon="3.5441">
        <ele>1112</ele>
        <time>2015-08-22T14:44:35.907Z</time>
      </trkpt>
      <trkpt lat="44.23783" lon="3.54412">
        <ele>1111.8</ele>
        <time>2015-08-22T14:44:36.856Z</time>
      </trkpt>
      <trkpt lat="44.23782" lon="3.54424">
        <ele>1111</ele>
        <time>2015-08-22T14:44:42.902Z</time>
      </trkpt>
      <trkpt lat="44.23782" lon="3.54426">
        <ele>1111</ele>
        <time>2015-08-22T14:44:43.853Z</time>
      </trkpt>
      <trkpt lat="44.23783" lon="3.54438">
        <ele>1110.4</ele>
        <time>2015-08-22T14:44:49.905Z</time>
      </trkpt>
      <trkpt lat="44.23783" lon="3.5444">
        <ele>1110.3</ele>
        <time>2015-08-22T14:44:50.856Z</time>
      </trkpt>
      <trkpt lat="44.23783" lon="3.54451">
        <ele>1110.2</ele>
        <time>2015-08-22T14:44:56.895Z</time>
      </trkpt>
      <trkpt lat="44.23783" lon="3.54453">
        <ele>1110.3</ele>
        <time>2015-08-22T14:44:57.853Z</time>
      </trkpt>
      <trkpt lat="44.23783" lon="3.54465">
        <ele>1109.8</ele>
        <time>2015-08-22T14:45:03.894Z</time>
      </trkpt>
      <trkpt lat="44.23783" lon="3.54467">
        <ele>1109.5</ele>
        <time>2015-08-22T14:45:04.865Z</time>
      </trkpt>
      <trkpt lat="44.23781" lon="3.54477">
        <ele>1108.3</ele>
        <time>2015-08-22T14:45:10.894Z</time>
      </trkpt>
      <trkpt lat="44.2378" lon="3.54479">
        <ele>1108.1</ele>
        <time>2015-08-22T14:45:11.859Z</time>
      </trkpt>
      <trkpt lat="44.23777" lon="3.5449">
        <ele>1107.1</ele>
        <time>2015-08-22T14:45:17.953Z</time>
      </trkpt>
      <trkpt lat="44.23777" lon="3.54492">
        <ele>1106.9</ele>
        <time>2015-08-22T14:45:18.867Z</time>
      </trkpt>
      <trkpt lat="44.23773" lon="3.54502">
        <ele>1105.6</ele>
        <time>2015-08-22T14:45:24.888Z</time>
      </trkpt>
      <trkpt lat="44.23772" lon="3.54503">
        <ele>1105.4</ele>
        <time>2015-08-22T14:45:25.854Z</time>
      </trkpt>
      <trkpt lat="44.23764" lon="3.54505">
        <ele>1102.4</ele>
        <time>2015-08-22T14:45:36.921Z</time>
      </trkpt>
      <trkpt lat="44.23763" lon="3.54504">
        <ele>1102</ele>
        <time>2015-08-22T14:45:37.878Z</time>
      </trkpt>
      <trkpt lat="44.23755" lon="3.54501">
        <ele>1099.4</ele>
        <time>2015-08-22T14:45:45.892Z</time>
      </trkpt>
      <trkpt lat="44.23753" lon="3.54501">
        <ele>1099.1</ele>
        <time>2015-08-22T14:45:46.893Z</time>
      </trkpt>
      <trkpt lat="44.23747" lon="3.54509">
        <ele>1096.8</ele>
        <time>2015-08-22T14:45:56.897Z</time>
      </trkpt>
      <trkpt lat="44.23747" lon="3.5451">
        <ele>1096.6</ele>
        <time>2015-08-22T14:45:57.856Z</time>
      </trkpt>
      <trkpt lat="44.23742" lon="3.54518">
        <ele>1095.3</ele>
        <time>2015-08-22T14:46:05.891Z</time>
      </trkpt>
      <trkpt lat="44.2374" lon="3.5452">
        <ele>1095</ele>
        <time>2015-08-22T14:46:08.085Z</time>
      </trkpt>
      <trkpt lat="44.23735" lon="3.5453">
        <ele>1094.2</ele>
        <time>2015-08-22T14:46:15.914Z</time>
      </trkpt>
      <trkpt lat="44.23734" lon="3.54531">
        <ele>1094.1</ele>
        <time>2015-08-22T14:46:16.865Z</time>
      </trkpt>
      <trkpt lat="44.23734" lon="3.54532">
        <ele>1094</ele>
        <time>2015-08-22T14:46:18.287Z</time>
      </trkpt>
    </trkseg>
  </trk>
</gpx>